GFSNGP_sfc_thetae_000.txt.gz
Theta_e
310 312 312 312 311 310 307 309 305 309 310 316 319 321 318 322 341 340 341 340 341 341 344 345 345 347 346 345 343 347 344 344 345 342 347 344 346 345 345 344 343 340 337 338
309 312 311 309 312 311 309 309 309 310 310 318 318 321 318 324 337 337 338 338 339 343 343 343 344 344 346 346 346 347 343 344 345 345 343 342 345 342 343 342 341 340 338 336
306 310 310 306 310 311 311 312 311 309 315 318 318 322 320 336 335 335 336 337 336 337 338 340 339 342 342 346 347 349 342 344 341 344 342 342 341 342 341 339 338 336 330 329
307 310 299 311 319 317 315 314 315 324 320 318 316 325 327 340 336 335 334 334 335 334 336 336 336 336 337 338 340 345 344 340 341 341 340 340 340 338 338 336 333 330 327 325
305 304 308 313 315 312 315 312 318 322 326 322 327 329 333 337 337 334 333 333 332 332 331 329 327 328 332 335 336 339 343 342 339 337 338 335 336 335 332 329 324 322 321 320
309 302 299 312 319 324 322 308 326 326 329 328 329 320 324 332 332 331 330 330 327 325 323 322 321 323 324 329 330 333 330 334 330 330 324 322 324 321 321 322 319 316 314 314
305 304 308 319 323 324 307 314 328 331 331 330 327 329 332 331 330 330 328 323 323 321 318 318 317 315 312 312 311 314 317 319 318 316 314 314 312 313 313 311 309 309 308 308
308 305 301 322 319 312 326 330 332 331 330 328 328 328 329 329 327 325 322 321 319 317 314 314 313 310 308 307 311 312 313 312 312 311 312 310 308 307 306 305 303 302 301 301
314 313 327 332 330 333 333 331 333 331 330 329 327 326 326 324 322 320 319 317 317 314 312 312 311 310 307 308 309 308 308 308 308 308 309 309 306 306 304 304 302 301 300 300
314 318 322 326 330 331 332 330 332 331 329 328 325 326 323 321 320 317 317 315 315 313 311 310 310 310 309 309 310 309 308 308 309 309 310 310 309 309 305 305 302 301 300 300
312 319 317 325 328 330 330 331 329 329 328 327 326 324 320 319 318 317 315 314 313 312 313 313 312 312 313 312 311 308 307 305 303 303 301 301 301 302 302 301 302 301 301 300
308 321 320 321 330 330 328 327 328 325 324 325 326 323 321 318 317 316 314 314 313 314 314 315 315 314 315 317 316 312 307 304 301 300 300 300 299 296 297 297 294 293 293 297
319 325 326 325 324 324 325 325 325 325 325 323 324 323 320 317 317 314 314 314 314 315 316 317 317 315 317 317 317 313 310 311 308 306 305 303 301 298 295 295 295 293 292 292
321 318 319 319 320 326 325 325 323 325 325 324 322 321 320 317 316 315 315 316 318 318 317 316 317 316 318 319 318 315 311 306 308 307 306 306 305 303 302 301 298 297 294 295
314 318 320 316 326 326 326 324 321 320 322 321 322 321 319 318 316 316 318 318 318 317 315 314 315 315 318 317 315 313 311 311 312 312 311 311 310 309 307 306 304 301 298 295
316 313 318 311 319 324 324 323 320 319 321 321 320 320 319 318 317 315 314 314 312 311 315 318 317 318 319 318 317 316 314 313 312 311 309 310 309 308 307 308 308 305 302 302
314 313 317 321 322 322 322 321 321 319 319 319 320 320 320 316 313 312 312 313 314 318 322 321 320 323 322 323 320 314 312 312 312 312 311 309 309 308 308 307 306 304 302 297
317 319 321 323 323 322 321 321 320 320 318 319 319 317 314 312 310 312 313 315 317 321 320 321 322 323 323 321 321 317 314 312 312 311 311 310 309 309 308 307 306 303 300 297
317 317 318 322 325 323 322 320 319 320 320 318 314 312 311 310 310 311 313 315 317 319 321 323 320 323 324 321 319 316 315 313 311 311 311 307 309 308 307 307 305 303 302 299
316 317 318 323 325 323 321 319 320 319 318 313 309 308 308 308 312 311 315 318 318 319 323 322 324 323 324 321 318 314 314 311 309 311 310 309 308 308 308 302 303 303 302 301
315 318 322 322 322 322 321 319 317 315 315 310 306 308 309 312 313 316 316 314 317 319 321 317 322 319 318 316 313 310 311 312 309 310 309 308 308 308 308 304 304 302 301 301
321 321 321 321 319 318 315 315 313 311 312 313 314 314 313 313 315 316 319 314 313 306 316 316 313 309 310 309 309 309 309 310 309 310 310 309 308 307 306 305 304 303 302 301
322 320 318 316 313 311 311 310 311 312 311 312 313 313 313 315 316 312 309 311 312 308 312 311 305 308 308 310 309 310 309 308 308 307 308 309 307 307 306 305 304 303 302 301
318 316 314 312 311 309 306 308 309 309 310 310 310 313 314 313 310 309 309 305 303 307 307 305 305 305 302 307 308 308 308 307 307 306 307 300 307 306 306 305 302 301 302 299
312 310 308 307 306 305 305 306 306 307 308 309 312 315 315 317 312 308 309 307 303 305 310 301 303 303 305 306 307 308 307 306 306 306 306 306 305 305 305 303 302 302 302 302
306 306 306 307 306 306 307 307 306 308 310 310 312 312 312 311 309 310 310 306 308 307 309 307 307 306 305 307 308 307 306 306 305 305 303 305 305 304 304 303 303 302 302 302
307 305 308 308 310 309 309 310 310 311 313 313 310 310 311 312 311 310 308 310 310 310 311 309 308 305 306 306 306 306 306 306 301 305 305 304 304 304 304 303 303 304 303 303

GFSNGP_sfc_thetae_003.txt.gz
Theta_e
306 309 308 309 307 308 302 301 299 300 308 311 315 314 316 327 322 330 334 336 336 334 337 337 339 340 336 336 335 335 337 336 334 334 337 339 337 337 336 335 333 333 333 331
305 310 310 308 310 311 310 307 303 306 307 318 316 321 324 320 320 315 332 336 336 336 337 335 338 337 339 340 338 338 337 337 337 335 335 337 336 334 334 333 332 332 328 323
298 308 308 301 309 311 310 311 306 304 309 315 314 320 326 327 325 333 333 332 332 331 331 329 328 330 330 333 335 338 335 339 338 337 335 335 334 332 330 326 326 323 320 314
299 304 295 306 314 314 313 316 317 314 314 316 318 321 323 332 331 331 330 329 326 326 324 322 322 323 326 331 332 334 337 336 336 336 334 333 332 329 325 323 319 318 314 309
300 299 305 308 314 310 310 314 319 314 316 320 319 330 328 331 330 327 325 324 322 321 319 319 319 321 323 327 329 331 332 332 333 334 332 330 326 323 318 314 311 308 308 308
301 296 295 305 315 319 317 306 323 320 317 316 321 316 319 325 326 322 321 320 319 320 318 316 315 314 312 310 311 314 323 326 325 325 323 321 321 317 313 310 308 306 305 304
301 299 303 312 318 320 303 308 325 322 321 322 319 322 324 326 322 321 320 320 318 316 313 313 311 310 308 308 308 311 314 315 315 315 314 311 309 308 306 306 305 304 304 304
300 297 295 328 322 314 321 326 326 327 324 323 324 325 325 324 320 318 318 318 316 312 311 311 310 308 306 305 307 309 310 310 310 310 309 308 306 305 304 304 302 302 303 302
306 306 319 323 325 328 330 326 325 325 325 324 322 323 321 318 317 318 316 316 314 311 310 310 309 308 305 306 308 308 307 307 307 308 307 307 305 304 303 303 302 301 301 301
310 314 317 320 323 325 329 327 327 327 326 325 322 319 317 315 316 316 315 314 313 311 309 308 309 309 308 308 309 308 308 308 308 307 307 306 306 305 303 302 301 301 300 300
310 315 316 318 323 324 325 327 325 325 324 323 320 318 316 316 316 314 314 314 314 311 309 309 310 309 310 310 307 304 302 300 300 299 298 297 298 299 299 296 300 300 299 298
305 317 312 317 321 325 321 322 322 321 321 322 320 317 317 315 315 314 313 313 313 313 313 313 312 311 310 310 306 300 297 297 297 297 296 294 292 292 297 295 294 292 294 294
313 319 321 322 322 325 321 322 323 322 321 319 318 317 317 315 315 314 314 314 314 313 314 313 312 311 311 306 302 299 297 297 298 297 295 293 291 290 288 291 294 292 291 291
317 315 314 318 317 323 322 323 322 322 320 319 317 317 318 315 315 314 314 314 316 316 315 315 313 311 311 310 308 304 302 303 299 298 297 295 293 293 292 291 289 289 292 291
315 317 316 315 318 322 321 321 318 317 317 317 319 317 316 315 314 315 316 317 316 315 314 313 312 312 311 309 305 303 302 302 301 300 300 298 296 295 296 296 293 290 289 291
313 318 317 313 317 319 319 318 316 315 317 318 318 317 317 317 316 315 315 315 312 308 308 309 309 310 310 307 305 304 306 309 305 301 302 302 301 300 298 297 295 292 292 291
310 311 312 310 312 314 317 319 317 316 318 318 316 317 317 315 313 311 311 312 311 312 312 310 310 313 312 309 308 307 304 305 307 303 302 301 302 300 299 300 298 295 292 292
314 314 318 313 311 311 317 319 318 317 316 318 318 317 314 310 309 309 311 311 312 314 317 316 316 316 316 316 312 307 305 306 306 304 304 303 302 302 300 299 295 292 289 288
315 313 318 317 318 317 319 317 317 318 319 317 314 312 310 309 310 311 312 313 312 313 314 316 320 318 312 315 312 311 309 309 307 305 303 303 302 301 300 299 296 294 291 290
313 313 313 322 322 320 318 316 317 316 315 315 312 309 308 308 310 311 313 312 314 315 315 316 315 315 315 313 313 307 308 308 308 306 303 302 303 302 300 297 297 296 294 293
311 312 315 319 320 319 319 318 314 311 312 312 310 308 307 308 311 314 312 310 313 316 315 316 316 314 312 309 308 304 304 306 307 305 304 303 303 302 302 298 297 296 295 294
311 318 319 319 318 318 317 315 313 310 306 309 309 309 311 312 313 313 314 312 310 306 310 310 304 308 304 308 304 303 304 305 303 304 303 303 303 301 300 298 296 296 295 294
318 317 316 314 313 311 311 311 312 310 312 313 312 312 312 311 311 308 305 308 306 305 305 303 306 308 306 303 303 303 304 303 301 301 300 301 301 301 299 298 297 296 294 294
314 313 311 311 310 309 307 309 310 310 311 312 313 313 311 308 307 308 308 304 305 305 303 303 304 304 304 301 301 301 302 301 300 299 299 297 299 299 299 296 295 295 294 294
310 310 310 309 306 306 307 307 307 308 308 309 312 313 313 313 309 307 308 305 303 305 303 303 304 303 300 300 300 301 301 300 299 297 298 298 298 297 297 297 296 295 294 295
307 306 306 307 306 307 307 307 306 307 307 308 310 311 310 309 307 308 307 306 307 306 306 305 302 300 300 300 301 302 300 299 298 297 297 297 296 297 297 296 294 294 295 295
306 304 306 306 307 308 307 307 307 307 309 310 310 310 309 308 307 307 307 308 308 308 307 306 303 301 300 300 299 300 300 299 297 297 297 296 296 296 296 297 296 297 296 296

GFSNGP_sfc_thetae_006.txt.gz
Theta_e
301 306 307 306 305 307 299 298 296 298 305 310 313 313 316 318 318 325 321 324 331 332 334 334 337 334 331 331 332 335 335 333 332 332 334 335 333 332 331 331 330 329 327 327
300 306 308 306 308 309 309 309 301 307 306 313 314 317 318 317 321 322 323 327 335 332 330 328 329 329 331 332 333 334 338 335 335 335 336 333 332 330 330 327 324 320 316 316
295 304 304 299 304 308 309 310 307 302 308 316 314 318 320 317 319 319 323 327 328 324 323 321 320 323 323 328 331 333 336 336 335 336 334 331 330 326 323 319 316 312 309 309
295 297 290 303 310 311 311 318 314 311 313 316 318 321 323 323 319 321 325 326 322 320 318 317 317 318 322 327 328 330 333 333 333 333 332 329 325 321 316 315 314 311 308 306
296 294 300 306 309 309 308 313 317 315 317 319 324 325 320 326 327 325 323 321 318 317 315 315 314 315 314 316 318 322 327 331 334 332 328 324 319 314 310 308 305 304 305 306
297 294 292 302 311 316 313 305 320 317 324 324 325 314 318 321 320 319 318 317 315 315 314 311 312 312 312 311 312 313 317 323 331 330 326 319 315 311 308 306 304 304 304 305
297 296 300 317 324 319 298 300 320 318 317 320 318 318 320 319 318 318 315 314 314 313 311 310 310 310 308 308 307 311 314 314 314 314 313 311 308 307 306 304 303 303 304 305
296 294 294 320 322 311 314 322 322 321 321 321 320 319 318 316 315 314 313 313 312 310 309 310 309 308 306 306 308 309 309 309 309 309 310 308 306 305 305 305 304 303 303 303
300 299 315 318 321 323 327 322 322 320 322 322 320 317 315 313 312 313 313 312 311 309 308 308 308 308 306 307 309 309 308 307 307 307 307 306 305 304 304 304 303 302 302 301
304 310 313 318 320 324 325 324 325 325 323 321 315 314 313 312 311 312 312 311 310 309 307 307 308 308 308 309 309 308 306 305 305 304 304 304 304 305 303 302 300 301 301 300
305 309 313 317 321 316 321 325 325 324 321 318 316 312 312 311 311 312 312 312 311 309 307 307 309 308 308 306 304 301 301 300 300 299 298 297 297 296 296 295 299 300 298 298
302 311 310 312 318 322 321 320 321 320 319 320 317 313 313 311 313 313 312 311 309 309 310 310 309 308 306 304 301 298 296 297 296 294 292 292 291 290 296 295 294 293 293 292
310 318 318 320 321 323 321 320 321 320 319 316 314 313 312 312 313 312 313 313 312 312 312 311 309 310 307 301 296 295 294 293 293 291 289 288 288 288 287 290 294 292 291 291
314 315 313 317 316 321 320 320 319 318 317 316 314 314 314 314 313 313 313 314 314 313 310 308 305 302 301 299 296 295 295 299 293 291 290 289 289 291 291 289 286 286 290 290
313 314 312 312 318 319 318 318 316 315 315 314 316 314 315 313 313 313 314 315 315 312 311 309 307 304 307 305 301 298 298 296 294 293 291 291 290 290 291 289 288 287 286 289
309 312 315 311 312 316 316 316 314 313 314 316 315 315 315 315 315 314 316 314 310 311 309 308 307 308 307 302 300 298 298 302 300 296 294 293 292 292 293 291 289 288 288 288
307 307 308 309 313 314 314 315 315 315 315 315 315 316 316 315 314 312 315 314 311 310 308 307 308 308 307 304 302 302 302 303 304 299 300 298 297 297 297 294 291 290 291 291
308 310 312 310 314 313 314 316 314 315 315 315 315 316 314 313 311 311 311 310 309 308 310 310 310 310 308 306 304 305 302 302 302 301 301 300 298 297 298 295 295 293 289 289
309 310 313 312 312 313 314 314 315 315 316 315 314 312 313 311 312 310 310 309 310 310 312 314 317 314 311 313 311 308 305 306 305 303 302 302 301 300 296 295 293 290 288 288
308 311 317 314 315 317 316 314 315 315 317 316 314 311 309 310 310 310 311 311 313 313 315 315 313 310 307 310 311 304 307 307 306 305 301 301 300 298 298 296 293 291 289 289
307 307 315 315 318 317 318 316 315 313 312 311 309 308 308 309 313 313 311 310 312 314 313 313 313 311 305 304 301 300 301 303 305 304 302 300 300 299 298 295 296 294 291 291
305 306 315 316 316 315 314 313 311 310 309 308 309 309 310 312 312 312 312 311 311 307 309 302 303 306 304 306 300 300 301 302 303 303 302 301 301 300 300 297 294 293 294 291
312 313 315 316 314 310 311 308 307 307 306 306 308 310 311 311 311 308 306 306 305 304 303 302 305 306 305 301 299 299 300 300 298 298 298 299 301 302 301 300 297 295 292 292
309 308 308 309 310 309 308 310 312 312 313 311 310 311 310 309 308 309 308 305 305 302 301 302 304 303 303 300 298 298 298 299 297 297 297 296 296 297 297 297 295 293 292 292
307 306 307 307 306 306 307 309 310 310 311 311 311 311 312 311 308 307 305 304 303 303 303 303 305 303 300 298 297 298 299 297 297 296 296 295 295 294 298 297 295 294 292 292
306 306 306 307 307 307 308 309 308 309 309 309 310 310 310 308 308 307 307 305 306 306 306 305 303 301 299 298 299 298 298 297 295 295 295 295 294 294 294 294 293 293 292 293
306 304 307 307 307 308 308 308 307 307 308 309 309 310 309 307 306 306 305 307 307 307 307 305 304 302 300 299 297 296 296 296 295 296 296 294 294 294 294 294 294 294 293 293

GFSNGP_sfc_thetae_009.txt.gz
Theta_e
296 299 304 304 305 303 298 296 294 296 299 303 311 312 316 317 322 329 326 327 328 329 330 330 331 330 331 329 330 332 334 331 331 331 332 332 330 328 328 326 323 322 323 324
297 304 305 304 305 307 306 305 300 300 301 308 312 314 315 316 318 322 322 327 331 329 327 325 325 325 327 328 330 332 334 332 334 331 333 331 329 327 325 319 316 316 316 321
292 301 301 295 303 306 306 309 307 302 304 311 311 313 314 315 318 320 323 327 326 323 322 319 319 320 322 325 328 330 332 335 334 333 330 329 327 323 318 313 311 309 312 316
293 294 288 298 307 309 311 316 313 309 311 313 313 318 317 319 317 321 326 324 322 319 317 315 315 316 317 323 324 325 328 332 332 331 329 325 321 317 313 310 307 305 306 307
294 292 297 303 306 307 304 310 312 311 316 317 322 321 318 322 323 322 321 319 317 317 314 313 312 313 313 315 318 321 322 329 332 330 327 321 314 309 306 305 303 302 306 309
296 292 291 299 314 323 314 301 314 316 318 319 321 312 315 322 321 319 318 317 315 314 311 310 309 309 312 312 313 312 315 317 331 328 322 315 312 307 305 305 302 304 304 306
296 294 299 313 319 321 298 299 315 321 320 321 316 315 318 318 317 316 314 314 314 312 310 309 308 307 309 309 308 310 312 313 313 317 315 311 309 308 307 303 303 303 303 305
294 293 293 318 317 306 311 319 317 318 319 317 318 318 317 315 313 313 313 313 312 311 308 308 309 308 307 306 309 309 309 308 308 311 310 309 306 306 306 306 304 304 304 303
296 298 313 319 321 320 322 320 317 319 320 319 316 315 315 314 313 312 311 311 310 308 307 308 308 308 306 308 309 309 307 306 306 307 307 307 306 305 305 305 304 303 303 302
302 309 314 318 319 321 322 322 323 323 321 319 315 314 312 312 312 311 311 310 309 308 307 306 308 308 308 307 307 305 303 303 304 304 303 304 304 304 304 303 302 302 301 301
303 307 312 316 317 316 322 323 323 320 319 316 314 313 312 311 311 311 311 310 309 308 307 307 308 305 304 304 304 302 301 301 300 300 299 298 297 298 299 299 301 301 300 300
301 309 308 311 316 321 319 319 318 317 315 316 315 312 312 311 312 312 310 309 307 308 308 307 305 302 302 302 302 300 298 297 296 295 294 294 293 292 296 296 294 293 293 294
309 313 313 315 318 321 317 321 320 317 316 313 313 312 312 311 311 312 310 307 308 309 309 308 307 303 301 297 296 294 292 290 290 290 290 289 287 288 287 290 293 292 291 291
315 315 312 316 313 320 320 319 317 317 315 315 313 312 311 310 311 312 311 312 312 311 310 310 307 302 297 295 293 292 292 295 288 287 287 286 287 287 287 286 286 286 290 290
314 313 311 309 313 316 317 318 314 312 312 312 312 312 312 311 312 312 313 313 313 308 305 303 300 297 297 295 294 293 293 291 289 288 288 288 288 288 286 286 286 286 286 289
309 311 313 311 314 314 314 315 313 311 312 312 311 311 313 314 314 314 314 313 308 305 305 302 299 299 302 300 298 296 294 297 293 290 290 289 290 290 288 286 287 288 288 288
304 303 307 308 311 312 313 313 314 313 313 312 312 312 312 311 311 311 313 311 309 308 308 307 306 306 305 301 299 297 296 296 298 293 292 291 292 293 291 289 289 289 289 289
307 307 311 310 311 312 312 313 313 313 311 312 312 313 313 311 310 311 309 308 307 306 307 307 306 307 304 301 300 300 300 299 300 297 296 296 296 296 295 292 291 291 290 290
306 307 310 311 310 313 313 312 313 314 312 313 312 310 312 311 309 309 309 305 305 305 307 309 314 311 305 307 305 303 302 302 300 300 299 299 299 297 298 296 295 295 292 290
307 308 311 310 312 314 313 314 314 313 314 312 309 308 308 308 307 309 306 306 310 312 311 311 311 308 308 308 315 306 307 305 302 301 300 299 299 297 297 296 296 294 290 289
308 308 312 310 311 315 316 314 314 313 313 312 309 308 308 308 310 311 308 308 311 312 313 313 311 310 306 304 302 301 300 300 303 301 300 299 299 299 298 297 296 294 290 290
307 306 311 312 311 309 311 311 312 311 311 309 311 310 310 310 311 310 312 311 309 306 306 306 306 307 306 305 299 298 300 300 301 301 300 300 300 299 298 297 295 295 293 290
305 311 313 313 311 308 309 310 310 310 308 307 309 311 311 311 311 309 304 305 306 305 304 304 306 306 305 300 300 298 299 299 299 301 300 300 300 301 301 300 297 295 294 293
310 310 309 310 311 309 308 309 310 310 310 310 311 311 311 308 307 309 307 305 303 302 302 302 302 303 303 301 298 298 298 298 297 295 296 295 296 296 298 300 300 298 295 292
308 309 310 309 308 308 310 310 310 310 310 310 310 310 310 310 308 306 308 306 302 302 303 302 303 302 300 300 299 299 298 297 295 294 294 294 294 294 294 294 294 294 294 293
307 307 307 308 308 309 310 310 308 309 309 308 309 309 309 309 308 308 307 304 306 304 305 304 304 303 301 300 299 298 296 296 295 294 294 294 293 293 294 294 296 296 295 294
306 304 307 307 308 309 309 309 308 308 308 309 308 309 308 307 307 307 304 306 306 307 308 308 306 304 304 301 298 297 296 295 294 295 295 294 293 293 292 293 293 293 292 291

GFSNGP_sfc_thetae_012.txt.gz
Theta_e
293 296 301 303 303 299 297 296 296 298 296 301 309 312 317 321 327 328 328 328 328 328 328 329 330 330 330 331 332 334 335 335 334 332 333 332 331 331 327 325 324 325 326 326
295 303 304 303 305 304 304 301 299 300 299 305 309 315 316 318 326 326 327 328 330 329 329 328 327 327 329 330 331 333 335 334 334 333 333 330 329 327 322 320 320 324 324 324
291 299 300 294 302 304 305 306 305 301 305 311 310 313 315 316 324 323 325 327 326 325 323 321 322 324 326 327 329 331 333 337 334 334 332 329 325 322 318 315 316 317 319 322
291 293 287 296 305 308 309 314 313 310 311 313 313 314 317 319 321 321 324 323 323 320 317 316 317 318 320 323 323 326 328 332 334 333 330 327 322 316 313 311 311 312 314 317
292 290 296 302 308 311 305 305 313 312 313 317 318 317 317 322 322 323 321 320 318 317 316 313 312 315 317 317 319 321 320 324 333 331 326 322 316 312 309 309 308 309 312 312
295 291 290 299 313 321 317 300 314 315 315 318 317 307 311 319 318 317 317 316 314 313 314 310 311 314 314 313 313 313 315 316 328 329 324 317 313 309 308 308 307 308 309 309
295 294 298 308 318 319 299 301 317 319 319 318 313 315 317 317 315 315 314 313 312 310 310 310 311 312 310 310 309 311 311 312 313 316 315 313 309 309 308 307 306 306 306 306
293 292 292 316 316 305 308 316 318 320 317 316 316 316 314 314 313 313 312 312 311 309 309 309 310 310 308 307 309 309 309 309 309 309 310 309 307 308 308 308 306 305 304 304
295 296 309 319 319 321 321 318 318 319 319 318 314 314 314 313 312 312 311 311 310 309 308 308 309 309 307 308 309 308 307 306 306 307 307 308 307 306 306 306 305 304 303 303
301 306 312 318 319 318 322 321 322 321 320 319 315 314 312 312 311 310 310 309 309 308 307 307 308 308 307 307 306 305 303 304 305 305 304 305 305 306 305 304 304 303 303 303
302 308 311 314 316 317 321 321 320 319 319 318 316 313 313 312 311 311 311 310 309 308 307 307 306 305 306 306 306 304 303 302 302 301 300 298 297 300 301 301 303 302 302 303
301 307 308 309 317 320 319 319 318 316 314 316 315 313 312 311 311 311 310 309 309 308 308 307 305 302 302 303 304 302 300 299 300 299 297 296 295 294 296 296 295 293 294 298
307 312 312 315 319 321 318 319 319 316 315 312 313 314 313 311 310 311 309 307 308 308 308 306 305 301 300 300 300 299 295 295 295 294 293 292 292 293 292 293 293 292 291 292
313 312 313 318 314 320 319 319 316 315 314 314 312 312 312 311 311 310 309 308 311 310 308 309 303 300 299 298 297 295 295 293 291 291 291 291 291 291 292 293 293 293 292 292
315 316 313 314 317 317 317 316 313 312 312 311 312 311 311 311 311 312 313 313 312 310 309 306 301 298 298 298 296 294 293 292 291 291 291 291 291 291 291 292 292 292 292 292
312 314 313 312 313 315 315 313 311 311 311 311 310 311 311 312 312 312 312 311 308 306 305 302 300 299 299 299 297 295 295 295 293 293 293 293 293 291 291 292 292 293 293 294
304 304 308 309 311 312 313 313 313 312 311 311 310 311 312 312 311 313 313 312 308 306 305 302 300 302 303 302 300 298 297 298 296 295 295 294 294 294 293 292 293 293 294 293
303 305 307 309 310 312 312 314 313 312 312 312 312 312 311 311 311 312 312 309 309 308 307 307 307 307 307 306 303 301 300 299 299 297 296 296 296 296 296 294 294 294 294 294
308 307 305 309 310 312 313 313 313 314 312 313 312 311 312 311 311 310 309 309 308 308 309 310 311 311 308 306 304 303 303 302 302 302 300 299 298 298 298 298 297 296 296 296
308 309 306 307 311 311 312 314 314 314 314 313 311 311 310 310 311 309 308 308 309 311 312 310 313 311 310 309 312 305 306 306 304 303 302 301 301 301 300 297 300 298 297 297
307 309 306 308 310 313 314 314 314 313 313 313 312 310 310 308 310 308 309 310 310 313 313 313 312 311 309 307 311 310 308 308 305 305 304 303 302 302 301 301 300 299 298 296
308 307 308 311 311 311 312 313 314 313 313 312 312 311 310 310 310 309 311 311 309 306 309 310 309 308 305 305 303 303 303 304 304 305 304 303 303 302 302 302 300 300 299 297
308 306 309 309 308 308 309 309 310 311 311 311 311 311 311 311 311 308 306 307 307 305 306 305 306 306 305 304 303 302 301 303 302 304 304 304 304 304 304 303 303 302 300 298
310 307 307 308 309 309 307 309 310 311 312 312 313 313 311 308 306 306 305 303 302 303 303 302 302 303 303 304 302 301 301 302 301 301 300 296 301 301 301 302 303 304 302 299
309 308 308 309 309 308 309 309 309 310 310 310 310 310 310 311 309 307 307 303 302 304 304 303 303 302 302 302 301 301 300 299 300 299 299 299 299 299 300 300 299 300 301 300
308 308 309 310 310 310 310 310 308 309 309 307 308 309 309 309 308 308 306 305 306 305 307 308 308 308 306 303 302 301 300 300 300 299 298 299 299 299 298 298 298 299 299 299
307 305 308 308 310 310 310 309 308 308 309 308 307 308 308 308 307 307 306 308 308 308 308 309 309 307 307 307 304 303 301 300 297 299 299 299 299 299 299 299 299 299 299 299

GFSNGP_sfc_thetae_018.txt.gz
Theta_e
309 309 309 308 308 309 310 311 308 310 310 315 323 324 328 337 339 336 336 340 342 341 339 342 346 347 348 348 348 349 348 347 347 349 350 348 343 341 342 341 341 340 339 339
307 309 310 307 308 311 312 312 312 312 312 324 326 329 329 338 339 335 337 340 339 337 339 344 345 346 346 347 349 350 348 347 349 349 348 345 342 340 340 338 338 337 336 336
303 309 309 305 308 309 312 314 313 309 316 325 325 327 329 336 340 338 335 340 336 337 340 345 346 346 345 346 346 348 348 347 348 349 347 343 343 340 339 335 335 333 333 334
304 308 299 309 317 316 312 314 318 318 322 326 328 330 334 338 339 341 340 341 341 341 342 342 341 342 341 343 345 345 342 342 346 347 345 340 342 338 336 333 331 331 332 333
303 302 306 308 314 314 314 313 321 321 325 326 328 330 330 337 342 343 343 343 340 338 338 337 336 338 339 341 341 339 335 333 336 335 343 338 338 336 337 332 329 329 333 333
306 300 298 309 323 328 327 311 326 326 326 326 328 320 327 335 337 334 332 332 334 334 332 330 327 333 334 333 331 330 327 330 331 330 337 336 337 334 335 332 330 328 328 329
302 302 306 318 325 327 312 314 330 329 329 329 326 331 331 330 327 329 329 329 331 332 330 328 328 327 327 326 324 323 323 322 320 320 324 328 329 331 328 329 327 326 320 313
303 301 300 323 323 317 326 332 333 333 333 332 332 327 325 324 322 325 326 327 328 326 324 324 325 325 323 321 320 321 320 318 316 315 314 315 317 321 323 321 321 322 320 316
307 306 324 327 329 333 332 332 334 334 334 333 329 324 322 320 321 323 325 326 327 324 320 321 322 323 318 316 318 316 315 314 313 312 311 311 311 313 311 312 310 308 307 305
314 318 322 326 331 332 334 333 337 335 335 332 329 324 320 320 321 323 323 324 324 321 319 317 318 318 318 316 317 316 313 311 310 310 310 311 311 311 309 309 307 306 306 306
315 321 324 327 330 331 331 334 333 335 334 332 329 321 320 319 320 321 321 322 322 320 318 316 317 317 317 317 317 315 314 313 311 309 306 302 300 302 305 305 307 310 309 310
311 322 323 326 330 330 331 331 332 331 327 327 325 321 321 320 322 322 321 319 318 318 318 318 317 317 317 318 319 318 315 313 310 307 305 304 303 300 297 297 296 295 298 304
317 324 325 328 329 331 329 330 332 332 325 322 324 324 324 322 323 319 321 319 317 318 318 319 321 320 320 321 321 320 317 316 313 313 312 310 307 305 301 297 294 293 292 292
318 321 321 323 324 329 331 329 327 332 329 325 325 327 325 324 322 322 319 319 319 321 322 322 321 319 321 321 321 319 314 303 309 308 308 308 309 311 312 311 309 307 294 297
316 317 321 322 325 327 330 329 328 328 328 324 327 327 326 324 323 321 320 321 321 320 320 320 318 317 319 315 311 309 308 308 308 307 307 306 307 307 307 308 307 306 306 298
316 316 317 320 320 322 325 326 324 326 327 325 325 326 326 325 323 322 321 322 320 317 319 318 317 315 313 312 312 311 309 305 308 309 308 309 309 309 308 307 307 307 306 306
314 311 315 315 317 318 321 325 326 325 328 325 326 325 324 323 320 319 320 320 321 320 319 315 313 313 313 314 313 311 310 309 305 311 311 311 311 310 310 310 307 307 307 304
317 318 319 319 317 316 316 320 326 328 327 325 324 325 323 322 320 319 319 320 320 317 314 313 313 313 313 314 314 313 313 312 313 313 313 313 315 315 314 313 312 309 307 303
317 318 318 319 320 318 317 319 325 327 329 328 326 324 325 323 321 321 321 321 317 312 312 314 312 314 315 315 315 314 314 314 314 316 316 310 313 313 313 312 312 311 309 306
315 317 319 319 320 320 318 321 325 328 328 328 327 325 323 320 321 323 321 319 318 315 316 314 314 317 319 318 314 316 317 317 316 316 316 315 315 314 314 306 311 312 311 309
314 316 318 319 321 322 320 321 325 326 328 328 326 325 322 320 321 322 319 318 320 318 318 315 318 318 319 318 316 317 318 317 316 315 314 314 313 312 312 313 313 313 312 311
313 314 317 319 321 321 323 325 326 327 327 327 326 325 322 320 322 321 323 319 321 309 317 318 319 312 315 309 316 317 316 318 314 313 310 314 312 311 312 313 314 314 313 312
313 314 317 320 321 322 325 327 328 326 323 325 324 324 323 320 321 318 317 321 320 312 319 316 307 307 308 312 313 311 313 311 310 308 310 310 312 312 312 311 311 311 311 310
314 314 317 317 317 317 316 318 321 321 322 323 324 320 319 319 318 320 317 307 304 310 312 308 305 303 304 308 306 306 307 307 306 306 307 298 310 309 309 309 308 309 309 307
313 314 314 313 312 313 315 316 315 315 315 315 315 314 313 311 309 312 313 308 304 309 309 303 303 304 308 308 308 309 308 305 305 306 308 309 309 308 308 308 308 308 307 308
314 316 316 315 314 314 314 315 313 314 312 308 308 309 310 310 310 309 308 307 310 308 311 312 312 312 310 310 310 310 309 310 309 309 306 309 309 308 307 308 308 308 308 308
312 308 313 314 315 314 315 311 309 309 310 309 308 309 310 309 309 308 306 309 310 310 311 311 312 311 312 310 309 308 308 308 301 308 309 309 309 309 308 308 309 309 308 308

GFSNGP_sfc_thetae_021.txt.gz
Theta_e
311 310 310 310 309 310 309 311 308 310 309 312 323 325 330 334 340 340 342 341 345 345 344 343 343 347 347 347 348 349 348 347 348 349 349 349 347 345 344 343 342 341 341 341
309 311 309 308 309 310 311 311 312 313 312 313 328 331 328 335 339 339 340 341 345 343 340 341 346 347 347 348 349 349 347 346 351 350 349 349 346 342 343 340 340 340 339 337
305 309 309 305 309 309 311 314 314 310 316 324 323 329 330 334 339 338 339 341 344 340 342 346 346 349 348 349 353 351 351 350 350 350 350 348 347 343 339 338 338 338 337 337
306 309 299 311 316 315 312 313 316 317 319 324 330 333 334 338 341 341 340 343 342 341 344 348 349 349 349 348 349 348 347 347 348 350 349 350 346 343 340 336 335 334 334 334
303 302 307 310 313 313 311 312 318 317 321 327 331 333 334 340 342 344 343 346 344 345 346 345 345 345 347 346 347 345 342 340 339 343 346 344 344 340 339 335 334 333 334 332
305 300 299 310 317 322 319 310 321 323 324 326 327 315 331 341 347 347 348 348 344 341 340 339 337 341 341 339 338 335 332 333 333 332 338 340 339 338 338 335 334 332 331 330
302 302 305 315 324 326 308 315 333 333 331 328 326 336 340 343 342 343 342 340 339 339 337 336 335 335 334 333 327 329 329 328 326 322 322 331 333 334 334 334 331 330 325 325
303 301 299 321 322 315 330 335 336 336 336 338 339 335 334 333 332 333 334 335 338 335 333 333 333 333 329 324 324 325 324 323 320 318 316 318 320 322 322 328 327 325 323 323
309 307 328 329 332 335 336 335 337 338 337 338 333 331 326 325 328 331 334 335 336 332 327 327 328 329 325 322 323 323 321 319 317 315 313 313 313 315 313 313 319 316 307 307
313 317 324 327 332 336 336 337 339 338 338 335 333 330 326 325 326 327 330 331 331 330 327 324 325 325 324 324 324 323 319 315 313 311 309 310 311 312 310 309 309 306 307 310
314 324 324 329 331 333 335 337 337 339 338 336 334 329 327 324 325 326 327 328 327 326 324 321 323 323 324 323 324 322 320 318 315 311 307 304 302 304 307 304 308 310 311 312
313 324 324 326 331 333 333 333 336 334 333 335 333 329 326 325 326 326 325 325 324 323 322 321 322 322 323 324 324 323 320 319 315 314 312 310 308 304 298 298 297 296 298 303
317 324 327 329 330 332 332 332 334 334 333 330 329 327 327 325 326 322 324 322 321 321 321 323 322 322 323 324 325 322 319 319 316 316 317 315 313 311 306 299 295 293 293 294
321 322 323 323 324 329 331 332 330 333 330 328 328 328 326 326 324 324 321 322 323 324 323 323 322 321 323 324 324 323 321 307 319 317 316 315 317 317 316 314 311 308 295 300
318 320 321 324 325 327 329 329 329 328 327 327 328 327 326 325 325 323 323 325 324 323 323 323 322 322 324 324 318 314 312 311 311 311 310 309 311 310 310 311 310 309 307 299
317 319 320 319 320 322 323 325 327 327 326 326 327 327 329 329 327 324 323 324 322 320 322 322 322 322 317 316 316 313 312 310 311 311 311 311 312 311 309 309 310 309 308 308
314 314 315 317 320 317 318 321 326 327 328 328 328 327 327 326 324 322 321 322 323 322 324 323 319 316 316 317 315 312 311 312 307 313 313 313 312 311 311 311 310 309 310 303
318 318 319 319 317 318 316 317 319 328 327 329 325 324 325 324 322 322 322 322 322 322 321 319 317 316 317 317 316 314 314 313 315 314 314 315 314 316 315 314 313 311 309 305
317 317 318 318 320 320 319 319 320 325 329 326 326 324 324 325 323 322 321 320 320 318 316 317 316 317 318 317 316 316 315 315 314 315 317 310 314 315 314 314 313 313 313 309
316 317 318 318 319 320 320 319 321 323 325 329 326 326 325 324 323 322 322 320 321 318 318 315 315 317 318 317 314 317 316 317 316 315 314 315 315 315 314 307 313 313 313 312
315 317 318 318 319 320 322 322 319 324 326 329 327 326 324 323 323 322 320 317 321 317 318 313 318 318 319 317 315 317 317 317 317 317 315 313 313 315 314 314 313 313 312 314
316 316 317 318 321 322 324 323 322 324 326 329 327 325 323 321 322 321 324 318 318 310 315 315 318 312 315 314 318 316 317 317 314 314 314 314 313 313 313 312 312 313 313 313
313 316 318 319 321 324 325 325 325 327 327 327 325 322 323 322 324 319 317 322 321 314 318 314 308 309 310 318 315 310 308 312 312 312 312 311 311 312 312 311 310 310 310 310
313 316 317 322 327 326 323 327 327 328 327 326 326 326 325 324 320 317 316 311 307 311 312 310 308 306 308 312 311 310 309 308 305 306 306 303 309 310 310 309 308 309 309 307
315 317 318 318 317 317 318 318 316 315 316 317 316 318 318 316 314 311 314 313 306 310 310 304 305 306 311 310 309 309 309 309 308 307 308 308 309 309 309 308 308 308 308 309
315 315 316 316 316 317 316 317 313 312 311 308 309 309 309 309 310 311 310 311 311 308 311 311 310 310 309 309 309 309 309 310 309 310 307 309 310 310 310 309 309 309 309 309
315 311 318 314 316 316 314 312 312 312 313 311 307 309 309 309 308 308 307 310 311 311 312 312 311 310 312 312 310 310 310 309 302 308 309 309 309 308 308 308 308 307 306 304

GFSNGP_sfc_thetae_024.txt.gz
Theta_e
309 310 310 310 310 310 308 309 306 308 311 315 316 315 318 324 343 342 343 344 346 346 348 346 348 348 350 349 349 351 352 349 353 348 349 350 347 346 345 344 340 342 342 339
307 310 310 307 309 310 309 310 310 310 311 319 319 319 319 324 339 343 344 343 346 347 344 344 344 348 351 351 351 353 351 348 353 349 350 348 347 344 344 340 339 342 340 336
304 309 309 305 308 309 310 312 311 308 316 320 317 320 320 336 340 339 342 344 346 343 343 346 347 354 351 354 356 353 350 350 348 351 349 346 346 340 341 338 338 339 337 335
306 309 298 309 315 314 313 314 314 316 320 318 314 316 318 337 341 342 342 345 345 342 345 349 349 351 353 351 352 349 346 345 346 345 348 348 346 342 341 337 333 333 335 334
304 302 306 309 313 313 312 312 324 322 322 320 320 319 335 338 344 345 345 349 344 347 349 347 349 350 350 348 350 342 339 339 337 335 338 347 339 337 338 336 335 335 334 333
305 300 298 310 314 320 321 309 329 323 317 315 317 310 332 347 349 348 348 348 347 348 344 344 343 347 346 340 336 333 331 329 329 329 328 339 339 336 337 336 332 332 329 327
303 300 304 314 315 323 307 317 332 326 322 319 314 316 342 345 344 346 346 341 343 340 337 338 339 342 336 331 327 327 327 326 324 322 321 326 331 332 334 331 331 327 326 324
305 301 298 315 319 317 330 335 335 334 332 337 336 337 339 337 336 338 337 338 337 334 332 335 337 335 327 323 326 325 323 320 318 317 317 318 320 320 322 327 325 322 321 316
310 308 330 331 332 336 337 335 336 337 336 338 334 332 332 330 331 334 335 336 332 329 327 328 332 330 323 323 324 322 320 317 315 314 314 313 314 315 314 314 313 311 310 310
315 320 325 330 332 333 336 335 336 337 337 336 332 330 328 329 331 332 332 331 330 328 326 324 326 325 324 324 324 320 317 315 313 310 309 310 311 311 311 311 309 307 308 308
315 323 323 327 330 331 333 337 337 339 339 337 333 330 329 327 328 328 329 328 329 326 324 322 324 324 324 324 324 321 319 316 314 313 311 307 304 306 309 307 309 310 310 311
314 322 325 325 330 331 331 331 334 335 335 336 333 331 328 326 327 328 328 328 327 326 324 323 324 322 324 326 326 323 321 318 317 315 314 312 310 306 299 299 297 297 299 304
317 321 320 328 328 330 329 331 334 334 334 330 331 329 327 324 326 323 326 325 323 322 323 324 323 322 323 325 325 325 322 320 317 317 316 314 313 311 306 301 295 294 294 294
321 321 320 323 322 326 327 330 331 333 331 329 328 328 328 325 325 324 324 324 324 323 323 323 322 321 325 325 327 326 325 313 322 321 319 318 317 316 313 310 308 306 296 299
317 319 320 321 324 323 325 326 329 330 329 327 328 327 327 325 325 323 324 324 325 323 323 322 321 323 325 325 324 323 319 315 315 314 313 313 315 313 310 313 311 308 305 298
316 316 318 317 319 322 322 324 324 328 329 328 328 328 329 329 326 325 324 325 323 321 324 323 321 324 323 320 320 316 313 312 312 313 311 313 312 310 310 312 313 311 309 307
312 311 314 316 319 321 319 321 322 323 328 328 327 329 327 326 325 323 323 324 325 325 325 324 322 321 320 322 319 313 310 311 312 313 312 312 312 311 312 311 310 309 309 303
315 316 316 316 314 318 319 320 320 325 327 327 329 328 327 324 322 321 322 324 323 323 324 323 320 321 320 320 320 316 313 313 314 313 314 315 313 314 314 312 311 310 308 304
316 315 315 316 317 318 317 319 320 322 326 327 327 326 327 324 325 324 323 323 322 319 321 321 318 319 322 321 318 316 315 314 314 315 316 313 315 315 313 316 314 314 312 305
315 316 316 316 317 318 318 320 322 324 326 326 326 325 325 326 324 323 322 320 322 322 321 318 318 321 322 322 316 316 316 316 316 313 314 315 315 315 315 309 313 314 314 314
313 315 316 315 316 318 319 320 320 322 323 324 325 326 327 326 325 323 320 318 322 317 318 315 317 317 319 317 314 316 317 318 317 315 314 314 315 314 314 313 311 313 313 314
312 312 313 315 317 319 322 323 323 324 325 324 324 324 326 325 324 323 324 319 317 311 313 313 317 317 318 317 314 311 313 314 313 314 312 313 312 312 312 313 311 310 312 312
312 312 314 315 317 320 323 323 325 321 323 323 326 326 325 322 321 318 319 316 314 311 315 315 309 311 313 313 313 310 309 309 308 308 308 308 309 309 309 310 309 310 311 309
312 312 315 317 319 321 319 318 325 323 328 329 327 327 324 314 314 312 309 306 306 310 312 310 308 307 310 311 310 309 308 306 305 306 307 301 308 309 310 310 308 309 310 309
314 316 318 319 318 315 315 316 315 316 316 316 316 315 313 314 312 310 309 307 305 308 309 305 306 307 311 310 310 309 308 308 307 307 308 309 309 309 309 309 308 308 308 308
315 316 317 317 317 317 317 316 314 313 311 308 309 310 311 312 312 312 310 309 311 308 311 309 309 309 309 309 309 309 309 310 309 309 309 309 309 309 308 307 307 307 305 303
314 309 314 313 313 314 314 314 312 310 311 311 309 310 310 310 309 311 310 312 312 311 310 310 310 310 311 310 311 312 311 308 302 307 308 308 308 307 306 305 304 303 301 299

GFSNGP_sfc_thetae_027.txt.gz
Theta_e
305 306 306 305 307 308 303 303 298 300 306 310 312 316 319 319 325 324 325 337 336 338 337 338 337 334 333 340 342 343 345 343 342 342 343 340 338 336 335 334 333 333 330 327
303 307 306 305 307 308 306 305 303 307 309 312 316 317 319 323 325 324 323 338 340 339 337 337 338 338 343 343 343 343 341 344 343 342 340 337 336 335 333 334 334 331 327 325
297 306 305 299 305 307 307 310 307 299 309 316 314 319 319 320 319 325 325 338 338 336 336 335 335 341 342 346 345 343 344 344 342 341 339 339 337 336 333 331 333 328 325 323
300 303 293 304 310 310 310 317 316 314 314 315 315 317 318 322 321 324 320 340 336 336 337 338 342 344 343 344 343 340 337 336 334 335 336 337 337 336 333 332 330 328 324 319
296 296 302 306 310 309 308 313 319 317 318 318 320 317 318 322 333 321 336 337 336 338 341 342 341 343 341 336 334 331 328 327 326 327 328 334 336 334 333 330 330 327 327 321
297 294 292 303 314 318 316 308 319 317 318 314 318 308 312 327 339 338 337 337 338 337 336 334 336 334 330 327 325 323 324 323 321 321 324 333 336 334 332 331 329 324 320 316
297 295 299 308 310 318 299 306 319 319 318 315 312 316 323 332 336 336 336 333 333 332 331 332 333 328 323 321 320 320 319 318 317 318 319 324 329 332 331 328 324 321 317 311
297 295 294 322 321 314 313 317 327 322 321 323 321 327 331 333 332 332 331 330 330 327 326 329 326 323 319 319 320 318 316 316 314 314 315 318 319 320 325 324 321 317 312 308
300 300 324 328 326 328 329 327 329 327 331 331 327 327 326 328 331 333 329 327 327 325 323 325 322 321 317 320 319 317 315 313 312 312 312 313 314 315 315 315 313 310 309 306
308 317 319 321 323 326 331 330 331 335 333 328 325 324 325 327 329 328 327 325 325 322 321 320 322 319 320 320 318 316 313 311 310 309 308 310 310 310 311 310 309 309 307 306
313 317 321 318 319 323 328 333 334 333 332 328 325 323 325 325 325 326 326 325 323 319 320 320 321 321 323 322 319 315 313 310 308 306 303 303 302 304 307 303 307 309 309 310
307 315 318 319 322 327 327 330 331 331 328 329 327 324 324 325 326 326 324 325 321 319 320 321 320 320 321 322 319 315 312 311 309 307 306 304 302 300 299 299 298 297 298 303
313 318 321 322 325 325 327 331 332 330 328 325 325 324 323 323 324 322 324 322 321 319 320 320 317 318 319 322 321 317 311 311 311 310 308 306 304 301 298 297 296 295 294 294
317 317 318 323 319 325 322 331 329 328 327 325 324 326 324 324 322 323 321 321 320 320 320 320 319 319 322 321 319 316 315 313 311 311 310 309 308 306 302 299 297 296 295 295
316 316 314 316 321 322 323 320 325 324 324 323 324 325 324 322 322 321 321 321 321 320 320 319 319 318 321 322 320 317 315 309 306 305 307 309 310 309 306 305 301 299 294 294
313 314 313 314 315 317 320 322 322 325 325 324 324 323 324 324 322 320 321 321 319 318 319 319 319 321 322 317 312 306 305 309 306 303 301 304 303 302 302 303 301 299 297 296
308 308 311 311 312 314 316 316 319 319 323 324 324 325 327 323 321 318 320 321 322 321 320 319 319 315 313 311 309 304 303 303 309 305 305 304 304 303 303 302 302 303 302 300
314 313 312 311 311 314 314 316 316 320 321 324 324 324 323 322 318 317 318 320 320 319 320 318 314 313 312 312 307 306 306 305 305 305 305 306 305 305 305 305 303 301 299 298
315 314 314 314 314 314 314 316 317 319 325 325 324 321 322 321 319 319 318 317 316 317 316 314 318 315 314 313 311 309 307 308 307 308 308 308 308 308 308 309 308 306 302 298
313 314 314 315 316 315 314 317 317 319 325 323 322 320 320 321 321 320 320 318 317 316 315 312 311 311 313 313 313 308 312 311 310 309 309 309 310 310 309 305 307 306 304 299
311 311 311 311 313 315 316 318 318 316 323 323 320 318 319 322 321 320 317 314 317 313 310 313 311 314 313 312 309 310 313 311 310 308 309 309 308 307 308 307 305 304 308 306
312 310 310 310 311 314 317 318 317 319 322 322 322 322 320 320 321 320 320 314 312 309 308 308 310 315 313 312 307 307 308 308 308 307 306 307 306 305 305 304 302 302 304 304
310 310 311 310 311 312 316 316 318 317 320 320 316 315 317 319 320 317 312 313 312 309 309 309 309 311 312 307 307 306 307 307 305 306 306 306 305 306 306 305 305 305 304 303
310 311 311 312 312 314 314 312 313 315 317 317 321 320 317 311 308 310 308 305 305 307 307 307 306 307 308 308 308 307 305 305 305 305 306 301 305 305 303 304 304 303 302 300
311 312 313 314 314 314 315 314 314 314 313 313 313 312 311 312 307 305 307 306 304 307 307 305 305 306 309 308 308 308 306 306 305 305 304 304 304 303 303 303 302 300 299 298
312 313 313 315 315 314 314 313 310 310 310 309 310 310 310 311 310 309 309 307 309 307 308 308 308 309 309 308 308 307 306 306 304 304 303 304 302 302 302 301 299 298 295 294
312 308 311 311 313 313 312 311 310 309 310 308 307 310 310 309 308 308 307 309 309 309 308 308 308 308 308 308 307 307 306 301 299 303 302 301 301 300 299 298 297 295 294 293

GFSNGP_sfc_thetae_030.txt.gz
Theta_e
299 303 303 303 304 304 300 299 296 300 301 306 311 312 319 318 318 319 319 324 332 331 332 330 326 326 328 331 333 341 340 338 340 338 335 334 333 332 330 330 330 326 324 322
296 306 305 303 305 306 305 307 302 305 304 310 314 313 319 319 323 324 327 334 333 336 334 332 333 330 329 331 338 341 340 339 340 339 337 334 332 331 330 330 327 323 321 320
291 303 304 297 302 304 307 311 308 299 304 312 314 314 314 319 321 322 325 336 335 336 337 336 335 336 336 338 341 341 341 340 339 338 337 334 333 332 330 329 326 321 319 317
296 300 290 302 309 317 314 315 315 313 313 312 313 315 318 322 320 323 324 333 335 336 334 333 338 340 341 341 338 334 331 331 331 334 335 334 334 332 331 330 327 321 319 313
294 292 298 303 311 309 307 310 316 316 317 318 319 316 314 320 324 319 327 331 336 335 335 338 338 337 333 331 330 328 326 325 325 326 327 336 335 331 331 328 327 324 319 313
293 290 290 300 312 316 315 303 317 317 318 318 318 307 312 319 334 335 334 334 336 336 336 335 331 330 327 325 324 322 321 320 320 324 326 334 334 330 331 329 323 320 315 312
292 291 296 305 308 314 297 299 317 317 318 318 314 315 316 327 331 331 332 330 330 329 328 326 326 327 323 321 319 318 317 316 316 318 320 326 332 332 328 323 320 315 311 309
292 291 290 318 320 306 310 317 318 319 319 319 320 323 329 330 324 326 326 326 325 324 323 322 322 321 318 317 316 316 316 316 314 314 316 319 323 326 324 322 316 312 309 307
295 295 313 318 318 320 320 321 322 320 322 323 324 326 326 325 323 322 324 325 324 323 320 320 320 319 317 316 314 313 314 313 311 311 312 313 316 317 316 316 313 310 308 307
306 312 312 316 321 324 327 328 329 326 325 328 325 324 322 322 321 321 322 322 321 321 320 319 316 317 316 315 315 313 313 310 310 309 307 309 311 312 312 312 310 309 308 307
307 311 315 317 318 321 328 331 331 330 329 327 325 323 322 322 323 324 323 323 319 317 319 319 319 319 319 317 315 312 310 309 307 305 306 304 302 305 306 304 308 309 309 309
304 311 313 315 317 322 323 330 329 328 326 326 324 322 323 324 322 322 322 318 319 319 319 319 320 320 320 315 312 309 307 305 303 302 301 302 303 300 300 299 298 298 301 303
309 314 314 319 324 325 324 329 329 326 326 323 322 321 321 323 324 322 323 321 320 319 320 319 319 319 320 316 313 310 308 306 305 304 302 300 299 299 298 297 296 295 295 297
310 311 311 317 314 320 328 329 327 327 325 323 321 320 321 323 323 322 321 321 320 320 319 319 318 318 320 321 316 311 309 308 307 306 304 302 301 299 298 297 296 296 295 294
309 310 311 310 313 315 321 324 323 321 322 321 321 320 320 319 321 321 322 321 320 319 319 319 318 319 321 317 314 312 311 310 309 308 306 306 304 302 300 299 297 296 293 294
307 309 310 309 309 312 315 318 318 321 321 321 320 320 321 321 322 321 320 320 318 317 318 318 317 319 320 316 314 310 311 311 308 302 304 306 307 305 303 302 298 296 294 294
304 303 305 305 307 308 309 312 312 315 321 320 321 321 321 321 320 319 319 320 320 319 319 319 319 320 317 313 307 301 301 301 306 302 301 301 306 302 304 302 300 298 297 296
308 308 308 307 307 307 309 310 313 315 317 320 322 321 319 319 318 317 317 319 320 319 319 319 317 313 311 309 305 301 301 302 303 302 303 302 301 301 300 300 301 301 299 298
309 309 309 310 310 309 310 311 311 315 321 324 320 318 319 318 318 316 316 318 317 316 315 313 316 312 310 311 307 305 303 304 306 306 306 305 305 305 303 304 304 301 300 298
308 308 308 308 309 310 311 312 314 314 317 320 318 317 316 316 317 318 316 316 317 317 314 312 312 311 311 310 312 308 309 308 307 305 306 308 306 307 304 302 303 302 299 297
308 309 308 307 307 309 312 313 313 314 315 319 318 315 316 317 317 319 316 315 317 314 312 313 309 310 308 307 311 310 308 306 305 304 303 303 305 304 304 300 300 303 303 303
306 307 308 307 307 307 310 312 314 314 314 316 317 316 315 317 316 316 319 317 315 309 309 308 309 310 308 308 305 305 305 305 304 304 306 305 305 305 304 303 303 303 302 301
305 306 307 306 306 306 308 310 310 312 312 312 316 316 316 317 317 315 314 313 309 307 306 306 309 308 308 306 305 305 306 306 306 306 304 303 304 304 305 304 303 301 300 298
310 307 309 310 310 308 305 308 308 309 310 315 315 312 311 312 308 311 308 306 304 307 307 307 306 306 306 305 305 306 305 305 305 305 304 301 304 304 303 301 298 297 295 295
310 308 306 307 306 307 310 311 311 309 306 309 310 309 309 308 308 307 306 306 304 306 306 304 305 305 307 307 306 306 305 305 304 304 303 302 301 299 298 297 296 294 293 292
310 307 312 314 313 313 312 310 308 308 308 307 307 308 308 308 308 308 308 307 307 305 307 307 306 308 308 307 306 306 306 305 303 301 300 299 298 297 296 295 293 292 291 290
311 307 311 310 311 311 310 309 309 308 308 308 307 309 308 308 307 307 306 307 307 307 307 308 308 307 307 306 305 302 299 299 299 300 298 297 296 296 295 294 293 291 290 289

GFSNGP_sfc_thetae_033.txt.gz
Theta_e
296 301 301 301 302 302 297 296 294 296 297 301 309 312 316 315 317 319 320 323 327 331 331 331 328 329 329 328 334 337 337 336 335 332 333 332 332 330 329 328 325 323 321 320
295 303 303 302 303 304 304 307 301 303 301 308 310 313 316 316 319 321 323 326 331 332 333 332 329 326 329 328 332 336 338 336 337 333 333 333 331 328 328 325 322 321 318 317
290 301 300 294 301 304 309 311 307 297 303 310 309 313 315 316 318 319 323 326 332 324 333 332 333 332 327 327 335 338 339 339 338 335 333 332 331 330 328 325 323 319 316 313
294 295 287 298 314 312 312 313 312 309 310 312 311 312 314 318 320 322 322 327 330 325 335 335 337 335 334 334 332 332 333 334 336 336 334 331 331 330 329 326 322 319 314 312
292 291 295 305 312 306 305 308 315 312 314 316 316 315 314 321 323 322 323 327 332 333 333 337 334 332 332 331 330 328 326 325 326 329 331 333 331 330 329 326 322 319 315 312
291 289 289 298 309 317 309 297 317 317 314 314 316 306 312 322 332 333 332 330 330 333 334 334 331 333 334 332 330 323 321 322 324 324 326 331 334 330 329 326 321 317 313 311
292 290 295 302 311 312 293 295 316 317 315 315 311 313 317 326 327 329 329 328 329 328 327 327 325 327 326 324 322 320 318 319 320 322 323 330 331 330 324 320 314 311 309 308
290 288 288 318 320 303 304 313 315 316 315 315 316 325 328 326 326 326 324 325 325 323 321 321 320 322 321 316 316 317 315 316 317 318 318 322 329 325 321 317 312 309 309 308
293 293 311 315 315 317 315 317 318 316 318 320 320 322 326 325 324 324 325 324 325 320 318 318 320 319 317 314 314 315 315 313 315 314 314 316 320 321 318 315 313 310 309 308
305 309 310 314 320 325 326 323 328 324 322 324 320 324 323 323 321 322 322 321 322 322 319 317 318 317 315 315 316 318 316 315 311 310 310 311 312 314 314 313 311 309 308 308
307 310 312 314 316 319 324 324 329 328 326 326 324 323 323 321 320 321 322 320 320 319 318 317 318 317 316 319 315 313 313 310 308 308 307 305 303 306 308 306 310 310 309 309
302 310 310 312 318 322 324 327 327 326 325 326 324 322 322 321 320 323 321 319 319 319 319 318 319 318 314 313 311 309 306 305 305 305 305 305 303 300 300 299 298 300 302 304
308 311 314 319 322 323 325 328 328 327 325 323 322 323 320 319 320 321 321 320 319 319 319 319 319 319 317 311 309 306 304 302 302 301 300 299 299 300 299 299 296 294 295 297
312 311 312 315 314 322 327 328 325 326 324 323 322 321 320 319 318 320 321 321 320 320 319 318 318 318 319 313 310 307 305 305 302 302 301 299 299 298 298 298 297 296 295 294
307 308 310 310 314 317 323 325 322 322 322 321 322 319 319 318 318 320 320 322 320 319 319 318 318 318 320 319 312 309 307 306 305 303 302 301 300 298 297 297 296 295 294 294
307 307 307 307 308 311 316 319 315 318 319 319 319 319 320 319 318 319 319 320 317 316 318 318 318 319 320 315 312 310 309 310 308 305 304 303 302 300 298 298 296 295 294 293
303 302 303 304 306 305 307 310 310 312 320 318 319 319 319 318 317 316 317 320 319 319 318 318 318 319 319 315 313 311 309 309 309 305 307 306 306 304 302 301 299 297 296 296
306 306 306 305 306 306 308 309 310 311 314 321 321 319 318 317 316 315 316 319 318 318 319 319 319 319 316 312 306 300 300 300 302 302 301 301 304 304 304 305 303 301 299 297
307 306 306 308 308 308 308 309 311 311 312 316 318 317 318 317 316 315 317 317 317 316 317 316 318 312 308 309 306 300 301 303 304 301 302 302 301 300 301 301 301 300 300 299
307 308 307 306 307 307 308 311 313 312 313 315 316 315 314 314 314 314 314 313 317 319 317 314 309 307 309 311 312 305 307 306 304 303 304 303 303 303 300 298 301 299 297 296
304 306 307 307 306 307 307 310 311 311 313 313 314 313 313 313 314 314 312 314 317 317 314 313 307 308 306 308 310 306 305 305 303 302 301 300 300 300 299 300 300 302 302 301
303 304 305 306 306 305 307 307 309 311 311 311 312 314 313 312 314 313 314 314 314 309 310 309 311 311 309 309 304 303 303 304 303 302 302 302 302 302 301 301 302 301 300 299
302 303 305 305 304 304 305 305 307 309 309 310 311 312 312 315 316 314 313 315 315 311 312 309 309 309 308 303 304 304 304 304 303 302 301 302 304 304 303 302 301 300 298 297
304 307 309 309 310 308 304 306 306 306 312 313 313 309 311 313 311 308 311 310 308 307 309 308 306 305 305 305 305 304 304 304 301 301 302 300 303 302 300 299 298 296 293 292
310 309 304 305 304 304 308 309 309 307 307 308 309 309 308 308 307 304 309 308 305 306 305 304 304 304 304 304 304 303 302 303 303 302 301 301 299 296 295 294 293 292 291 290
310 307 311 312 312 312 310 309 306 307 307 306 307 308 307 308 307 308 308 306 306 304 306 306 307 307 306 304 305 305 305 303 301 301 299 297 296 295 294 293 292 291 290 288
310 306 310 310 310 309 309 308 308 307 308 307 306 307 308 307 306 306 306 307 307 307 308 308 308 306 306 305 303 302 302 301 297 297 297 296 295 294 293 292 291 290 288 287

GFSNGP_sfc_thetae_036.txt.gz
Theta_e
295 299 300 300 301 300 297 296 295 297 296 301 303 310 313 315 318 319 319 322 325 331 330 331 329 331 331 330 335 338 340 338 336 335 336 334 334 333 332 329 326 325 324 323
296 303 303 301 303 302 303 301 300 302 300 304 310 313 316 316 318 320 323 326 327 329 331 329 330 329 330 330 333 338 339 338 337 336 335 334 334 332 330 327 325 324 321 320
291 302 299 294 301 304 308 310 306 299 302 310 309 313 314 316 318 318 321 324 330 332 327 325 327 330 329 330 333 336 339 338 338 335 335 334 332 330 327 325 325 320 318 317
294 294 287 296 312 310 310 312 312 309 310 312 311 313 315 319 320 320 321 322 329 332 329 331 331 330 329 335 335 336 337 339 338 337 334 333 331 330 329 326 323 319 315 315
292 289 295 307 311 306 304 305 314 310 314 316 316 315 314 320 323 322 325 324 330 335 336 331 329 333 333 334 334 333 330 331 331 335 334 333 331 329 329 325 322 318 315 315
292 290 290 299 308 315 306 295 315 314 313 315 315 305 308 321 329 331 332 329 330 334 335 335 334 334 333 332 329 326 326 325 326 327 331 333 333 331 329 324 320 315 312 312
293 291 295 302 309 313 294 296 313 317 315 314 311 311 316 326 328 329 326 327 330 329 326 325 326 330 329 324 323 321 321 323 322 323 326 329 333 330 325 320 315 312 310 309
291 289 289 316 318 301 303 313 316 316 315 316 317 324 327 326 327 326 326 325 326 323 322 322 324 324 319 318 319 320 321 320 320 321 323 326 329 324 319 317 312 310 310 310
294 293 307 314 314 319 316 316 317 316 318 319 321 323 326 325 324 325 324 324 324 321 319 319 320 322 319 317 320 319 319 319 317 317 316 319 324 320 317 315 312 312 312 310
304 307 310 314 316 324 325 323 327 321 321 323 321 324 324 323 324 323 323 323 323 322 319 317 319 318 316 319 320 319 316 315 314 313 313 314 316 317 317 315 312 311 310 309
308 309 312 313 316 317 321 326 327 326 324 324 323 322 323 322 321 321 320 321 322 320 318 317 317 317 318 317 318 317 316 314 311 310 309 306 303 307 311 308 312 312 311 310
301 308 309 310 317 322 324 326 327 325 325 325 324 322 323 321 322 321 320 321 320 319 319 318 318 317 316 318 316 314 311 310 309 309 308 307 307 304 300 299 298 299 302 306
308 312 314 318 321 324 327 328 329 325 325 323 323 323 322 321 322 319 320 321 320 320 320 319 319 317 315 313 311 311 309 307 307 307 307 306 306 306 305 302 296 294 295 297
314 315 312 316 316 325 328 328 325 325 324 323 322 322 322 321 321 321 320 321 321 321 320 319 319 319 315 313 311 309 308 304 306 306 305 305 305 305 305 306 305 303 297 297
311 310 311 312 315 322 324 323 321 321 321 321 321 321 321 320 320 320 321 322 321 320 319 319 318 319 318 314 312 310 309 308 307 306 305 304 304 303 303 303 302 302 301 298
307 308 308 310 311 314 318 318 317 317 319 319 319 320 320 321 320 320 320 319 317 317 319 319 318 319 321 318 314 312 311 309 308 307 306 306 305 303 302 302 301 301 301 301
303 302 304 305 307 308 309 310 310 309 313 319 319 320 320 320 319 318 318 319 319 319 320 319 319 321 320 318 316 314 312 312 310 309 309 309 308 306 305 304 304 302 302 300
306 306 306 306 306 307 308 310 311 311 312 314 316 319 319 319 318 318 318 319 319 320 320 319 320 320 320 318 316 313 313 313 312 311 310 311 310 310 309 308 307 306 305 302
307 306 307 308 308 309 309 310 311 312 313 313 314 316 318 318 318 318 317 317 318 318 319 320 320 320 318 316 310 304 304 306 307 307 307 305 307 308 309 309 307 307 306 305
305 307 308 308 308 308 307 309 312 312 313 313 313 315 316 316 317 316 316 317 318 320 322 319 319 315 314 312 313 304 305 306 306 306 306 305 305 306 306 302 306 306 304 302
304 305 306 306 306 308 308 308 309 309 311 313 311 311 313 316 316 316 314 314 318 319 319 316 314 311 310 311 311 308 308 308 307 307 307 307 306 305 304 304 304 304 303 303
303 303 304 305 306 306 307 307 307 308 309 311 312 312 312 313 314 315 317 317 318 310 313 313 311 311 310 311 310 309 308 308 306 306 305 305 304 304 305 303 303 303 301 300
302 303 304 305 306 306 306 306 307 307 307 309 311 311 310 313 314 314 314 317 316 312 314 313 309 309 307 307 306 307 307 306 306 306 306 306 305 306 304 303 302 300 298 298
303 306 306 309 311 310 308 307 307 307 309 312 312 311 309 309 313 313 314 310 308 310 313 312 309 306 306 306 306 308 307 306 305 304 304 301 304 302 301 300 299 298 298 296
310 310 310 307 308 308 309 310 308 307 308 308 309 310 309 309 310 311 311 313 307 311 310 306 305 304 307 306 306 306 306 306 306 305 304 303 302 300 299 300 299 298 297 296
311 310 311 310 311 311 310 309 307 308 308 307 307 308 308 309 308 308 309 308 308 306 306 305 306 307 307 307 307 306 306 305 305 304 302 300 299 300 300 299 298 297 296 294
309 305 310 309 309 309 309 308 308 307 307 307 306 307 307 307 307 307 306 308 308 308 307 307 306 306 306 306 306 305 305 303 299 301 301 301 300 299 299 298 297 296 295 293

GFSNGP_sfc_thetae_039.txt.gz
Theta_e
305 304 306 307 306 304 306 308 305 308 307 313 314 317 320 324 325 327 327 329 338 336 336 337 337 337 339 342 343 346 348 347 346 346 345 343 342 341 340 338 336 335 334 334
304 305 306 305 307 307 307 306 307 308 310 318 319 321 323 323 325 326 327 328 332 337 338 337 336 336 336 338 341 345 348 348 348 347 345 342 343 341 340 337 336 334 333 333
302 306 306 303 307 309 313 314 312 308 314 319 319 320 323 324 323 325 327 329 334 337 339 339 338 339 336 335 340 341 344 348 347 347 344 342 342 340 338 336 330 326 330 332
302 304 296 307 318 315 314 316 317 317 317 319 320 322 324 328 327 326 330 328 333 340 339 339 338 337 338 337 340 339 342 346 346 343 343 343 338 337 336 334 328 323 322 328
302 298 304 311 314 314 311 311 320 317 319 321 322 323 322 329 333 334 334 335 338 342 339 338 337 336 337 339 341 340 338 338 335 340 342 340 336 337 335 332 330 326 325 325
303 299 298 309 312 320 313 305 319 320 321 321 323 316 319 330 334 334 330 330 334 342 343 342 339 340 336 333 336 337 334 332 333 336 338 337 338 337 336 330 328 319 316 318
303 301 303 309 317 319 302 306 318 322 322 322 321 323 328 332 335 332 329 329 329 331 331 333 336 338 335 333 330 331 331 331 332 334 336 337 337 337 333 327 324 317 314 315
302 300 298 321 323 309 315 324 324 325 323 325 327 330 328 330 332 331 329 327 327 325 325 327 332 326 323 322 324 326 326 326 328 329 331 334 335 329 325 322 319 319 313 314
304 304 317 322 323 328 328 325 325 326 326 328 328 330 329 330 332 333 331 327 327 325 323 324 329 332 325 321 323 323 324 325 324 322 324 328 326 323 321 319 316 317 315 315
311 316 320 322 324 327 329 330 331 327 328 329 332 331 329 330 330 330 330 330 330 329 325 323 327 328 325 324 324 323 322 321 322 322 321 319 322 323 321 322 316 316 315 314
314 318 320 321 323 324 327 332 332 328 330 330 333 333 331 329 329 329 328 328 329 327 328 324 325 324 325 324 324 322 320 319 320 318 315 309 306 311 317 315 318 318 316 316
313 319 320 320 323 326 330 330 332 330 330 332 333 332 333 331 330 330 329 330 328 328 327 324 324 324 322 324 324 321 318 317 317 315 314 312 309 305 300 300 299 300 303 309
317 322 322 324 325 328 331 330 330 330 331 329 331 332 332 330 332 325 330 329 328 327 327 327 324 321 324 322 321 318 317 316 315 313 314 313 314 314 310 303 296 295 295 297
322 323 320 321 325 331 332 331 329 329 330 330 330 330 330 330 328 329 328 329 329 328 327 327 325 322 322 323 322 320 320 309 316 316 319 319 320 320 319 317 315 312 297 300
323 319 317 322 328 329 330 328 325 325 327 327 329 329 328 328 328 329 330 330 329 328 327 326 325 325 321 322 321 320 319 318 319 318 317 314 316 317 317 316 314 312 310 302
317 315 316 318 321 324 325 323 322 321 323 326 327 327 328 329 329 329 330 330 328 327 328 327 326 325 321 321 321 320 319 313 313 314 312 310 309 309 309 308 308 308 309 309
314 313 313 314 314 315 315 317 317 317 319 322 324 325 327 328 329 328 329 329 329 328 329 328 326 326 323 321 324 320 318 316 313 314 313 311 311 309 310 310 309 308 308 307
315 315 315 314 314 315 315 317 319 320 319 320 322 323 325 326 327 328 330 330 328 327 327 326 326 324 323 322 325 324 318 317 316 314 315 315 314 314 313 313 312 311 311 307
313 313 313 313 314 314 314 315 316 318 319 320 320 320 323 325 327 328 329 328 328 327 328 325 322 323 323 322 324 323 321 317 319 318 318 314 317 316 316 316 315 315 314 312
310 311 311 311 312 313 313 315 315 316 317 318 318 318 319 321 324 325 327 326 328 328 332 326 326 324 324 321 318 322 319 317 319 318 318 315 314 314 315 307 314 314 311 310
309 310 310 311 311 312 313 314 314 313 315 316 315 316 317 319 321 323 324 323 328 329 328 324 327 323 324 320 319 317 309 312 312 312 310 311 312 312 313 313 312 309 310 312
310 309 310 311 312 313 314 315 314 314 314 315 315 316 316 317 319 321 325 324 328 313 325 326 325 319 320 314 319 315 310 311 311 312 313 313 314 315 311 310 310 306 306 308
310 310 311 312 313 314 315 315 314 315 315 316 316 315 312 312 312 312 317 326 327 319 326 326 316 310 309 313 316 314 311 312 309 312 312 314 313 309 309 308 309 308 302 302
310 312 313 314 315 314 311 313 314 313 311 312 312 313 312 311 312 317 319 315 310 312 322 319 311 306 308 311 309 310 310 309 311 312 311 304 310 308 308 304 306 303 303 304
312 313 313 313 312 312 313 311 311 311 311 311 312 313 312 313 311 314 314 317 309 313 320 306 306 307 311 311 310 310 309 309 307 307 309 308 308 310 308 303 303 307 307 306
313 312 312 312 312 312 312 312 311 311 311 309 309 310 310 311 311 311 311 310 313 310 313 311 310 308 309 308 309 310 309 308 309 310 309 308 305 302 304 308 308 306 306 305
311 306 311 311 311 311 310 309 309 308 309 309 308 309 308 308 308 308 306 309 308 308 307 307 308 308 310 311 310 309 310 310 304 305 303 304 307 310 309 308 307 307 306 305

GFSNGP_sfc_thetae_045.txt.gz
Theta_e
311 311 312 311 311 311 310 312 308 306 310 311 323 326 329 335 337 335 336 339 345 346 349 348 339 345 348 346 345 342 347 347 348 351 351 351 349 347 346 345 343 342 342 340
308 311 311 309 311 312 311 312 312 312 313 317 325 330 330 332 334 333 335 337 342 346 349 345 340 345 348 347 346 346 343 346 350 351 351 350 348 346 346 344 343 343 341 340
305 309 309 305 310 312 313 314 314 310 320 325 326 329 331 332 331 332 333 336 338 343 348 347 343 345 347 349 349 347 346 347 351 350 350 349 349 347 345 344 344 340 340 339
306 309 299 310 316 315 314 315 317 322 324 327 330 331 335 336 333 333 338 336 339 345 348 348 345 347 349 349 350 347 346 349 350 351 350 350 349 348 346 344 341 340 340 342
305 304 308 312 315 315 313 312 319 322 324 327 330 332 332 336 339 342 342 345 346 350 348 350 346 349 345 345 347 344 341 346 347 351 351 349 347 348 348 344 341 338 339 339
309 302 300 311 318 322 320 310 322 325 325 326 328 319 328 338 342 341 341 343 346 349 351 350 349 348 346 342 340 337 339 346 348 350 352 350 347 349 350 345 341 336 338 339
308 306 309 317 322 324 310 313 325 326 327 326 326 334 338 343 340 339 338 338 345 349 347 349 348 347 343 341 337 342 341 345 345 341 342 347 348 350 347 344 342 339 335 336
308 306 302 322 321 315 325 329 327 327 329 332 336 337 339 341 340 337 337 337 341 340 341 344 348 346 344 342 340 341 338 341 340 341 344 345 346 349 346 340 335 336 333 331
312 313 325 330 333 336 335 332 331 331 333 335 334 335 339 340 338 336 336 336 337 338 339 340 341 344 341 336 337 337 336 336 334 335 336 341 344 339 334 332 331 331 330 330
315 320 326 329 333 335 336 335 333 334 334 335 335 337 338 340 340 339 337 339 340 338 337 335 337 337 337 335 334 334 333 332 331 332 333 334 336 331 328 327 327 328 329 325
312 321 325 330 333 334 336 338 334 334 334 336 336 336 338 338 340 340 338 339 339 337 336 335 333 334 335 333 333 332 330 330 329 329 326 318 314 315 326 326 321 328 329 327
315 327 326 332 334 335 334 334 335 335 336 337 337 337 338 338 339 339 338 338 337 337 335 334 333 333 332 333 332 330 329 329 328 328 320 316 314 311 302 301 300 303 303 315
323 328 331 333 334 336 333 335 336 336 337 335 336 336 336 335 337 330 337 336 336 336 336 336 335 334 335 332 331 329 327 328 328 324 324 319 319 315 311 307 298 296 297 298
329 329 326 330 330 336 333 334 332 335 335 335 335 335 334 333 333 335 334 335 336 336 335 336 334 335 335 334 332 329 328 314 328 327 326 324 321 322 325 320 313 314 301 303
323 325 325 330 331 331 333 330 324 323 328 331 331 330 332 328 329 330 333 333 333 333 333 333 333 334 336 335 331 328 327 328 326 326 326 325 327 325 322 321 323 321 317 305
321 321 319 320 325 328 328 322 318 321 321 322 322 322 324 327 328 329 330 331 330 329 331 332 332 334 335 334 331 329 327 320 321 327 327 326 326 327 327 327 326 323 319 318
318 317 318 317 321 323 325 323 318 320 319 322 322 324 322 323 324 325 328 330 331 331 332 333 333 335 335 334 331 329 327 325 322 326 328 326 325 324 323 321 319 316 316 316
322 322 322 323 321 321 320 320 321 322 322 322 323 323 323 324 324 325 327 328 328 328 330 331 333 335 334 333 332 329 327 324 324 321 320 317 316 315 314 314 314 315 316 311
319 319 320 321 321 321 321 321 322 323 323 323 322 323 324 324 325 326 328 327 327 326 327 332 327 330 334 332 330 329 324 322 321 318 319 313 314 316 316 316 316 317 316 313
316 317 317 317 318 317 319 320 321 321 323 323 323 323 322 323 324 324 325 325 327 327 332 330 331 332 334 333 324 327 325 323 321 314 316 313 314 315 317 311 316 317 316 315
316 316 316 316 317 319 320 321 321 321 322 322 321 321 322 323 323 323 322 319 326 328 328 327 331 327 330 331 327 327 326 323 322 318 315 314 315 315 316 317 318 319 317 317
317 317 317 318 318 319 321 322 322 321 321 321 321 320 319 319 321 322 324 322 323 316 322 324 325 324 328 322 330 326 325 325 322 318 317 316 317 317 315 316 316 315 317 320
317 318 318 319 319 319 320 321 319 318 317 318 318 317 315 315 316 313 312 322 322 317 321 325 319 315 315 328 326 327 325 326 322 320 319 317 317 314 316 316 313 311 312 315
315 316 318 320 320 320 319 320 320 320 319 317 316 317 315 312 314 316 317 313 309 311 318 318 318 312 308 326 326 327 322 319 322 317 316 309 314 313 312 311 309 309 309 308
319 318 319 319 317 316 318 318 319 318 317 316 315 314 314 313 312 312 312 313 309 312 317 310 308 309 323 328 327 323 320 315 314 315 314 313 313 312 310 312 310 310 310 310
317 318 319 319 317 317 317 317 316 315 314 311 313 314 312 312 313 312 312 309 312 311 316 314 318 319 318 319 319 316 313 312 312 313 312 313 312 311 312 311 310 309 309 309
317 309 317 315 316 317 315 313 313 314 313 312 312 313 312 312 311 308 306 309 310 310 312 314 315 315 314 313 312 311 309 309 304 310 309 308 308 308 309 309 310 309 309 311

GFSNGP_sfc_thetae_051.txt.gz
Theta_e
303 305 306 305 306 307 304 301 297 304 307 310 312 317 320 324 328 332 333 337 344 340 335 335 339 339 340 340 339 338 337 340 340 340 341 340 339 338 337 337 335 334 332 330
299 305 306 304 307 309 308 309 307 306 307 315 316 316 318 321 330 332 332 340 341 343 335 334 338 340 341 340 338 335 334 337 344 343 342 339 340 338 337 335 335 334 332 324
296 305 304 299 304 307 310 309 309 302 309 314 313 313 314 328 329 330 331 339 340 339 339 335 335 338 340 340 340 337 336 342 343 341 341 340 341 338 336 334 334 331 328 323
299 302 293 303 310 310 308 311 312 311 313 318 320 321 322 328 328 330 333 336 339 341 340 336 337 339 342 342 341 336 334 336 339 338 339 341 340 336 338 336 333 331 330 324
297 296 302 306 309 311 306 311 316 316 317 321 325 327 328 337 338 338 340 339 339 343 339 338 340 342 342 341 342 341 338 334 336 337 337 337 337 337 337 336 334 332 332 325
299 296 296 304 315 318 316 306 318 318 317 318 324 317 322 335 338 336 338 340 342 345 343 344 342 342 339 337 335 336 333 335 335 334 333 333 334 331 334 337 333 333 332 329
301 297 301 319 316 318 299 306 319 317 317 317 314 318 332 336 334 336 336 339 340 342 341 343 343 340 336 334 333 334 336 333 331 332 329 332 334 335 334 335 333 332 331 331
300 298 296 326 322 308 312 319 321 323 325 319 320 332 334 334 332 332 333 336 337 334 334 336 337 338 335 332 334 335 333 331 329 332 335 334 334 333 334 335 332 331 330 329
310 307 316 320 322 325 319 319 321 315 316 326 328 331 333 330 330 330 332 334 337 333 330 332 334 339 334 335 337 336 331 329 328 329 331 331 330 332 334 334 333 330 328 327
306 311 315 321 326 325 329 325 320 318 317 334 333 333 330 330 330 332 333 333 334 331 329 330 332 333 333 332 333 333 331 330 328 325 325 324 327 330 332 332 331 329 326 326
309 313 316 318 325 330 331 332 329 330 333 335 336 332 332 331 331 333 335 335 333 330 327 326 327 327 327 330 328 328 328 328 327 327 324 319 311 309 314 318 319 329 328 328
306 314 314 312 313 330 331 330 328 331 334 336 335 334 334 332 330 330 330 330 329 329 328 328 328 326 326 326 328 328 327 326 326 326 322 315 314 310 303 301 300 301 304 318
313 315 316 314 315 329 326 326 327 326 326 323 327 333 331 329 330 329 331 331 332 330 331 330 330 327 328 325 324 322 323 324 325 324 322 317 312 314 313 307 299 297 297 302
317 315 312 313 311 322 323 326 324 324 324 323 322 322 326 328 327 330 329 329 328 327 327 327 327 329 329 328 326 322 321 318 319 321 324 322 319 314 314 315 314 313 303 301
317 316 314 315 313 321 324 320 317 318 318 318 321 320 319 319 321 324 327 328 327 324 324 327 325 324 330 330 327 325 323 322 320 321 323 322 321 320 318 316 316 315 304 301
316 315 317 319 319 319 321 320 317 317 316 317 317 320 322 319 321 321 324 326 324 325 324 322 323 325 327 327 327 326 325 323 320 320 319 321 323 321 320 320 319 316 308 306
308 314 315 317 318 320 318 318 319 318 318 316 315 316 317 317 319 320 322 323 323 321 322 323 324 327 329 329 328 327 324 322 321 321 322 319 322 323 323 322 319 319 314 311
317 319 321 319 317 317 319 319 319 319 319 320 321 321 321 320 319 320 321 322 322 323 324 326 322 322 323 328 328 326 324 323 321 320 322 318 321 323 323 322 323 321 320 316
316 315 318 318 317 316 316 318 319 319 320 319 319 319 319 319 319 320 321 320 319 318 320 323 324 323 323 326 326 325 324 323 321 319 321 316 313 312 311 312 314 321 322 313
314 315 315 317 318 317 317 318 318 319 320 319 320 319 318 318 318 317 316 315 318 318 317 318 318 319 319 317 319 322 323 322 320 318 317 314 312 311 312 308 313 313 311 311
315 316 316 317 317 318 318 319 318 317 318 318 316 314 314 315 315 314 312 312 314 314 314 317 317 313 314 315 317 320 323 321 320 318 317 315 311 311 313 313 313 314 314 314
315 315 316 316 317 316 318 318 318 317 316 315 314 313 311 312 311 311 312 311 312 310 311 312 314 313 313 314 316 320 322 321 321 321 317 315 311 311 311 312 311 311 312 311
315 315 316 316 316 317 318 317 316 316 315 315 314 312 311 310 310 309 307 310 310 309 309 311 311 311 311 313 315 317 319 319 319 319 320 315 314 313 312 310 309 309 308 308
314 314 314 317 317 316 314 315 317 316 315 314 311 310 308 308 307 310 311 309 307 307 309 311 311 309 310 314 316 316 316 316 313 314 315 309 312 311 309 309 309 309 308 308
315 315 315 314 313 313 314 315 315 314 312 311 310 310 310 311 309 309 309 310 307 310 313 310 309 310 313 313 313 313 310 309 311 313 311 310 310 309 309 309 309 309 309 310
314 314 314 314 313 313 315 314 311 310 311 310 309 310 309 310 310 310 310 308 310 308 310 311 310 311 310 309 309 308 309 308 309 308 307 307 309 309 309 309 308 309 309 310
315 307 315 313 314 313 312 311 310 310 310 311 310 311 310 309 309 308 307 308 308 309 308 308 308 307 308 308 308 308 308 307 302 307 308 307 307 308 308 309 309 309 309 310

GFSNGP_sfc_thetae_054.txt.gz
Theta_e
298 301 302 302 302 304 300 298 296 300 306 310 315 312 313 314 318 323 328 337 336 334 334 334 335 337 340 340 338 337 336 336 337 336 336 336 334 335 334 332 331 330 329 323
295 302 303 302 304 305 305 305 303 307 305 314 315 315 316 320 324 327 336 339 337 336 335 335 336 336 337 338 336 335 335 336 338 338 337 336 336 335 333 332 331 329 324 320
291 300 301 294 301 304 306 307 304 301 308 314 313 315 316 318 324 329 337 341 340 336 334 334 337 338 337 337 336 333 332 334 338 339 337 336 339 336 335 331 331 328 320 318
296 297 289 300 306 308 308 315 314 309 312 315 315 316 317 325 326 327 337 338 338 338 334 332 335 337 338 337 336 334 333 335 337 336 336 336 337 334 334 333 330 325 321 318
294 293 298 304 308 309 306 310 316 312 316 316 321 329 328 334 335 335 336 336 338 339 335 332 334 338 338 337 338 336 333 333 334 336 334 335 332 329 330 332 333 330 324 319
294 291 291 302 315 317 315 303 317 316 317 320 320 315 319 333 337 338 338 339 340 337 335 334 337 339 336 334 334 332 331 332 332 332 332 331 331 330 328 329 332 333 330 323
294 294 298 316 322 320 299 301 317 316 314 314 310 316 327 333 334 335 335 334 335 336 335 336 337 335 333 332 329 330 331 330 329 327 326 328 331 329 326 329 333 332 330 328
294 293 292 318 319 305 309 313 317 317 316 315 317 330 331 331 331 333 332 332 332 331 329 330 334 333 329 329 330 331 329 327 325 327 331 331 331 329 327 328 329 330 329 328
304 301 310 317 313 314 316 316 319 320 325 322 327 330 330 329 329 329 331 331 330 328 327 329 333 332 332 332 332 331 328 326 326 325 326 327 326 327 328 330 331 330 330 328
302 307 310 313 313 313 314 314 319 322 323 320 317 324 321 327 329 328 329 329 328 326 324 324 329 332 331 331 332 331 331 329 327 324 323 321 321 323 326 331 330 331 329 327
304 308 310 312 311 314 314 319 324 328 326 320 320 330 328 329 329 330 330 330 327 323 322 322 323 323 324 325 328 327 327 327 327 326 324 319 314 311 313 318 313 325 330 329
298 308 308 309 312 315 315 314 317 323 326 327 332 329 330 329 330 332 331 328 325 324 324 323 323 323 322 323 324 323 321 321 322 325 323 318 316 314 305 302 300 298 302 317
306 313 312 313 316 318 316 320 321 320 325 330 329 330 329 326 328 326 328 327 327 327 327 325 324 322 323 323 322 320 318 318 319 320 324 318 315 314 314 309 300 298 297 299
314 312 310 311 310 320 319 318 318 320 323 328 327 328 329 328 328 329 329 330 330 329 328 327 326 325 325 323 321 320 318 314 317 316 318 318 319 317 315 314 314 315 302 300
313 313 311 312 314 316 322 321 319 318 319 319 320 319 320 319 319 321 323 326 326 323 322 322 325 326 327 325 322 319 318 318 317 317 317 317 318 319 318 317 315 314 307 301
312 312 314 314 315 319 319 319 316 316 317 318 318 319 320 320 320 322 323 324 322 320 321 319 318 319 323 326 325 321 321 319 318 318 317 316 317 317 319 316 315 313 309 310
302 306 312 315 316 316 316 318 317 316 314 312 315 317 316 315 317 317 317 318 319 318 319 319 317 318 319 323 322 324 322 321 319 319 317 317 316 317 318 318 319 317 316 312
315 314 315 315 317 316 316 317 316 317 315 317 317 316 315 315 314 314 316 317 317 316 314 315 317 318 318 318 318 322 322 321 319 318 318 317 316 316 317 319 320 318 317 312
313 315 316 318 317 314 315 316 317 317 316 316 316 314 314 313 313 312 312 314 312 311 312 314 319 315 313 315 316 314 319 320 320 318 318 315 315 312 308 307 309 317 319 315
313 314 317 315 315 315 314 316 316 315 315 314 313 311 310 310 311 310 310 309 309 309 310 312 312 310 310 312 316 313 316 319 319 318 316 315 313 308 307 306 310 310 321 320
313 313 313 315 315 315 316 316 315 313 313 313 310 309 308 308 308 307 306 305 306 308 308 311 310 309 310 312 312 311 314 317 317 316 315 313 312 312 308 309 311 310 310 310
311 312 313 313 313 312 314 315 314 312 311 310 310 309 307 306 306 305 306 304 305 307 307 307 308 310 311 313 309 310 312 316 315 315 315 313 313 311 311 310 310 311 309 311
309 309 310 312 311 310 311 311 311 311 309 307 306 305 304 303 305 304 304 306 307 308 308 309 309 310 311 310 310 313 314 313 311 316 313 310 310 309 309 308 308 308 308 309
308 308 309 311 311 310 309 309 309 309 308 308 306 306 304 302 304 309 309 308 307 307 312 310 309 308 310 313 312 310 308 310 310 312 311 306 310 309 308 308 308 309 309 308
311 311 310 309 308 307 308 310 309 306 306 305 305 305 305 309 306 308 309 309 307 307 308 307 306 307 307 306 307 307 306 305 305 308 309 308 307 307 309 309 309 309 310 310
307 307 307 308 307 309 311 308 306 304 305 303 304 304 304 305 304 304 304 305 304 304 303 303 304 304 304 304 305 307 306 305 306 307 307 308 308 308 308 308 308 309 309 309
307 304 308 309 307 308 307 305 305 304 305 305 304 305 305 305 304 303 303 303 303 303 303 303 303 303 301 301 302 302 302 302 299 302 304 304 304 307 307 307 308 308 308 308

GFSNGP_sfc_thetae_057.txt.gz
Theta_e
295 299 299 300 300 301 297 295 294 296 302 306 312 313 316 314 315 317 318 323 332 332 333 334 336 337 338 338 336 335 335 335 335 334 334 333 333 332 333 330 330 328 327 323
292 300 301 300 302 303 302 302 301 304 304 310 314 313 312 313 313 316 322 330 335 334 334 334 336 336 338 338 336 334 334 334 336 335 334 334 333 334 333 331 329 328 323 320
294 298 298 292 298 301 302 304 304 301 305 311 311 315 314 314 317 319 325 336 334 333 334 333 334 336 336 337 336 333 333 334 335 336 333 334 335 334 334 331 331 326 321 318
295 294 287 296 305 306 307 313 312 307 308 312 315 317 315 316 318 321 329 339 336 334 334 333 335 335 336 336 334 332 330 331 334 335 334 334 335 334 334 333 332 328 323 318
292 291 296 303 308 307 303 303 314 311 311 313 315 320 321 331 322 324 335 337 338 337 334 332 334 336 336 334 333 332 330 330 333 334 332 332 330 329 331 331 332 329 326 321
292 288 288 299 316 319 313 299 314 315 314 313 321 308 314 332 335 335 337 338 338 337 333 331 332 336 335 333 333 331 330 331 331 330 330 330 327 325 327 330 330 332 328 325
291 290 296 310 314 318 298 298 312 314 313 314 314 315 325 331 333 331 334 335 336 334 331 331 334 334 331 329 328 329 330 328 328 327 326 326 326 325 324 326 331 328 329 327
291 289 290 313 313 304 306 310 315 316 319 318 319 328 327 329 332 333 332 333 333 331 330 331 332 331 327 328 326 328 326 324 324 324 326 327 326 326 324 324 323 329 327 327
300 299 308 313 309 312 310 311 316 314 318 321 320 325 328 326 330 330 331 330 330 331 331 330 330 331 331 330 328 327 325 327 327 325 324 323 323 327 324 322 324 328 328 328
300 306 308 312 313 313 314 314 317 321 322 321 319 320 323 326 329 329 330 327 329 328 328 328 330 331 331 332 332 331 329 326 326 325 324 323 321 321 322 327 327 328 329 328
301 304 306 312 311 311 314 316 319 321 319 318 320 318 319 322 328 329 328 326 327 326 326 324 324 324 324 325 325 325 326 326 327 326 324 321 315 315 315 316 314 317 325 329
296 304 305 306 311 313 315 316 317 315 314 320 321 322 329 327 329 329 327 325 323 323 323 322 322 322 321 322 323 321 319 319 318 318 317 316 315 315 306 305 301 298 297 301
304 310 310 312 313 317 316 314 315 318 322 321 323 326 329 328 329 328 328 326 325 325 325 323 322 320 321 321 320 319 317 317 316 316 317 316 313 312 315 310 301 299 298 298
311 310 307 311 309 315 317 318 318 318 320 325 325 320 318 327 326 326 326 327 327 327 326 325 323 322 322 321 319 318 316 313 315 314 314 316 315 314 313 315 314 316 300 298
312 313 309 309 311 312 317 319 318 318 318 318 321 322 322 320 320 321 324 326 326 324 324 325 324 323 325 323 321 319 317 316 315 315 314 314 314 314 314 314 316 316 313 303
308 310 310 312 311 313 317 316 314 316 317 318 319 320 321 321 322 321 322 324 320 317 318 318 315 316 318 322 320 318 317 316 316 316 315 314 314 314 314 314 313 312 311 309
303 304 307 309 312 313 314 315 315 316 317 317 317 318 316 316 316 316 316 317 315 314 314 314 314 316 315 314 316 319 320 319 318 319 317 316 315 314 314 314 315 315 314 316
310 311 310 310 313 314 314 316 315 315 314 316 316 315 314 312 311 312 313 313 311 311 311 312 314 312 311 313 312 312 314 316 318 317 317 316 316 315 314 314 315 316 318 312
310 313 314 315 312 311 315 315 315 316 316 315 312 311 311 310 310 310 311 309 307 305 306 309 315 311 308 311 314 310 311 313 315 316 316 315 316 314 313 311 308 308 311 313
312 313 313 313 313 313 312 314 314 313 313 313 312 310 308 308 308 308 308 305 304 305 306 306 308 307 307 308 313 309 310 311 313 314 314 314 314 313 312 306 307 308 307 313
310 311 311 312 313 314 313 312 312 311 311 310 308 307 306 305 306 306 303 302 304 305 306 308 306 306 308 310 310 308 307 309 311 312 313 316 314 310 309 310 307 308 308 307
308 309 310 311 310 310 311 310 309 309 307 306 306 304 303 302 303 302 303 306 307 307 309 310 310 312 314 314 312 310 313 312 310 312 312 312 310 309 307 307 307 306 308 309
305 306 308 309 308 308 309 308 307 306 305 304 303 302 300 301 302 304 305 309 310 308 312 308 308 309 311 312 311 311 311 311 312 311 309 308 308 306 307 307 308 308 308 309
305 307 307 308 308 307 305 305 305 305 305 304 303 303 302 301 304 308 309 307 306 306 306 305 305 305 307 308 307 306 307 308 309 309 309 303 308 309 309 309 309 309 309 308
307 307 307 306 306 305 305 305 304 303 303 302 302 302 302 304 304 304 303 303 304 303 302 303 304 305 303 304 306 305 304 305 305 304 305 305 305 308 308 308 308 308 309 309
304 305 305 304 305 306 305 306 303 302 302 302 302 302 302 302 302 302 302 303 301 302 300 300 301 300 300 300 300 301 304 304 301 303 302 303 305 305 307 307 306 306 306 307
305 300 305 307 305 306 306 304 303 303 303 302 302 303 303 302 302 301 301 301 300 300 300 301 301 301 300 299 300 300 299 300 297 299 299 299 300 301 301 302 302 302 302 303

GFSNGP_sfc_thetae_060.txt.gz
Theta_e
293 295 298 298 299 300 296 295 295 296 297 302 308 316 318 317 317 317 319 320 326 330 331 333 337 339 340 340 338 337 337 337 337 336 337 336 335 335 335 334 333 332 331 330
292 298 300 298 300 301 301 299 301 302 301 306 311 313 315 317 314 315 317 320 326 333 333 334 337 339 340 339 337 337 337 336 338 337 337 336 335 335 335 333 331 331 329 328
292 298 297 293 296 300 303 303 304 299 304 308 310 314 314 315 315 315 317 323 330 334 334 335 338 340 339 339 338 336 336 337 337 338 336 336 336 335 334 332 331 330 327 325
293 293 287 296 307 307 307 310 311 311 310 310 309 313 317 316 316 317 321 326 335 335 334 336 337 337 338 339 338 335 334 335 337 337 337 336 335 334 335 335 333 330 326 323
291 289 295 302 311 310 307 303 311 309 312 314 315 315 314 323 320 320 322 328 338 336 336 335 336 337 337 336 336 335 333 333 335 337 336 335 335 335 335 335 334 329 328 324
292 288 288 302 312 315 314 298 311 312 313 312 316 306 310 328 333 323 323 333 338 336 334 335 335 337 336 334 334 333 333 333 335 335 334 332 331 330 331 332 331 332 326 324
289 288 294 308 311 313 297 297 310 314 314 315 312 315 325 332 331 331 332 335 336 334 334 334 335 336 334 333 333 334 333 332 332 332 331 332 330 329 328 329 331 331 328 326
290 287 287 311 309 303 306 309 312 314 316 317 318 322 326 330 331 331 330 331 332 331 330 331 334 333 330 330 329 330 329 328 328 327 328 330 330 330 328 327 329 329 330 327
299 298 306 311 307 311 310 311 314 317 318 320 319 320 321 326 330 330 330 330 331 332 332 331 330 332 329 330 330 328 325 327 328 329 328 327 329 330 328 326 325 327 326 326
300 305 308 311 312 312 313 312 314 316 318 318 318 320 320 321 328 329 328 328 329 330 330 330 330 331 331 331 331 329 326 328 329 328 327 326 324 324 324 324 326 327 329 328
301 302 305 311 311 312 313 316 316 318 319 316 316 319 320 319 324 329 328 330 331 330 328 329 329 328 330 331 332 331 329 328 327 326 326 324 321 321 320 321 319 322 321 323
295 303 306 306 311 313 315 314 314 314 314 318 321 318 321 321 321 329 328 328 327 326 326 325 326 324 325 326 327 326 324 324 323 323 323 321 318 319 309 307 302 299 297 302
303 309 310 312 314 315 315 314 316 318 318 316 318 319 320 327 325 326 326 324 324 324 325 325 324 323 324 324 324 323 322 322 321 319 322 320 319 318 318 315 300 298 296 296
309 310 307 311 309 314 315 316 319 320 319 320 320 319 321 321 323 323 323 326 326 325 324 324 324 323 323 324 324 322 321 311 319 320 320 320 320 320 319 318 317 319 302 299
312 312 309 310 311 311 313 316 316 316 319 318 321 320 322 320 320 321 324 324 323 323 323 324 322 319 322 325 323 322 321 321 320 320 319 317 319 319 319 319 318 319 320 306
308 309 310 310 310 312 313 315 314 314 317 319 320 319 321 321 321 320 320 320 316 314 316 317 316 316 317 323 325 323 323 317 317 321 320 320 320 319 319 319 319 319 319 319
301 305 308 308 310 312 313 313 313 315 317 318 318 317 317 317 317 315 313 314 314 313 314 314 313 314 316 315 315 316 319 321 318 322 321 322 321 320 320 319 319 319 320 319
310 311 311 311 312 312 313 314 314 314 314 314 314 313 313 313 311 311 311 311 310 309 309 310 314 313 312 313 314 313 313 315 318 319 320 321 321 321 321 320 321 320 321 321
313 314 314 313 312 313 315 315 315 315 315 314 312 310 311 310 310 310 309 308 307 306 307 308 312 310 310 311 314 312 311 312 313 315 317 315 319 320 320 320 319 319 315 313
311 313 313 313 314 313 312 314 314 313 313 312 310 308 307 307 308 308 306 304 306 307 309 309 310 310 310 311 313 312 311 311 311 313 316 316 318 319 318 309 312 312 312 313
311 312 312 313 313 313 312 311 310 309 309 309 307 305 305 305 306 306 304 305 308 310 310 311 311 312 314 315 314 313 311 313 314 312 312 315 316 314 313 312 311 311 311 312
309 310 310 311 310 309 310 309 308 307 306 305 305 305 304 303 304 306 308 308 310 308 310 309 309 312 312 312 312 312 312 313 312 311 311 311 311 309 310 309 308 310 311 311
307 308 309 309 309 308 308 307 306 306 305 304 304 303 304 304 307 306 306 309 310 307 308 308 307 307 308 308 308 309 309 310 310 310 310 310 310 310 309 309 309 309 310 310
306 307 308 308 308 306 304 305 306 305 305 305 304 304 304 305 306 308 308 305 303 303 306 306 305 305 307 307 307 307 308 309 307 309 308 303 308 308 308 310 310 311 310 307
306 307 307 307 307 306 305 307 306 304 304 304 304 305 305 306 306 305 306 305 302 303 305 303 303 303 305 306 305 304 305 305 304 308 308 308 308 308 309 310 310 309 310 310
305 305 306 306 307 307 306 307 304 304 304 304 304 304 305 305 305 305 305 304 304 303 304 304 305 305 304 304 304 304 304 304 304 305 305 307 307 307 307 307 307 307 307 306
305 301 307 306 307 307 309 306 305 305 305 305 305 306 306 306 305 305 303 305 305 305 305 306 305 304 305 305 305 305 305 304 299 304 305 306 306 306 307 307 306 306 303 301

GFSNGP_sfc_thetae_063.txt.gz
Theta_e
304 303 304 305 306 305 305 307 305 308 307 314 316 318 324 329 332 328 329 331 336 344 347 346 346 347 349 351 352 351 349 347 347 348 348 347 345 345 344 344 343 342 340 343
304 305 306 303 305 306 306 305 307 309 309 317 320 322 322 324 328 327 328 329 330 339 343 344 344 347 350 351 351 350 348 347 348 347 347 347 346 345 344 342 341 339 334 337
300 306 304 301 303 305 308 311 311 308 313 321 321 322 322 323 324 326 328 329 330 332 342 345 345 348 350 352 351 349 347 347 347 348 346 347 346 345 344 342 341 338 336 331
303 304 295 304 318 315 314 314 316 316 318 320 321 324 326 331 326 326 327 328 331 334 342 347 348 349 352 352 349 347 346 346 347 347 347 347 346 345 345 344 342 342 331 329
300 301 302 309 314 314 314 310 316 317 319 321 325 325 325 333 337 339 330 331 336 345 348 347 347 351 351 349 349 347 345 345 346 347 346 346 343 340 341 342 340 338 335 327
301 297 294 308 314 316 318 308 316 318 319 320 324 314 321 332 333 334 341 334 340 348 347 347 350 350 349 348 348 346 347 346 346 346 346 341 340 337 339 338 339 335 332 336
299 297 301 313 314 317 306 307 317 320 320 321 320 323 328 333 335 334 335 341 342 346 344 346 346 347 346 346 345 346 345 344 345 345 345 345 343 341 340 340 338 338 335 334
299 297 295 315 313 310 314 317 317 320 321 320 324 325 328 330 335 333 332 336 339 336 334 335 337 342 343 343 343 344 343 342 341 341 340 340 341 338 337 338 336 334 334 332
309 306 314 317 314 316 316 315 316 317 320 320 321 322 323 326 332 335 335 337 339 335 330 327 327 333 333 333 337 338 338 335 333 334 334 334 334 333 332 335 334 333 329 332
307 312 314 316 318 317 317 316 319 321 320 321 320 321 321 325 327 334 335 336 334 328 324 322 325 332 332 332 334 333 333 332 335 336 336 337 336 335 335 332 331 332 330 329
306 310 312 315 318 318 317 319 319 320 321 321 322 323 324 325 327 329 334 336 333 330 328 328 333 333 333 333 335 334 333 334 335 334 334 334 333 332 331 332 326 329 329 328
302 310 314 313 316 319 317 317 319 321 321 322 321 322 323 325 329 332 332 334 332 330 331 332 333 334 334 335 336 336 334 333 332 332 332 331 330 330 310 310 303 300 299 307
312 316 317 319 320 320 318 319 320 322 322 321 324 324 323 323 326 325 332 335 331 330 331 332 332 330 332 331 334 333 331 331 329 326 330 329 329 329 327 319 302 299 297 297
317 317 314 316 315 318 318 319 319 324 324 322 322 326 324 322 324 323 322 322 323 324 325 325 327 326 329 330 331 330 330 314 330 329 329 329 329 330 329 327 326 327 303 303
317 320 319 320 319 319 320 320 321 321 322 322 325 324 325 321 320 322 323 323 322 320 319 318 318 318 325 331 331 331 330 330 330 330 330 326 330 329 328 327 327 327 328 309
315 313 315 316 317 318 320 320 319 320 321 320 322 322 321 319 318 317 317 319 319 317 317 316 316 318 322 331 332 333 333 321 321 332 331 330 330 329 329 328 327 327 326 326
311 313 316 317 318 318 318 319 319 320 320 318 320 322 318 315 316 313 312 313 313 312 313 315 314 317 320 322 323 324 326 328 317 328 329 330 330 330 330 330 328 327 327 324
315 319 320 319 318 318 319 319 320 320 319 320 321 321 319 318 315 313 312 313 313 312 312 313 316 316 317 317 319 319 319 321 322 322 324 325 326 327 329 328 328 328 328 325
319 319 318 318 320 320 320 318 318 318 317 318 318 316 316 316 316 315 314 313 312 311 312 315 314 317 318 317 317 318 317 316 317 318 319 317 323 327 327 327 328 326 323 320
317 318 319 319 320 320 319 320 319 315 316 316 315 314 313 313 314 313 313 308 308 309 312 314 317 317 315 316 316 315 316 318 318 317 317 320 323 323 322 311 317 317 318 318
316 317 317 318 318 318 317 317 316 315 314 314 313 312 311 312 313 312 308 307 310 312 314 314 315 315 315 314 316 316 315 314 314 314 315 317 318 318 317 316 317 317 317 317
312 314 315 317 316 315 316 315 314 313 312 312 312 312 309 309 309 310 311 310 312 307 313 313 310 310 312 313 314 313 313 313 313 314 314 314 314 313 313 312 312 312 312 313
313 314 316 316 316 315 314 313 312 312 311 312 311 307 307 308 310 308 307 311 313 308 313 310 307 308 309 312 313 314 313 312 312 311 311 311 311 312 312 312 313 313 313 313
315 316 316 317 317 314 312 312 312 312 313 311 311 311 311 309 309 312 312 306 304 307 311 309 307 307 308 310 310 311 311 310 312 313 312 304 310 310 311 312 312 312 313 311
314 315 317 316 311 311 312 311 312 311 312 312 313 313 313 313 311 311 311 310 303 309 311 304 304 306 312 311 309 310 309 310 312 312 312 311 311 310 310 309 309 308 307 308
314 315 315 315 314 312 310 312 310 310 310 310 311 312 313 313 313 312 313 309 312 308 312 312 311 311 311 311 311 311 311 311 310 310 309 310 310 309 309 309 308 307 306 306
315 304 314 311 315 314 311 312 310 310 309 310 309 312 312 313 312 312 307 314 314 314 314 314 312 309 311 311 312 312 313 312 304 312 312 312 312 312 311 311 311 309 308 306

GFSNGP_sfc_thetae_066.txt.gz
Theta_e
308 308 307 308 307 308 307 309 307 309 310 319 323 325 327 330 336 338 338 339 340 349 355 355 354 353 353 354 355 358 357 352 352 352 351 352 350 350 349 349 348 349 347 346
308 307 308 306 308 310 310 310 311 312 314 325 327 329 328 330 329 332 337 339 338 342 349 355 355 353 353 355 357 358 356 351 353 353 351 351 350 349 350 349 348 348 346 344
303 308 307 303 308 309 311 313 314 309 320 325 325 327 332 333 333 332 331 335 340 339 343 352 355 355 353 355 359 357 355 352 352 353 350 351 351 351 350 350 350 348 346 344
303 307 298 313 320 317 312 318 320 321 323 325 327 329 333 335 336 339 340 334 336 339 340 349 354 355 356 357 358 356 353 350 352 352 350 351 352 351 351 349 348 347 346 344
301 301 305 311 318 317 315 315 321 321 324 325 328 329 332 335 338 340 343 344 338 339 341 346 353 355 356 356 356 355 351 350 350 351 350 350 350 351 351 346 347 347 347 343
303 298 296 313 318 321 322 312 322 324 325 325 328 315 327 334 336 340 343 347 340 346 351 351 355 356 356 353 354 352 351 350 352 352 350 350 351 350 346 344 344 342 342 342
301 300 305 316 318 322 310 311 321 323 325 325 325 327 330 333 335 340 342 343 348 348 352 353 356 358 355 353 350 351 352 351 351 351 352 350 349 348 346 345 344 342 340 341
303 300 298 318 317 314 317 321 320 322 323 323 325 327 329 329 330 333 339 340 345 343 344 351 355 354 351 347 349 348 351 349 348 347 348 345 347 344 342 342 339 340 338 336
310 310 317 320 319 320 320 319 321 322 323 324 324 325 326 328 330 332 335 338 339 340 344 348 351 350 342 338 341 343 343 339 342 342 344 343 343 341 337 341 337 336 334 335
312 313 315 319 322 322 322 321 322 324 324 325 324 326 326 328 330 332 334 335 339 339 343 344 347 345 342 341 341 341 336 334 336 337 339 340 341 340 337 337 337 334 336 336
308 311 315 317 319 321 321 322 322 324 325 324 324 324 325 327 329 331 334 335 338 340 338 337 338 339 341 341 340 338 336 334 336 338 336 339 340 337 337 340 330 335 334 334
305 315 315 317 320 323 321 321 323 324 323 325 326 324 324 325 329 331 332 333 337 338 339 338 337 338 340 340 341 339 335 336 336 336 336 334 333 332 313 308 305 302 301 311
315 318 317 320 321 323 323 323 323 324 327 324 326 327 326 328 325 322 324 327 325 331 335 337 336 336 338 340 342 340 340 340 333 329 331 330 328 328 327 319 304 301 299 299
320 320 314 317 316 321 322 324 323 326 327 327 327 327 324 326 323 323 326 324 323 322 321 327 325 326 330 332 334 335 332 317 330 330 328 329 329 329 329 327 327 329 305 306
317 321 319 320 322 322 323 324 323 323 324 326 327 328 326 320 319 318 322 326 323 322 321 319 318 318 325 329 330 330 330 327 331 329 330 328 331 330 329 328 328 328 329 308
317 316 317 318 319 321 322 321 322 322 320 322 323 323 319 318 316 316 317 318 317 316 321 319 319 320 321 324 329 329 332 321 323 335 329 330 328 327 327 327 328 328 328 327
314 313 315 316 320 320 320 322 323 323 323 324 322 322 323 320 315 313 312 313 312 312 313 314 314 317 318 322 323 326 327 330 319 328 328 327 327 326 327 327 327 328 331 325
320 322 320 321 319 320 320 321 321 323 323 324 325 324 322 322 321 318 317 316 316 316 318 320 318 319 321 322 323 324 324 324 324 324 325 325 326 326 326 327 327 327 331 328
321 320 320 321 320 320 319 320 317 319 323 323 322 320 320 320 320 319 318 318 317 317 316 318 317 320 321 319 319 322 321 321 321 322 323 320 324 324 326 326 328 328 324 323
320 321 320 319 320 319 319 321 323 321 321 320 318 318 318 317 317 317 314 310 311 312 314 316 317 319 318 318 317 318 318 319 319 320 322 322 323 325 326 314 322 323 323 320
319 319 318 318 318 320 320 321 321 319 319 318 317 316 316 316 313 313 311 310 313 315 316 315 316 317 318 317 317 316 316 316 316 316 317 318 320 318 318 318 316 317 317 317
317 317 317 318 320 320 321 321 319 319 317 317 317 316 313 310 311 311 313 312 313 307 314 316 315 312 315 315 315 315 315 315 315 315 315 314 314 314 314 315 315 313 312 313
314 316 317 318 320 321 321 321 319 317 316 316 313 311 311 311 311 310 311 315 315 310 315 314 308 309 310 316 315 315 315 315 315 311 312 312 312 313 313 312 313 313 312 312
318 319 319 321 321 319 317 318 318 318 316 314 313 312 311 312 313 314 314 307 307 308 313 312 310 307 309 315 315 315 315 316 315 315 315 307 314 314 313 312 311 311 311 310
315 317 319 319 318 318 316 316 316 315 315 314 315 316 317 317 312 313 313 313 306 309 313 303 305 307 314 313 313 313 313 312 312 312 311 311 310 310 310 309 309 309 309 309
316 315 321 320 320 317 316 315 314 314 315 314 314 315 314 313 313 313 314 311 313 309 313 314 313 313 313 312 312 312 312 311 311 311 310 311 311 311 310 310 310 310 309 309
317 306 319 318 317 316 317 315 313 311 311 311 311 313 313 314 313 312 307 314 314 314 314 315 313 312 314 314 313 314 313 312 304 313 312 312 313 313 313 314 314 313 311 310

GFSNGP_sfc_thetae_069.txt.gz
Theta_e
310 308 310 309 308 308 308 309 306 309 313 316 326 327 329 334 339 340 340 340 348 350 353 354 352 352 352 353 354 354 355 355 352 354 354 353 351 350 350 349 349 350 348 348
308 309 309 307 309 309 309 310 310 309 310 319 328 331 330 331 332 335 338 341 343 346 353 354 355 353 353 353 356 355 355 354 353 354 355 352 352 350 350 353 351 351 346 346
304 308 308 304 307 308 310 311 311 311 322 327 326 331 332 333 336 336 335 336 342 344 346 353 357 357 354 355 359 357 357 355 353 355 353 355 353 350 351 352 353 352 350 347
304 306 297 312 319 315 312 318 320 324 324 326 327 333 334 336 337 338 342 344 341 341 346 347 352 358 358 357 361 358 358 354 354 354 352 353 353 352 352 353 350 350 349 347
302 302 307 313 317 315 313 317 324 323 325 327 327 332 333 336 338 340 344 346 348 342 343 348 346 355 358 358 357 356 356 354 353 353 352 352 352 355 354 351 349 349 349 346
305 300 298 314 320 325 323 312 325 326 326 327 330 318 328 334 336 338 343 346 349 349 348 346 348 356 360 357 355 354 355 353 353 353 352 352 353 354 354 350 348 346 346 344
302 300 304 318 320 324 308 313 324 325 325 326 324 327 332 333 333 335 337 343 346 352 349 356 355 361 358 356 355 357 355 354 354 354 354 353 356 354 350 349 347 347 343 344
304 301 298 321 318 315 319 324 323 324 325 325 327 329 330 331 333 334 335 337 343 344 349 357 359 359 359 357 358 358 356 354 353 353 350 351 353 352 349 347 345 342 342 341
313 311 321 322 320 322 322 321 322 323 324 325 325 327 329 329 331 333 335 337 340 342 344 349 355 356 353 357 358 357 356 354 353 352 351 350 348 345 341 342 340 340 337 337
309 316 318 321 322 323 323 322 323 324 325 325 324 325 326 328 329 331 332 334 337 340 343 346 350 352 350 346 340 348 340 339 342 344 344 344 344 342 340 339 339 337 336 336
313 314 316 319 321 322 322 323 323 325 325 326 325 326 327 327 331 331 332 335 337 337 341 344 347 345 346 342 345 341 342 338 340 341 341 340 342 340 340 339 333 336 336 336
307 318 316 320 322 322 321 322 324 324 325 328 327 324 327 324 328 328 328 329 332 335 340 342 343 343 344 346 344 341 337 338 337 338 339 340 339 335 312 312 308 305 302 312
316 319 319 320 321 321 320 322 325 325 327 326 325 328 325 324 327 326 329 326 324 326 332 337 340 341 343 346 344 345 340 343 339 335 338 334 332 331 330 318 304 301 302 302
319 317 313 317 317 320 321 322 323 327 329 328 327 329 329 324 321 322 324 327 325 323 321 322 321 321 326 333 341 339 340 320 337 332 331 329 329 330 326 329 328 328 305 307
315 318 316 318 319 320 322 323 322 323 326 325 328 327 326 322 318 318 320 321 324 323 321 320 318 319 323 324 323 324 326 327 329 330 328 326 330 330 327 327 326 326 331 308
317 315 316 316 318 319 320 320 322 323 326 325 325 326 324 323 320 316 316 316 316 313 316 320 318 318 323 325 324 323 322 320 320 322 325 329 327 326 325 326 329 331 327 324
314 312 315 315 317 318 321 323 323 322 323 324 325 325 324 323 323 321 318 314 314 315 317 318 318 320 321 323 324 325 323 324 323 323 321 326 326 325 325 325 328 328 328 320
319 319 319 319 318 319 322 321 320 321 321 323 325 325 324 323 321 321 322 321 323 321 320 321 321 321 325 324 321 322 323 324 325 325 325 324 324 326 325 324 325 325 328 326
320 319 319 318 319 319 320 320 320 320 321 322 321 320 322 321 321 321 321 319 319 320 317 319 318 321 321 320 320 322 321 321 320 320 321 319 322 323 324 325 326 325 324 320
319 319 319 318 319 317 318 320 321 322 322 322 322 320 320 320 320 319 318 313 314 315 319 319 319 319 320 320 319 320 319 320 321 321 322 322 322 323 322 316 318 318 319 322
318 319 317 317 317 318 318 321 320 319 320 321 320 319 317 316 315 315 313 311 316 318 317 317 318 318 318 317 319 318 318 318 318 318 321 320 321 320 320 319 320 319 318 317
319 319 319 319 320 320 320 321 321 321 320 320 318 318 316 313 313 314 314 313 315 309 314 317 317 313 316 313 318 317 316 316 315 315 316 318 317 317 317 316 314 315 315 315
320 318 320 319 319 321 321 321 321 319 318 317 316 313 313 315 315 312 310 316 315 313 315 317 310 309 310 317 316 316 315 316 317 317 317 316 315 314 315 315 315 315 314 313
318 320 321 322 321 321 318 319 319 318 317 317 318 318 319 314 313 314 314 309 309 309 315 314 313 308 307 317 317 317 316 316 316 316 316 308 315 314 314 313 312 312 312 310
317 318 317 319 319 320 321 320 318 318 317 317 318 319 319 318 316 313 313 313 306 309 313 303 308 309 316 314 314 314 314 314 313 313 313 312 311 310 310 311 311 311 310 310
318 315 317 322 322 322 320 317 315 314 315 314 315 316 315 314 314 315 315 312 314 310 315 315 315 314 314 314 314 313 312 312 313 312 311 312 312 312 311 311 311 311 311 311
319 311 317 320 322 322 319 315 313 312 312 313 313 315 314 314 314 313 309 314 315 314 314 315 314 312 314 315 314 314 313 313 305 313 313 313 313 313 313 312 313 314 312 311

GFSNGP_sfc_thetae_072.txt.gz
Theta_e
308 308 307 307 307 308 306 308 304 308 314 318 316 316 322 337 343 340 336 340 348 352 355 357 356 355 353 354 354 357 357 355 356 354 355 352 353 354 354 352 350 349 346 346
307 309 309 306 308 309 309 308 308 309 314 320 321 326 329 332 337 338 340 340 346 353 355 356 356 355 354 355 356 359 357 356 358 358 352 350 351 353 353 352 354 354 350 345
304 306 306 302 308 310 309 311 312 309 319 324 326 329 330 334 335 335 335 338 342 346 352 361 359 358 356 357 361 360 358 356 357 357 356 354 353 353 351 351 354 353 352 347
304 309 297 307 316 318 315 320 323 320 317 315 328 333 333 337 336 338 341 343 345 343 348 356 357 361 360 359 360 359 358 354 356 356 352 352 351 352 353 354 353 352 351 350
302 301 305 309 311 312 316 315 323 312 320 325 330 331 330 335 337 338 341 344 349 349 347 352 353 359 360 357 355 355 357 357 353 355 353 351 351 352 353 354 352 350 351 349
305 299 297 308 310 312 316 312 323 325 324 325 328 322 326 333 333 334 337 343 344 349 352 354 361 358 354 357 355 353 356 354 354 356 354 352 352 353 355 353 350 348 348 349
302 299 303 317 316 320 303 312 323 324 324 324 322 326 330 332 333 335 337 339 342 344 348 354 358 360 358 359 353 359 358 353 350 354 354 353 353 354 353 351 348 349 346 347
305 301 298 321 320 315 321 324 322 323 323 323 326 328 329 330 330 333 334 336 339 342 346 350 353 355 352 350 352 354 352 350 346 352 351 351 352 351 351 349 348 345 345 344
312 311 322 321 320 322 324 321 321 322 324 324 324 324 326 327 330 330 333 334 337 337 340 347 352 354 352 343 335 334 324 323 343 348 351 353 351 349 347 348 344 342 340 338
311 318 319 319 321 322 322 321 322 323 324 324 322 325 326 327 328 330 331 332 334 336 339 341 348 351 347 338 339 328 323 322 340 343 347 349 344 347 343 340 340 343 341 337
310 317 317 320 321 321 322 325 323 323 324 324 325 325 327 328 328 327 327 326 326 327 330 336 340 348 344 345 339 330 332 335 338 341 339 339 343 343 342 326 335 340 341 337
307 317 314 320 321 320 320 320 322 321 322 328 327 326 327 326 328 327 325 324 322 322 322 325 332 332 335 344 344 339 338 336 337 338 338 339 339 333 318 317 307 303 302 320
314 314 321 319 321 321 319 318 321 321 324 326 328 326 326 325 326 323 326 324 321 321 320 321 321 322 323 327 331 335 336 338 338 332 335 335 339 336 325 318 303 299 300 302
321 320 316 317 314 317 319 320 320 323 326 328 328 328 327 325 324 325 323 325 325 323 321 319 319 320 322 323 322 322 320 317 330 329 330 329 333 332 328 325 321 323 304 306
315 316 314 317 319 319 320 319 319 321 326 326 328 326 325 323 321 322 322 321 319 319 318 318 316 316 321 323 320 320 319 318 318 319 321 323 327 326 323 324 329 330 321 308
316 314 314 316 316 318 320 322 322 322 324 324 325 324 322 322 321 321 322 322 318 315 315 316 317 318 320 324 322 321 321 316 315 317 317 318 321 324 324 324 324 326 327 324
311 311 315 312 316 318 321 322 323 321 322 323 323 323 323 322 322 321 321 321 321 320 319 321 319 321 325 325 324 326 324 321 317 318 317 318 322 323 324 323 325 325 323 320
315 316 317 319 319 320 319 319 319 318 315 320 321 322 323 323 322 323 323 323 322 320 320 320 318 320 322 321 319 320 322 325 323 320 321 321 321 322 323 323 324 324 323 315
317 319 319 319 321 320 321 319 318 318 317 317 319 320 320 319 319 321 320 319 318 318 317 320 319 321 321 320 319 321 320 321 322 324 323 319 323 324 323 324 324 323 322 319
317 319 319 319 320 320 319 320 322 319 321 322 322 320 319 319 319 318 317 314 315 316 318 318 319 319 320 321 319 319 318 319 320 321 320 322 322 318 318 313 318 320 320 318
318 319 319 320 318 320 319 320 321 321 321 319 319 318 318 317 316 315 313 311 317 318 317 317 318 317 318 317 318 318 318 319 319 320 321 322 320 318 317 317 318 315 315 316
319 318 319 319 317 317 321 321 321 319 319 319 319 318 316 314 314 315 316 314 316 310 315 318 316 313 315 313 318 317 316 316 317 318 318 318 317 316 316 315 314 315 315 315
319 320 320 320 318 321 322 321 318 320 319 319 317 315 315 315 315 313 311 316 316 312 315 317 311 311 313 316 317 318 317 317 317 315 316 316 316 316 315 315 314 313 314 313
317 318 318 320 321 321 319 320 319 319 319 317 317 318 318 315 314 314 312 309 309 309 314 314 313 310 307 314 316 316 315 316 316 317 316 308 314 314 314 313 312 312 311 309
318 318 318 317 317 318 321 321 319 318 318 317 318 319 320 319 319 313 314 312 305 308 312 305 308 308 313 313 314 314 314 314 313 313 312 312 310 310 311 312 311 312 312 311
320 316 316 320 319 321 320 319 316 316 316 315 316 317 318 315 314 314 315 311 313 310 314 315 314 314 314 313 313 312 311 311 312 311 311 312 312 311 310 310 310 310 311 311
320 312 317 318 320 321 321 317 315 314 314 316 314 316 316 314 313 312 310 313 314 314 314 314 313 312 313 313 313 312 312 313 306 312 312 312 313 313 313 312 312 313 313 313

GFSNGP_sfc_thetae_075.txt.gz
Theta_e
303 306 306 304 304 304 302 300 299 301 309 310 313 315 329 329 323 330 333 335 337 340 340 345 343 344 346 347 350 350 349 347 347 346 346 345 344 344 342 342 342 343 342 340
303 307 306 305 308 308 310 311 308 310 311 314 317 320 327 321 328 334 334 338 343 346 345 345 345 344 346 346 346 350 349 348 349 347 347 345 344 343 341 340 340 338 337 337
298 305 304 299 312 314 314 312 314 308 314 321 323 326 326 328 332 334 338 341 339 338 340 347 346 345 345 346 348 350 349 349 350 347 345 343 343 344 341 338 339 338 338 337
298 302 293 304 313 317 311 314 315 313 316 321 323 325 327 330 331 334 337 339 340 341 342 339 342 349 348 352 350 350 349 349 349 349 344 345 343 343 340 339 339 340 338 337
296 295 301 310 308 309 308 304 316 313 313 320 319 320 323 329 330 330 332 339 339 340 343 347 350 353 351 349 351 351 351 349 350 348 347 343 341 340 341 341 340 339 339 338
298 294 293 308 310 314 312 302 317 319 313 320 312 307 315 328 330 331 332 334 337 338 338 340 343 347 348 345 347 347 352 351 351 349 346 343 341 342 342 342 340 339 337 337
298 296 305 313 312 315 300 304 321 321 321 321 310 316 326 329 328 328 330 330 332 332 336 338 341 344 344 343 340 343 346 338 328 325 326 340 342 342 341 341 338 336 337 335
300 296 294 317 315 310 314 318 320 320 319 320 322 324 325 327 324 326 327 328 329 329 331 336 340 342 340 339 334 334 330 327 325 323 329 328 328 336 339 336 335 336 334 336
302 303 314 317 315 319 319 316 318 319 319 319 319 322 324 322 324 325 323 321 323 323 325 329 334 334 337 332 332 327 326 322 325 323 328 326 325 327 337 338 336 334 333 331
306 312 314 316 318 319 319 318 319 321 321 321 320 321 322 323 322 321 321 320 321 322 320 321 327 328 339 334 328 323 319 319 322 325 330 322 324 330 336 335 333 332 332 329
307 312 316 313 316 319 321 322 320 320 323 323 322 322 323 322 322 321 320 319 318 317 319 320 321 321 324 330 326 322 321 320 321 323 324 334 333 331 333 325 327 330 330 330
303 310 308 308 316 320 316 316 318 316 322 325 324 322 322 320 321 321 318 317 316 316 316 317 319 319 321 323 326 333 329 327 327 326 332 332 326 323 312 315 309 308 312 317
313 314 312 312 315 319 316 317 319 316 322 323 324 322 321 318 319 320 319 318 316 315 315 316 317 319 320 321 321 320 319 324 328 325 328 327 328 324 321 316 303 299 299 303
317 316 314 314 310 314 316 319 319 322 325 323 323 324 321 320 319 318 317 318 318 316 315 315 315 314 320 321 320 319 318 313 318 318 322 324 324 326 323 320 316 315 303 303
316 316 310 314 316 319 321 322 321 320 322 322 322 322 321 317 316 316 316 316 315 314 314 315 315 315 318 322 320 319 318 318 318 318 317 317 320 322 323 322 320 319 312 305
313 312 314 315 318 319 319 321 318 318 320 320 319 319 318 318 316 316 316 316 312 311 316 315 313 315 321 321 321 320 318 316 316 318 319 320 321 321 321 321 322 323 320 319
307 308 312 315 317 317 317 319 318 316 317 316 317 318 319 319 318 318 317 317 316 314 314 313 313 315 317 315 314 317 320 319 316 316 318 320 321 321 321 321 321 322 321 316
312 312 315 318 317 314 316 317 316 315 314 315 317 317 318 319 317 317 316 317 316 316 316 317 313 315 317 315 314 314 315 317 319 317 316 318 318 320 320 321 322 321 320 318
318 317 318 319 318 318 317 316 315 315 317 317 315 314 316 317 317 315 314 312 310 310 312 314 317 318 315 317 316 315 315 316 317 318 320 317 318 319 320 320 319 318 318 317
318 319 319 319 319 313 312 315 319 317 318 317 317 316 314 314 314 312 311 309 309 311 312 313 316 316 315 317 318 313 314 316 316 315 316 315 315 315 314 311 315 315 314 314
318 319 318 317 315 314 316 317 315 317 318 318 315 314 311 311 311 310 308 308 311 314 309 315 315 315 315 312 314 313 313 313 313 315 317 314 313 313 315 314 315 314 314 314
317 317 317 315 312 312 313 312 313 318 317 317 316 314 311 309 310 312 314 311 313 310 312 315 313 312 312 312 312 312 313 313 314 314 314 313 311 311 311 312 311 311 309 308
316 317 317 317 316 315 313 318 314 317 316 315 312 310 309 310 309 308 307 311 312 310 309 312 309 311 311 308 312 313 312 314 312 312 312 312 312 312 311 309 307 307 307 307
314 315 314 315 316 317 314 316 317 316 315 315 312 312 311 311 313 309 306 306 307 306 308 309 310 309 308 309 310 312 312 312 312 310 310 305 307 307 307 307 303 303 302 302
316 315 316 315 313 315 316 317 316 315 315 314 313 314 314 316 312 310 308 306 305 304 307 307 307 307 306 309 310 309 307 306 307 310 306 305 303 304 305 304 304 304 304 304
317 316 316 316 316 317 317 316 314 315 315 313 314 315 314 313 309 310 310 309 309 306 307 309 308 308 307 306 305 304 304 305 305 303 305 304 303 303 302 302 302 303 304 304
319 312 316 315 319 319 317 315 312 311 313 313 311 313 314 311 309 310 308 309 308 309 308 308 307 307 309 306 306 306 307 304 302 304 306 306 306 306 306 306 306 306 305 307

GFSNGP_sfc_thetae_078.txt.gz
Theta_e
301 305 305 303 303 308 302 302 295 296 303 308 314 312 314 319 324 327 324 325 330 334 336 340 340 343 347 347 346 349 347 346 345 345 344 343 343 341 340 339 339 338 338 339
299 306 312 311 314 313 310 309 310 308 305 315 316 317 317 318 320 323 326 333 332 332 333 329 336 340 345 346 346 348 346 346 346 345 344 343 341 340 340 338 338 338 339 339
294 302 303 303 310 310 311 312 309 306 310 318 320 322 323 326 326 332 335 329 327 331 330 331 324 330 342 344 348 347 347 346 346 346 344 343 343 341 339 336 336 335 334 334
294 297 292 306 314 313 309 310 314 311 313 317 319 321 324 325 326 330 333 334 335 332 333 338 340 345 347 347 346 346 346 347 347 348 342 340 339 335 339 336 336 334 334 335
293 294 302 307 309 308 309 307 315 315 317 316 318 318 318 325 327 327 328 329 332 333 337 336 337 342 345 343 346 346 347 346 347 342 329 330 329 327 330 334 335 336 336 335
295 293 291 304 310 314 312 302 316 318 314 314 316 306 309 319 327 326 327 327 327 329 332 332 335 338 341 339 336 335 339 345 338 335 332 325 320 324 326 325 324 338 337 336
294 293 302 311 312 314 296 299 314 315 316 316 312 311 315 325 325 325 323 321 323 323 325 327 331 332 335 334 331 332 333 331 329 333 333 326 325 326 324 324 324 336 335 334
294 294 293 314 314 308 310 314 314 316 319 319 315 318 320 324 321 320 318 320 322 321 321 324 327 328 328 332 330 329 326 325 325 328 331 329 326 326 321 324 323 334 333 333
298 299 310 312 312 319 316 314 315 316 319 320 318 322 323 321 319 318 318 318 319 319 318 321 323 324 325 331 330 324 321 320 319 323 327 327 325 324 323 322 330 334 333 331
301 308 311 311 316 319 319 316 317 319 319 320 318 321 320 319 318 317 317 317 317 315 316 317 320 321 321 324 330 321 319 317 319 320 321 320 323 323 322 323 324 331 331 330
303 311 311 313 314 317 318 319 319 322 322 320 321 320 319 318 316 316 315 315 315 314 314 315 319 318 319 321 324 326 319 318 320 319 325 321 321 319 322 328 331 332 333 332
301 310 311 310 314 318 316 316 316 320 320 323 322 319 318 317 317 317 314 314 313 312 313 315 316 317 318 319 320 320 326 327 324 327 325 328 324 321 309 306 308 308 310 322
308 312 310 312 314 317 315 313 317 315 321 320 319 318 317 316 316 317 319 318 313 312 312 312 312 312 316 318 317 317 316 318 319 322 323 325 325 322 317 312 303 301 301 303
312 313 310 312 310 314 316 322 321 323 322 321 320 319 318 317 315 315 313 315 313 312 311 312 312 312 314 319 320 318 318 312 317 318 320 321 323 325 323 320 316 313 298 298
312 314 310 312 316 318 319 319 317 317 318 318 318 317 316 314 312 312 313 313 312 311 312 312 310 312 315 318 319 317 316 317 318 319 318 316 322 323 323 322 317 310 307 302
310 312 312 314 315 316 316 316 314 314 315 315 315 316 315 314 314 313 314 313 310 308 311 310 309 311 313 312 313 318 318 315 315 318 319 320 319 321 322 322 319 318 318 312
302 305 310 311 313 313 314 315 314 314 314 314 315 317 318 317 316 316 316 315 313 312 311 310 310 311 313 312 309 310 313 319 315 317 318 319 319 319 319 321 322 320 320 317
304 305 312 314 311 313 314 314 313 312 311 313 312 312 311 314 315 314 312 311 312 310 310 312 311 312 313 312 311 310 311 311 314 315 315 317 318 320 320 320 321 321 319 313
315 316 316 316 314 313 312 312 311 312 313 313 310 309 311 312 313 311 311 308 307 305 307 310 316 316 312 314 315 311 312 312 312 313 314 314 317 318 320 320 320 320 320 317
315 315 313 313 313 313 313 314 314 313 314 313 312 312 310 309 309 309 308 306 306 308 308 311 314 314 310 311 316 310 311 311 312 312 311 312 313 312 310 308 313 314 315 314
314 315 313 312 311 313 311 312 314 314 315 315 312 309 307 307 307 306 306 305 308 310 309 314 313 313 311 310 310 309 310 310 314 311 309 309 311 312 312 313 312 313 313 312
312 311 310 310 309 309 310 309 311 314 315 313 312 310 307 305 305 305 307 306 308 310 310 312 309 311 309 311 310 313 313 313 313 313 312 312 312 311 311 312 312 312 311 311
310 311 312 309 308 308 309 311 310 311 312 313 309 307 306 305 305 303 303 308 306 306 305 309 309 310 309 306 306 308 310 310 311 311 311 311 311 310 309 309 308 307 306 305
307 308 308 309 311 310 308 310 312 312 312 311 309 308 306 306 307 306 304 305 305 304 304 307 308 308 307 307 306 305 307 309 307 307 308 303 305 305 304 304 303 301 300 300
308 308 309 308 307 309 309 310 310 310 310 308 309 309 310 310 309 303 303 303 304 302 303 305 306 306 304 306 307 309 305 306 313 309 306 302 302 302 301 301 300 300 300 300
309 309 312 312 312 312 313 310 308 308 309 310 308 310 312 314 306 305 303 303 303 304 303 303 304 305 302 302 300 301 301 304 302 301 300 301 301 301 301 300 301 301 301 302
310 306 311 308 312 313 312 310 309 308 309 310 308 308 310 307 304 305 303 305 305 305 304 304 304 303 302 302 302 303 302 302 301 302 302 301 301 300 300 300 301 302 301 301

GFSNGP_sfc_thetae_081.txt.gz
Theta_e
299 302 308 303 306 302 301 299 295 301 304 313 313 313 314 318 323 323 325 329 331 330 329 331 330 331 337 343 343 345 344 343 344 344 344 343 341 340 338 337 336 335 334 334
296 303 308 309 311 311 310 309 310 311 310 319 320 322 321 320 326 327 322 326 329 330 328 329 329 328 333 337 343 342 343 344 343 343 342 341 339 334 336 335 335 336 335 335
290 300 302 299 308 309 309 310 311 306 311 318 316 319 321 322 326 330 327 325 327 324 326 327 330 332 335 341 344 342 344 346 345 341 340 333 330 330 328 328 330 332 333 334
292 298 292 305 312 312 310 310 311 313 315 315 315 315 320 325 324 325 329 331 327 326 325 327 331 338 342 342 344 343 343 344 342 341 333 331 330 329 327 328 327 327 325 330
292 295 300 307 307 307 305 307 316 314 315 315 317 315 314 323 326 326 327 327 329 331 332 336 336 337 340 341 339 343 342 344 343 338 333 330 329 329 329 326 325 327 326 324
294 292 292 300 311 314 312 301 317 317 314 314 314 305 310 320 327 326 325 325 326 330 331 330 331 331 335 335 334 332 335 339 342 335 332 328 327 328 328 325 322 324 324 324
295 293 299 310 313 313 295 299 316 315 315 315 309 311 316 324 324 324 322 321 322 322 322 324 325 326 327 332 330 330 331 331 333 333 331 328 325 323 320 324 326 321 322 323
293 292 290 313 313 304 307 310 313 314 315 313 314 317 322 320 319 319 319 319 320 319 318 319 323 324 323 326 327 328 324 325 324 327 329 330 325 323 321 320 319 319 322 326
295 301 307 310 309 314 314 314 314 315 318 317 318 320 320 317 316 316 316 316 317 317 317 319 319 319 318 320 323 327 322 318 318 318 320 325 321 319 320 319 320 323 327 331
301 304 308 310 313 315 315 314 317 319 320 319 319 319 317 316 315 314 314 313 314 315 314 314 317 317 317 319 321 323 322 318 316 316 317 318 318 321 320 319 320 322 328 329
306 306 309 310 313 313 315 319 320 321 320 319 319 316 317 314 313 314 313 312 312 313 314 315 316 317 318 318 318 318 322 324 318 319 318 326 321 317 322 321 317 321 324 325
299 306 305 306 313 317 315 315 318 318 318 321 319 317 317 315 314 314 313 312 310 310 310 310 310 311 313 316 315 315 316 318 319 322 327 327 324 313 304 303 303 307 304 314
307 312 310 310 314 316 314 314 315 317 319 317 317 317 316 314 313 315 314 312 309 309 309 309 309 310 312 314 315 314 314 316 318 317 322 323 323 323 316 306 299 298 303 303
311 311 309 313 309 313 315 321 319 319 320 318 317 318 315 314 312 312 311 312 311 310 309 309 308 310 312 314 314 314 316 311 315 318 319 320 323 323 320 318 314 308 301 299
311 313 311 310 315 316 318 317 316 315 316 315 316 315 315 312 310 310 310 311 311 310 311 310 308 308 311 312 309 311 315 314 317 318 319 318 321 323 320 314 311 308 310 304
308 310 311 314 314 314 314 314 312 312 313 313 313 313 314 313 312 310 311 311 309 308 310 309 307 308 310 311 308 309 311 315 314 317 319 319 320 320 318 316 316 314 312 310
305 306 310 311 311 310 311 312 313 312 313 312 313 313 313 313 312 314 317 316 313 310 313 308 308 309 310 310 308 308 309 310 314 316 317 319 320 319 320 317 317 318 317 315
306 309 312 312 311 312 312 313 313 313 311 311 310 310 309 310 309 310 308 312 309 307 307 308 309 310 311 310 310 308 308 309 310 314 315 314 318 319 320 321 319 319 318 311
310 310 313 312 313 313 311 310 310 311 310 311 309 308 308 310 309 308 307 306 307 306 306 308 313 315 308 310 314 309 309 311 311 311 312 313 314 317 318 319 321 320 317 317
313 313 313 313 313 312 311 312 311 311 312 313 310 311 308 308 308 306 304 303 305 307 309 308 312 312 308 308 313 307 308 309 310 309 310 310 310 312 314 312 319 318 316 315
312 311 310 310 310 312 312 310 311 311 313 313 312 310 309 307 305 303 302 301 305 307 309 312 312 309 307 309 309 312 309 312 312 308 309 311 309 309 309 313 314 312 312 312
308 309 309 308 308 307 308 309 307 311 311 311 311 310 307 304 302 303 304 305 306 307 308 310 307 310 310 311 309 309 311 312 312 312 313 312 312 312 311 311 312 312 312 311
309 309 307 307 306 306 307 308 308 310 310 310 309 307 305 303 303 302 302 304 305 304 304 305 308 310 309 306 303 303 308 310 311 310 310 310 310 310 312 311 310 310 308 307
305 306 306 308 308 308 307 307 309 308 308 308 307 306 304 304 305 306 305 304 304 303 302 306 306 306 306 304 303 303 305 307 306 306 306 302 306 305 304 305 304 303 303 302
306 305 307 305 304 306 308 307 308 308 307 306 306 306 307 307 307 307 301 301 303 302 301 303 304 305 301 302 305 304 301 310 311 306 304 303 302 302 302 301 301 302 300 301
307 306 307 309 308 309 308 307 307 307 307 307 307 307 308 309 306 304 302 302 301 301 301 301 301 302 301 300 299 300 300 302 308 306 302 302 301 300 301 300 299 299 299 300
307 303 307 310 310 310 309 309 307 307 307 307 307 308 308 308 306 303 302 303 303 303 303 303 302 302 300 301 300 300 300 300 299 300 300 300 300 300 300 300 300 300 300 300

GFSNGP_sfc_thetae_084.txt.gz
Theta_e
297 299 302 303 307 309 299 294 293 296 302 311 313 316 320 326 323 324 327 328 328 329 330 328 328 333 336 340 343 344 341 341 341 343 345 344 343 341 340 339 339 339 338 339
296 301 302 304 304 304 309 309 310 310 308 318 320 322 324 326 324 322 322 322 324 327 329 330 330 331 335 337 334 334 332 332 331 340 343 342 339 338 338 339 338 338 337 337
289 297 300 299 305 306 309 309 308 303 311 318 317 317 321 321 323 324 326 325 325 326 327 327 330 330 335 338 335 332 329 329 331 332 339 338 337 336 337 336 336 337 338 337
289 293 286 301 310 311 309 311 313 314 313 313 313 315 319 322 322 322 324 325 327 327 328 334 335 336 339 343 332 331 327 327 330 332 338 335 334 335 336 336 334 335 336 334
288 289 295 306 305 304 304 306 314 311 313 313 314 315 315 321 325 322 323 324 326 328 329 329 327 329 336 337 338 335 328 326 330 339 335 333 332 331 333 334 334 335 333 331
291 289 290 301 309 312 312 300 315 314 313 314 315 306 309 319 325 321 321 322 322 323 323 322 323 325 328 330 330 329 332 333 335 342 335 333 333 332 334 332 331 330 330 327
293 291 299 310 312 314 296 298 314 314 314 315 309 310 317 323 320 320 320 319 321 319 318 320 323 324 324 324 322 326 331 329 330 335 335 334 330 328 325 328 328 325 325 325
291 292 291 310 312 304 307 312 314 315 315 313 318 319 319 318 318 318 316 317 319 318 318 319 319 318 317 317 321 324 328 326 324 324 329 331 328 328 326 325 324 325 323 323
295 296 307 309 309 313 314 315 316 316 318 316 319 317 317 315 315 316 316 316 317 316 315 316 317 317 315 316 318 321 325 325 322 321 322 323 325 325 324 323 321 322 322 322
300 304 307 310 312 314 315 314 317 318 319 321 318 318 315 314 313 313 314 313 315 315 315 315 316 317 318 318 318 317 318 321 324 321 320 324 322 323 324 322 321 322 324 326
301 307 309 311 312 313 313 316 320 320 320 320 319 317 316 314 313 313 313 313 313 313 313 312 313 314 316 317 317 316 316 317 319 321 324 325 325 317 319 323 317 323 324 327
299 305 305 306 311 316 313 314 314 317 318 321 319 318 316 314 315 314 312 312 311 311 311 312 313 314 315 316 317 316 316 316 316 318 320 324 325 318 303 301 298 297 300 314
307 311 311 311 314 316 313 314 315 318 320 319 319 318 317 315 315 314 314 312 311 311 311 311 311 312 314 315 315 314 315 316 316 317 320 319 320 323 321 309 299 296 295 298
313 313 311 312 310 315 315 321 319 320 320 318 318 317 316 315 315 315 314 313 313 313 313 312 311 311 313 314 313 311 313 309 316 318 320 320 320 323 321 317 316 309 300 299
312 315 312 313 317 318 320 318 316 316 316 316 317 316 315 313 312 312 313 313 313 312 313 313 312 311 312 314 313 311 312 314 316 318 320 318 321 320 317 313 310 309 310 302
310 312 312 311 315 315 314 314 313 313 314 315 315 315 315 313 312 312 313 314 313 312 313 312 311 312 312 313 312 312 313 311 312 316 318 318 320 319 317 316 315 314 313 312
308 308 310 311 312 311 312 312 312 313 313 313 314 314 314 315 314 314 315 317 316 315 313 312 311 312 312 313 312 313 312 312 312 315 317 318 321 320 318 318 318 316 316 313
309 310 313 313 312 309 313 313 313 314 312 313 311 311 311 313 312 312 312 311 312 311 311 310 311 313 313 312 314 313 311 312 313 314 316 317 319 322 320 319 319 318 316 310
310 307 312 314 312 313 314 312 313 313 312 312 311 310 310 312 312 311 309 308 307 307 309 311 313 314 312 312 315 312 311 312 313 314 315 313 317 319 320 320 319 318 318 316
313 313 312 313 314 313 311 312 313 312 312 313 312 311 312 311 310 308 307 306 306 308 310 311 313 313 312 312 313 313 312 312 313 312 313 315 315 315 317 311 318 317 316 314
311 312 311 312 312 312 312 312 312 312 313 314 312 312 313 311 308 307 306 305 309 309 310 312 313 312 311 312 310 310 313 314 313 312 313 312 313 313 315 315 314 313 313 312
310 309 309 309 308 308 309 311 309 309 312 313 313 312 310 308 306 306 307 306 310 306 308 309 311 311 312 311 307 307 311 313 313 313 314 314 314 313 313 313 312 312 312 312
309 309 309 309 308 308 308 309 310 312 312 311 311 310 308 308 307 306 306 308 309 308 306 308 308 309 309 308 307 308 311 311 311 311 311 311 313 314 313 313 312 312 312 309
306 308 308 309 309 309 308 310 310 310 310 311 310 309 308 307 308 308 309 306 304 303 305 306 306 305 304 307 307 309 311 312 310 310 310 304 311 311 312 311 309 310 310 307
307 306 307 307 306 307 308 309 309 310 310 310 309 310 309 309 309 311 308 305 302 304 305 303 303 304 306 304 307 308 308 311 312 311 310 309 309 310 310 310 310 309 309 309
309 307 307 308 308 310 310 309 309 310 309 309 310 310 310 310 310 309 308 304 306 303 305 306 306 307 306 305 305 305 305 306 311 311 309 309 309 309 309 308 308 308 308 308
307 302 308 309 311 308 309 309 309 309 309 310 310 312 311 311 311 309 304 307 306 306 307 307 307 306 307 306 306 306 306 306 302 311 310 308 308 308 308 307 307 309 307 307

GFSNGP_sfc_thetae_087.txt.gz
Theta_e
303 304 304 303 305 308 306 309 303 304 304 314 316 321 323 325 327 328 329 330 330 330 330 329 327 327 329 340 348 349 348 349 346 348 351 353 353 354 355 355 353 352 351 350
301 303 303 302 306 306 307 308 309 312 309 318 319 323 323 326 327 326 327 328 329 329 329 328 329 324 332 338 336 345 346 340 344 344 344 343 345 348 354 353 352 351 349 349
297 302 301 299 307 309 305 308 310 306 314 319 319 320 320 321 324 324 325 326 327 332 331 329 332 332 332 340 339 336 337 336 339 339 338 337 338 341 345 351 352 350 350 350
297 301 292 307 313 309 307 310 313 314 318 321 321 324 325 328 325 326 328 328 326 327 328 328 330 333 339 343 340 336 335 334 335 336 335 334 333 335 338 344 350 351 350 350
296 296 300 308 308 305 305 306 312 312 314 314 318 320 319 324 327 326 326 325 325 325 325 326 327 331 336 334 338 336 336 337 336 336 335 334 334 335 338 343 348 349 346 345
300 294 292 306 309 315 313 300 311 316 316 317 320 312 317 325 325 323 324 325 322 325 326 324 324 330 329 327 330 329 333 336 337 337 341 340 337 338 339 342 344 343 340 340
300 298 304 312 314 316 300 303 315 317 317 318 316 317 323 324 322 321 322 323 324 324 320 320 323 324 323 324 325 329 333 336 335 333 336 337 337 336 333 331 332 334 335 337
301 298 296 314 313 306 313 319 318 319 319 319 322 324 322 321 320 319 320 320 321 321 320 321 320 321 320 319 321 326 329 333 334 332 331 335 333 331 329 330 329 328 329 331
304 305 313 315 314 319 321 319 321 323 322 324 322 320 320 320 320 319 319 319 320 321 321 322 322 322 319 319 321 322 324 325 329 332 331 332 332 332 331 333 331 331 331 331
307 311 313 314 317 317 318 322 325 325 324 326 323 322 320 320 319 319 319 319 320 321 321 320 323 323 323 324 323 322 321 320 322 323 324 332 332 332 330 329 328 325 323 323
309 313 315 316 317 317 320 324 324 325 326 325 324 321 321 320 319 319 319 320 320 319 320 320 323 322 323 324 323 322 325 325 323 321 323 326 329 328 326 328 323 325 324 327
307 313 314 313 318 319 318 318 321 323 324 326 325 323 322 321 321 321 319 320 320 319 319 320 320 321 322 324 323 321 320 322 321 321 324 324 325 326 305 304 300 298 297 305
313 317 317 317 318 319 317 319 321 321 324 324 325 326 324 323 323 319 320 319 318 318 320 321 321 320 321 322 322 320 319 322 321 321 325 323 322 324 325 303 298 297 297 296
317 317 316 316 316 321 319 324 324 325 325 325 324 325 325 324 322 322 321 319 320 320 321 322 321 320 321 321 322 320 320 311 321 322 324 325 322 324 322 320 318 314 303 298
316 318 318 319 323 323 323 321 319 320 321 322 324 323 323 322 322 321 321 320 321 320 321 322 321 320 321 321 321 320 319 319 320 322 324 322 327 324 323 320 316 316 314 304
317 317 318 317 320 321 317 317 317 319 320 322 322 322 321 320 319 319 321 322 322 321 323 322 320 319 321 321 320 319 320 315 315 322 323 324 326 322 322 319 319 319 317 316
314 313 315 315 319 318 316 317 317 319 320 320 320 321 320 321 322 322 323 322 322 321 322 320 318 320 320 320 320 319 319 319 315 322 323 324 325 321 320 319 319 318 318 314
316 316 319 319 320 317 317 318 319 320 320 320 318 318 318 319 320 321 320 320 318 317 318 318 319 318 319 320 319 320 319 319 320 321 322 323 326 326 321 321 320 320 317 312
318 316 318 320 320 318 319 319 319 320 320 319 317 316 318 320 319 320 318 316 315 314 316 318 316 316 318 318 317 319 320 320 321 322 323 319 325 325 325 320 320 318 317 315
316 317 319 320 320 319 318 319 320 319 320 320 319 318 316 318 318 317 315 315 316 315 318 318 316 316 316 316 315 318 320 321 320 322 321 321 318 319 321 312 318 317 315 314
317 318 318 318 317 318 318 318 317 316 318 320 320 320 320 321 319 316 315 312 316 317 316 314 316 315 316 315 313 314 317 318 319 320 320 321 320 316 317 318 318 315 313 315
317 316 316 316 316 316 317 319 318 316 319 319 319 319 319 318 317 316 317 315 315 308 314 315 317 315 316 311 315 318 315 316 317 317 316 316 320 319 315 315 316 318 316 314
317 317 317 317 318 318 318 320 319 319 320 320 319 318 316 316 317 314 313 318 317 312 315 315 311 308 308 314 317 318 319 315 314 316 315 316 316 315 316 317 317 317 313 313
316 316 317 317 317 318 318 320 319 320 320 320 320 320 317 315 316 318 319 312 306 307 312 312 310 304 303 315 317 318 319 318 316 317 318 307 319 320 320 318 313 313 312 310
315 316 316 316 316 316 318 316 317 319 320 320 321 321 320 318 316 318 319 318 305 306 313 306 304 304 314 314 315 314 314 317 318 319 318 317 317 315 316 317 314 311 314 316
315 315 317 317 316 317 318 318 317 318 318 317 319 320 320 320 319 317 319 313 315 308 312 314 315 315 315 314 314 315 314 313 314 317 315 318 318 317 316 315 315 314 314 314
316 306 316 316 313 312 317 319 318 317 317 318 316 316 317 320 317 314 312 319 315 314 315 315 315 312 314 314 314 315 315 315 307 315 318 318 318 317 316 316 316 316 315 314

GFSNGP_sfc_thetae_090.txt.gz
Theta_e
305 306 306 305 304 305 307 308 304 304 310 318 322 324 325 330 333 333 334 335 336 331 329 330 334 332 334 335 334 333 331 331 354 355 356 356 357 358 359 359 358 359 355 356
303 305 305 303 305 306 309 310 309 310 309 323 324 326 325 325 327 327 329 330 333 334 334 335 333 332 334 335 331 333 341 345 349 353 355 356 358 358 359 357 358 357 356 354
299 304 304 300 304 309 311 313 313 308 316 322 322 322 325 326 326 328 327 329 330 332 334 335 337 335 336 335 334 336 339 345 346 349 353 355 356 353 351 352 355 356 356 355
301 303 294 307 317 313 311 313 314 313 313 316 319 323 324 325 324 324 324 325 326 328 330 330 336 341 340 339 337 337 336 338 341 342 347 348 346 348 349 349 350 351 351 355
300 298 302 309 314 309 309 310 315 314 313 315 318 322 324 330 328 325 327 325 329 332 332 331 331 334 335 338 337 334 335 336 337 340 342 345 341 344 345 345 346 351 352 354
303 298 293 309 313 319 316 305 314 313 313 312 317 312 318 329 328 328 325 325 328 330 330 332 331 334 333 332 331 332 335 338 340 342 344 343 345 343 345 346 347 348 350 346
303 301 304 314 317 319 301 306 319 319 318 319 317 321 327 329 327 327 327 328 328 327 326 325 330 331 328 329 327 330 333 337 339 342 342 345 347 347 344 343 341 340 340 343
304 299 297 318 316 309 317 323 323 322 322 320 324 326 328 328 326 325 325 326 327 326 326 327 328 325 327 325 328 329 329 332 334 338 340 339 340 341 340 338 334 333 333 333
307 305 316 320 318 322 324 321 320 323 325 325 324 324 325 325 325 325 325 325 326 326 326 327 327 329 326 326 328 330 330 330 331 332 334 338 338 338 336 338 334 335 336 337
309 312 315 319 321 321 321 322 322 324 324 324 322 323 323 324 324 324 324 324 326 326 325 325 327 327 327 327 328 329 328 329 328 328 328 331 329 333 335 334 333 331 332 333
308 314 316 317 320 322 322 322 321 323 323 322 322 322 324 324 324 324 324 325 325 324 324 325 327 327 327 327 328 325 325 329 329 330 327 327 330 332 330 331 327 329 331 333
303 316 317 316 320 323 320 320 322 321 321 323 324 323 325 325 326 326 324 324 323 324 326 326 325 326 327 327 327 325 323 323 325 327 328 329 328 326 311 306 301 299 298 303
310 321 317 321 319 316 318 322 323 323 321 321 324 327 326 327 328 321 326 323 323 324 326 327 326 326 327 326 326 325 323 323 322 323 326 327 329 328 325 318 300 297 296 297
319 321 317 320 319 323 324 326 323 325 326 327 326 327 327 328 327 327 326 325 325 325 326 325 325 325 326 325 325 324 324 314 321 323 325 326 325 328 326 325 325 324 306 303
321 322 321 323 324 324 325 320 319 320 322 324 327 325 326 324 325 324 325 325 326 325 324 325 322 322 324 324 324 323 322 322 322 321 324 324 326 329 325 326 323 321 320 311
321 321 321 321 321 323 320 317 317 319 321 323 323 322 322 322 323 325 326 326 324 322 324 323 323 323 323 323 323 323 323 318 316 321 323 326 328 329 325 324 322 323 323 319
318 318 319 318 321 322 317 318 319 319 321 320 320 321 322 323 324 324 325 325 324 323 322 322 321 322 322 322 323 322 322 322 318 322 322 324 327 330 330 324 321 324 323 317
322 320 320 321 321 322 320 319 320 321 322 323 322 322 321 321 322 323 324 324 322 320 320 321 321 319 321 321 321 321 321 322 322 322 322 323 326 330 331 324 322 325 321 321
321 319 321 323 323 323 321 321 322 324 324 324 322 321 322 322 324 324 324 321 319 317 317 321 317 319 321 321 319 320 320 322 322 323 324 321 326 328 327 327 322 319 320 318
320 322 323 323 323 323 322 323 324 324 325 324 324 323 323 324 324 324 323 320 319 318 320 321 319 320 321 322 317 318 320 321 322 323 325 324 324 322 325 314 321 317 316 314
322 323 322 322 322 322 322 322 322 320 321 322 322 323 323 324 324 323 319 316 319 319 318 317 319 319 319 317 317 320 319 322 320 322 323 324 323 320 320 320 318 316 317 317
320 319 319 319 318 319 320 321 320 322 324 324 322 322 319 319 320 320 321 319 319 309 315 319 320 314 316 311 317 318 319 319 319 320 320 319 322 322 322 321 320 319 320 317
318 318 318 318 318 320 321 323 322 322 322 323 321 320 319 317 318 316 316 323 320 311 315 319 310 309 308 315 318 317 319 320 320 319 320 318 321 317 318 321 318 319 319 317
320 320 320 322 322 320 319 322 322 324 324 324 324 324 322 317 318 320 323 315 309 309 312 316 313 305 302 316 317 316 317 317 318 319 318 305 319 320 321 322 320 315 315 311
321 320 321 322 320 319 322 323 322 322 322 323 325 325 325 323 319 318 321 321 308 309 314 309 307 306 314 316 315 315 314 315 315 316 317 317 316 317 317 318 320 317 315 315
322 319 319 320 319 320 318 318 316 317 317 317 318 320 322 322 323 321 321 316 320 314 314 317 317 316 316 315 315 315 315 315 314 315 313 315 317 315 318 318 316 315 316 316
322 307 320 319 321 321 320 317 317 316 317 319 319 323 324 324 322 319 314 321 320 317 316 316 317 314 316 315 315 315 316 316 309 315 315 315 316 316 316 317 317 316 315 315

GFSNGP_sfc_thetae_093.txt.gz
Theta_e
307 307 306 306 305 305 305 305 300 305 304 311 309 310 324 330 333 331 331 334 332 332 333 334 335 335 334 336 336 340 342 337 334 335 335 338 354 357 359 359 358 359 358 355
304 306 306 304 306 306 306 306 308 308 307 320 325 327 327 328 329 328 329 330 334 333 336 335 335 335 337 339 338 338 343 340 335 335 335 335 351 355 357 360 361 360 357 355
301 306 305 301 305 307 307 312 310 307 316 322 322 323 323 323 325 325 328 330 331 332 331 336 338 338 336 335 337 340 344 344 339 337 335 336 351 354 355 357 362 360 357 356
302 305 296 306 315 312 309 311 314 317 318 318 320 321 319 327 328 328 328 329 332 334 334 331 335 343 343 339 338 339 339 342 345 345 345 349 350 354 356 360 356 353 355 360
300 300 305 308 311 314 311 310 318 316 316 315 319 315 310 327 328 327 328 330 331 333 332 331 333 336 341 341 340 338 337 338 339 340 342 345 347 347 350 352 350 350 353 356
304 299 296 310 317 321 318 307 319 316 314 310 312 304 311 326 328 329 330 331 330 331 332 332 335 336 334 332 333 334 338 340 341 342 343 345 345 341 343 348 348 346 350 355
304 301 305 315 318 322 304 308 319 319 319 316 309 314 321 327 328 329 329 329 330 330 329 330 332 332 331 329 328 331 334 339 341 342 343 344 344 348 349 348 345 346 348 351
306 301 298 318 318 310 319 321 320 319 321 320 322 323 325 325 326 327 327 327 328 328 329 331 333 332 330 329 332 333 333 333 334 336 339 340 343 342 343 343 342 340 341 342
308 308 319 321 321 325 324 320 321 321 323 324 323 322 323 323 325 326 327 327 329 328 328 330 330 330 328 330 332 333 334 333 333 334 333 337 336 338 338 343 341 338 337 337
309 313 316 319 320 324 322 321 324 324 323 322 321 324 324 325 325 326 327 327 328 327 326 327 329 329 329 330 331 330 330 332 334 333 330 333 333 335 335 334 335 335 333 331
307 312 317 319 320 322 321 323 321 322 321 320 322 322 324 325 326 327 327 327 327 326 326 327 328 329 329 329 329 327 328 328 331 329 332 331 332 331 331 335 329 329 331 332
304 316 318 318 319 323 318 321 322 320 320 321 322 322 324 326 327 327 326 327 326 327 327 328 329 329 329 329 328 327 325 324 324 324 326 330 329 332 316 314 308 302 299 307
311 319 321 320 316 319 319 321 320 319 321 321 324 325 324 327 328 322 325 324 326 326 327 326 328 327 329 328 328 327 325 325 322 320 323 326 327 326 327 322 304 300 299 298
316 322 318 323 318 320 320 322 321 323 325 324 324 326 326 327 327 328 324 325 326 326 326 326 325 325 327 327 327 326 326 317 324 323 322 323 326 327 327 327 324 325 306 305
317 324 320 320 323 321 322 319 318 319 321 322 325 324 324 324 324 324 326 326 325 325 326 326 324 325 326 326 325 324 323 323 323 322 322 321 325 328 328 327 326 326 328 312
320 321 320 319 319 320 319 318 317 319 320 321 322 322 323 324 325 324 324 325 324 322 323 324 324 325 325 324 324 323 324 321 316 322 322 322 324 327 327 327 326 326 325 325
318 315 317 317 318 320 319 320 319 321 321 321 321 322 323 322 323 325 326 324 325 324 323 324 322 324 322 323 321 321 321 322 322 322 322 323 322 323 330 328 326 324 325 320
322 323 321 320 319 322 320 320 321 321 323 322 323 322 322 321 324 323 324 324 324 322 322 322 322 320 322 322 321 321 322 322 322 322 323 322 324 324 328 329 327 324 324 321
320 322 320 320 320 320 321 322 324 325 325 324 323 322 322 322 324 325 326 324 322 320 319 321 317 319 322 321 318 321 321 321 322 322 323 319 323 326 327 328 326 325 321 321
320 321 321 321 322 322 322 323 324 323 324 323 322 323 322 324 326 325 324 322 322 322 321 321 321 323 322 323 319 319 320 321 319 320 322 324 325 323 323 317 323 323 319 316
321 321 321 322 323 323 323 324 321 319 320 322 322 322 322 324 324 324 322 318 323 322 319 317 321 320 322 316 316 319 320 319 319 318 318 320 323 322 321 320 319 322 320 319
319 319 319 319 320 319 319 320 321 322 321 321 321 320 320 320 321 322 325 322 323 308 316 318 321 313 315 311 318 318 319 318 318 317 317 318 320 322 324 323 324 322 323 319
319 319 319 318 319 321 321 322 321 321 320 321 321 322 321 320 320 317 316 324 320 310 316 315 312 310 311 315 317 317 317 316 316 317 317 316 318 323 321 321 323 321 319 318
319 320 320 321 321 320 321 320 322 322 322 323 323 324 323 319 319 321 321 315 311 313 317 312 313 309 304 315 317 316 316 315 316 316 316 302 316 318 322 321 324 322 319 316
316 320 320 321 320 317 321 323 322 322 322 325 326 326 326 325 322 321 321 320 309 314 319 309 311 309 314 315 316 315 315 315 315 314 314 316 316 315 317 317 317 320 319 315
321 318 320 322 320 319 318 319 317 317 317 316 318 320 321 323 323 320 324 318 321 317 319 318 317 317 317 317 316 316 314 315 315 314 313 315 315 316 315 316 316 317 317 320
321 312 318 319 318 318 318 316 315 315 316 318 316 318 321 322 321 318 314 318 321 320 320 319 318 315 317 316 316 316 316 316 310 316 316 316 315 315 316 316 317 316 316 316

GFSNGP_sfc_thetae_096.txt.gz
Theta_e
305 306 306 305 304 305 303 304 302 303 306 309 313 315 315 319 325 326 330 331 333 332 333 335 336 337 337 338 337 341 340 336 335 334 333 334 335 341 347 351 352 354 353 356
304 307 307 304 306 306 306 306 305 307 309 315 319 322 320 325 326 326 328 329 331 332 335 336 337 337 339 339 339 343 340 338 336 335 333 331 333 340 348 350 352 353 354 353
300 306 305 301 308 309 309 308 310 306 314 317 317 321 324 325 327 326 326 328 331 332 332 334 336 341 336 337 338 339 340 344 338 338 338 339 340 343 346 350 355 352 351 349
301 304 295 307 314 311 311 314 316 316 314 315 315 320 322 321 323 325 326 328 332 330 330 333 337 340 338 338 340 341 341 343 344 342 341 340 342 343 345 349 349 346 347 347
300 299 304 304 307 306 308 310 317 315 316 317 317 317 317 317 323 324 328 328 332 333 332 333 334 336 335 332 339 340 340 341 342 344 343 340 338 341 342 343 341 343 349 354
303 296 295 304 309 313 316 306 317 316 317 318 317 308 311 319 321 321 329 329 328 329 330 331 333 333 331 330 330 332 334 336 343 344 342 342 344 341 340 342 341 343 343 350
303 299 304 313 316 319 303 307 318 318 317 317 312 313 318 320 324 326 328 328 329 329 330 333 334 334 332 331 330 334 335 335 334 337 340 344 343 345 342 342 342 346 347 349
304 301 297 318 316 309 315 321 319 320 319 317 319 317 321 323 324 326 327 326 328 328 330 332 334 333 331 328 333 335 336 334 333 333 334 337 340 342 344 345 343 342 340 338
307 306 319 320 320 322 323 321 322 322 322 319 320 322 324 324 325 326 326 329 329 327 329 331 333 333 329 332 334 334 334 336 336 332 330 336 337 339 337 342 341 341 339 339
310 314 315 319 321 322 325 322 322 318 321 322 322 322 324 324 325 326 327 327 327 327 327 329 332 332 332 333 333 332 332 333 337 339 332 335 335 333 332 333 334 333 332 332
310 312 315 318 322 322 320 321 321 322 322 321 322 323 323 324 327 327 328 328 328 329 328 328 330 330 332 332 332 329 330 330 333 331 332 336 336 334 332 336 330 331 330 331
304 315 317 318 321 320 317 317 318 316 318 322 323 323 325 324 326 326 327 328 327 326 326 328 328 329 332 333 331 329 327 325 325 324 323 325 334 333 317 315 310 305 301 310
313 316 322 320 321 320 316 315 318 319 321 320 322 327 327 326 327 324 325 326 325 327 327 328 329 327 329 331 331 330 328 327 324 323 325 327 327 328 329 326 307 303 299 299
317 319 319 321 318 321 320 321 321 320 323 322 324 325 328 326 327 326 326 326 328 327 326 328 327 327 328 329 330 329 328 318 324 326 323 322 323 327 327 328 326 327 304 304
314 318 322 322 319 317 319 320 318 320 321 322 323 324 324 324 325 324 326 328 326 329 326 326 326 328 330 328 327 326 324 324 325 324 323 321 322 323 326 328 327 328 330 309
317 317 319 318 313 315 316 317 319 317 319 319 320 320 321 324 324 324 327 326 323 323 325 324 325 327 328 326 327 323 324 323 319 324 323 323 323 326 325 331 331 327 326 325
314 315 316 316 317 316 317 318 320 320 319 320 320 321 321 323 325 324 326 325 325 325 325 325 324 325 323 325 323 320 320 322 323 323 323 323 325 326 332 331 330 330 327 316
317 313 315 315 316 319 315 319 320 321 323 324 324 322 321 322 322 325 324 325 327 326 324 324 322 321 323 324 323 319 320 320 321 322 323 324 323 324 326 328 326 325 322 317
316 314 313 313 315 320 320 322 323 323 323 326 323 322 323 325 327 326 327 324 324 325 320 322 318 319 324 324 319 318 319 320 320 320 321 319 323 324 322 325 326 323 322 320
318 317 314 313 324 323 323 323 323 322 322 321 321 321 322 326 327 326 327 325 327 323 324 322 321 322 327 327 322 316 317 319 317 320 321 321 321 321 322 316 322 322 320 318
319 320 320 320 320 321 320 321 319 318 319 320 321 322 323 325 324 324 324 318 326 323 322 320 319 320 320 315 314 314 315 318 316 317 316 316 317 321 323 322 321 321 320 319
320 319 318 318 318 319 319 319 320 320 322 322 323 321 321 322 325 325 328 324 323 312 318 318 319 313 314 311 313 316 318 318 318 318 316 317 316 319 320 323 323 323 323 320
318 319 320 318 319 319 320 322 322 322 322 322 324 324 321 319 319 318 318 328 324 314 319 318 312 311 311 314 313 315 317 316 316 316 318 319 315 318 320 320 320 322 321 319
319 320 320 321 322 321 321 324 321 323 323 320 326 328 323 320 321 321 321 313 310 315 319 317 313 311 306 314 313 316 317 318 316 315 316 304 315 316 318 321 320 322 321 316
316 315 316 321 321 318 321 321 323 321 325 324 324 328 326 325 319 322 323 322 313 315 320 312 310 311 314 314 313 316 317 316 315 314 315 316 313 314 317 318 320 320 320 319
317 314 315 316 322 319 318 318 315 315 317 317 318 319 319 321 320 322 325 319 320 317 321 321 316 315 316 317 317 316 315 315 315 315 314 316 314 316 316 317 317 318 319 320
316 307 315 316 316 318 317 316 316 315 314 317 316 318 318 318 320 316 315 321 322 324 321 320 321 316 319 316 316 317 315 317 312 316 317 316 317 318 316 316 318 317 317 317

GFSNGP_sfc_thetae_099.txt.gz
Theta_e
299 302 303 303 302 303 300 301 295 299 301 305 310 314 317 321 323 318 317 317 321 330 332 334 333 334 334 334 336 339 336 334 333 334 334 335 332 333 332 331 339 348 348 348
298 304 305 302 305 307 307 306 305 308 306 316 316 321 321 322 323 318 321 323 328 329 331 331 333 335 336 335 334 336 336 334 334 332 331 332 332 331 333 342 345 345 345 347
294 303 302 297 305 306 308 308 309 303 308 313 310 313 317 316 318 321 325 328 329 328 328 330 335 331 330 331 333 333 336 338 333 332 330 329 335 336 336 339 341 341 344 345
297 298 290 302 310 310 307 310 311 312 313 312 311 313 314 315 318 321 324 328 328 329 329 330 333 331 333 335 334 334 335 336 335 334 333 333 333 334 334 336 339 340 339 340
295 294 299 305 308 306 306 306 313 312 313 315 317 315 312 319 320 319 323 326 328 330 330 330 329 329 328 330 330 332 331 334 336 336 335 334 332 333 335 337 336 338 341 341
298 292 292 303 310 316 313 299 314 313 313 311 311 303 306 318 322 321 323 326 325 326 327 329 330 330 329 329 329 328 331 333 333 334 335 334 333 333 335 336 336 339 338 337
298 296 300 311 311 315 300 302 314 312 312 311 307 311 317 321 321 324 324 324 325 325 324 325 326 324 322 324 324 328 329 330 331 333 332 334 333 336 335 336 336 336 337 338
300 295 294 316 315 306 310 314 317 315 316 315 314 316 319 321 322 323 322 323 325 322 321 323 325 323 321 321 324 326 328 327 326 326 328 332 330 333 333 335 332 332 334 335
300 299 312 316 313 319 316 313 317 317 317 318 318 318 321 320 320 322 324 323 324 322 321 322 323 322 319 321 323 323 323 323 325 326 325 328 329 329 330 330 330 330 328 328
305 309 314 316 318 318 319 317 320 319 319 319 318 321 320 320 320 321 323 321 322 321 320 320 322 323 322 322 322 321 320 320 322 322 324 323 326 327 323 322 324 325 325 324
301 306 312 317 318 316 316 318 321 320 318 319 318 318 319 320 320 321 322 320 322 321 321 322 323 321 322 322 321 319 319 319 318 317 316 323 326 325 325 325 323 324 322 322
300 308 312 313 316 317 313 314 317 318 317 321 319 319 322 320 320 322 321 321 321 323 322 320 321 320 320 321 321 319 318 317 317 316 314 315 317 324 318 314 307 306 303 312
308 316 316 317 318 320 316 316 318 318 318 320 323 321 323 320 319 320 322 320 321 320 320 320 320 318 320 319 320 319 317 317 317 316 317 315 313 316 320 321 307 304 300 299
314 318 314 318 315 317 318 321 320 320 320 320 323 323 324 321 320 319 319 320 322 319 319 320 321 319 319 319 319 317 317 315 315 316 316 313 313 315 316 318 318 319 303 305
312 315 318 315 314 315 317 317 316 317 318 320 321 322 322 321 320 319 321 322 320 319 319 317 316 318 319 316 315 315 317 316 317 316 315 315 314 313 314 318 319 319 315 303
312 316 316 311 311 315 314 315 316 316 317 317 317 316 319 320 319 320 320 319 316 315 316 315 316 316 315 314 314 315 315 317 316 314 315 318 316 317 318 320 318 318 317 315
312 310 314 312 314 315 316 316 316 315 317 316 315 316 319 318 317 319 318 318 320 320 318 316 315 315 314 314 315 313 312 314 317 315 318 320 319 320 321 319 318 318 313 311
316 315 316 317 313 312 313 314 316 320 318 319 320 319 318 318 317 319 320 320 318 319 315 315 314 312 314 315 316 313 312 313 314 314 315 315 316 318 320 320 319 316 313 311
315 316 316 316 316 316 316 315 319 320 322 320 319 317 319 320 320 320 320 318 317 315 312 315 318 315 314 317 318 313 312 311 313 312 314 314 315 317 315 317 318 317 315 312
313 316 314 317 320 317 317 316 318 318 318 317 315 315 318 320 320 321 321 317 318 318 316 316 313 313 314 317 319 311 309 309 310 310 313 311 312 313 315 312 315 318 316 311
311 317 317 315 317 317 317 316 315 314 317 319 316 316 318 314 315 315 313 313 317 315 316 319 312 312 313 309 308 306 306 309 312 311 311 309 309 315 315 315 315 315 317 316
316 317 317 317 317 316 318 318 318 319 318 317 316 316 315 314 316 316 318 315 320 316 314 313 312 312 308 312 306 307 306 308 309 313 311 308 309 314 316 316 315 315 315 316
317 317 318 317 316 318 320 319 317 318 317 317 316 317 317 317 316 316 313 319 319 312 312 314 312 311 311 306 308 308 307 308 310 311 307 309 311 313 313 316 316 316 314 314
315 316 314 316 316 318 317 318 320 318 318 318 316 318 320 317 316 317 318 314 309 311 311 312 310 311 310 307 307 307 307 308 310 311 308 304 307 306 314 314 315 316 315 308
313 314 311 311 312 314 313 319 319 320 317 318 318 318 319 321 318 319 320 318 311 312 314 314 311 309 310 307 309 309 308 310 311 310 309 308 309 307 307 316 318 317 314 314
314 312 311 312 312 314 314 315 313 313 313 313 313 314 316 315 316 316 317 314 317 314 316 318 318 314 311 314 314 313 313 311 310 312 310 309 311 311 312 314 315 315 316 316
315 308 313 312 314 315 316 315 312 311 312 313 312 314 315 315 315 313 311 314 313 314 315 315 317 315 314 316 316 316 317 316 309 313 315 314 315 313 313 313 311 311 312 313

GFSNGP_sfc_thetae_102.txt.gz
Theta_e
295 298 299 299 300 303 298 298 295 299 300 305 309 311 316 320 321 316 316 317 323 325 327 331 333 334 332 333 334 336 335 336 335 334 335 335 333 334 335 332 332 334 332 344
292 299 300 299 306 306 306 305 306 305 304 310 311 311 314 317 316 317 321 324 327 327 328 331 332 334 336 333 333 334 332 332 332 333 334 333 334 334 334 333 332 333 341 343
287 295 297 295 302 305 307 307 307 300 305 312 309 311 311 312 315 318 322 327 327 326 327 330 331 331 329 331 331 333 333 332 332 330 329 329 331 331 331 334 338 339 341 340
290 293 288 298 308 309 307 308 311 312 312 314 312 311 313 314 316 316 322 325 325 327 328 329 331 329 333 332 331 331 332 332 331 330 329 328 330 331 334 335 333 335 337 339
293 291 297 304 306 306 303 303 313 309 313 311 311 315 312 316 318 318 321 322 325 329 329 329 328 330 330 329 329 328 328 329 332 332 331 330 329 329 330 332 333 334 338 339
297 291 289 300 310 314 312 297 312 313 310 307 308 301 307 317 320 321 323 323 323 325 326 324 324 325 326 327 325 324 327 328 330 331 332 330 329 329 330 331 332 335 336 336
298 293 298 308 313 315 296 298 312 311 310 307 305 308 315 320 320 324 324 323 323 323 321 321 321 320 319 319 319 324 325 325 327 325 328 329 329 330 330 330 330 332 333 334
294 290 290 313 314 304 305 310 314 313 313 314 313 315 318 320 321 322 321 322 322 319 320 320 320 318 316 316 319 321 321 324 323 322 325 328 327 329 329 330 329 329 331 333
296 295 305 310 313 315 315 313 314 314 316 316 317 317 318 319 320 320 321 321 321 319 318 319 319 318 315 316 318 319 317 317 318 323 323 324 323 323 324 326 327 325 325 325
299 304 306 312 317 318 316 314 317 317 317 318 316 317 320 318 319 319 320 320 319 318 318 317 318 319 317 318 317 316 315 315 315 319 321 321 323 322 320 322 322 322 320 319
298 301 304 312 316 316 314 318 318 318 319 318 317 318 316 317 319 318 319 319 320 320 319 317 318 317 317 318 316 315 315 315 314 313 311 312 319 321 321 321 319 319 319 319
295 303 304 310 315 315 312 312 315 319 317 321 319 317 320 317 318 319 318 318 320 320 318 316 317 315 316 315 316 314 313 314 313 313 313 313 311 312 314 314 306 306 304 310
302 307 310 315 315 315 310 312 316 317 319 318 322 320 321 318 317 317 319 319 316 316 317 317 317 317 317 315 316 313 311 312 312 312 313 312 309 309 316 316 304 300 299 301
307 313 311 314 312 316 314 318 317 317 318 319 320 321 321 318 317 316 318 318 318 317 316 316 315 315 315 314 311 310 312 311 311 311 312 311 310 309 310 313 314 316 299 301
311 311 311 313 314 313 314 317 316 315 316 316 319 320 319 317 317 316 318 318 317 316 314 313 313 313 312 311 310 312 311 310 311 311 311 311 313 312 310 309 315 315 312 305
312 312 312 312 312 313 313 315 314 315 316 315 316 317 318 320 316 317 318 318 313 312 314 312 313 312 311 310 311 311 309 312 312 311 313 315 318 318 318 318 318 315 314 312
310 308 309 308 310 311 313 314 315 316 316 314 312 316 317 315 313 314 315 315 316 315 315 313 312 312 310 311 311 311 309 309 312 311 312 313 314 316 320 320 319 318 312 310
311 313 312 309 311 313 312 314 316 316 315 317 315 315 316 316 314 315 317 316 316 312 311 313 312 310 309 310 310 311 310 308 308 310 312 311 314 314 315 315 314 313 311 310
314 312 315 315 314 313 314 316 317 317 318 317 315 313 314 314 315 317 318 315 314 312 312 312 316 316 309 312 317 313 310 309 307 306 309 310 312 314 313 313 314 313 312 313
312 315 313 316 318 316 315 317 318 317 317 316 312 312 314 317 318 317 315 313 313 314 314 312 313 310 308 310 316 305 304 303 304 306 307 308 308 310 312 309 312 313 312 309
312 312 316 315 318 320 319 318 318 316 316 313 311 312 315 311 313 309 309 307 312 316 315 314 312 310 308 309 307 304 303 303 304 304 306 308 308 307 311 312 313 313 312 311
314 316 316 317 316 315 316 314 314 314 313 311 312 312 311 310 310 310 311 312 314 312 312 314 310 311 311 313 305 304 304 305 304 304 304 307 305 305 311 312 312 312 313 312
312 313 313 313 314 315 317 317 315 313 312 312 311 311 311 313 313 309 310 314 316 313 313 309 311 312 312 308 305 304 305 304 304 304 305 305 308 306 310 314 314 313 312 311
309 309 308 311 313 313 315 314 315 315 312 313 315 313 315 316 312 312 313 312 309 310 309 310 310 309 308 306 304 303 304 305 306 306 308 303 306 303 304 309 311 314 312 307
308 308 308 310 310 312 313 313 312 310 310 309 311 312 313 313 311 311 312 315 310 311 312 311 310 310 308 308 309 312 311 311 311 309 307 305 305 305 306 308 312 313 313 312
306 308 311 312 312 313 313 313 312 309 310 308 309 309 310 310 311 310 311 309 311 310 312 312 312 312 312 313 315 315 313 314 313 313 312 314 311 310 309 308 308 309 310 312
311 306 310 311 312 313 314 314 310 309 307 306 305 309 311 311 311 310 308 310 310 311 311 311 311 310 311 311 312 312 312 313 310 313 314 315 314 313 312 309 309 307 308 308

GFSNGP_sfc_thetae_105.txt.gz
Theta_e
293 295 296 296 297 299 299 296 294 296 298 302 307 308 310 317 316 316 318 317 320 323 325 330 331 333 332 333 334 336 332 333 330 330 332 332 331 333 336 337 337 336 337 337
290 296 296 296 298 303 304 304 303 303 302 309 310 310 311 312 313 314 318 324 327 327 327 329 330 332 330 330 329 333 334 332 334 333 330 329 333 334 333 333 330 330 330 334
285 292 295 291 298 302 303 305 304 299 303 308 309 310 310 310 312 314 317 323 323 326 327 329 330 333 332 331 332 333 332 331 331 331 333 333 333 333 333 333 333 333 331 332
285 290 285 296 307 307 305 308 309 309 310 310 309 311 312 312 313 314 318 322 325 324 326 327 330 331 332 332 329 330 333 333 330 328 327 328 329 330 331 332 331 333 336 335
287 289 295 302 305 304 301 302 311 308 308 308 310 309 308 316 318 317 321 323 324 327 327 325 325 329 329 327 329 327 327 327 329 329 328 327 326 327 331 332 332 332 336 336
293 289 289 299 310 312 310 296 310 309 308 306 307 299 303 315 320 321 323 324 321 325 324 323 323 324 323 323 322 322 324 327 327 328 328 327 327 325 327 332 333 335 333 335
292 292 298 307 312 314 295 295 309 309 307 308 304 306 310 320 321 323 322 322 323 322 318 318 319 317 316 316 316 319 323 323 322 323 326 326 327 328 329 328 328 328 330 333
292 291 290 312 311 301 302 308 312 312 309 310 310 314 315 318 321 321 320 321 321 319 318 318 317 315 314 314 315 317 317 317 320 320 322 323 324 325 328 328 327 327 328 329
296 297 305 308 309 312 312 312 315 312 313 313 314 315 316 318 320 321 321 320 321 318 318 317 317 315 314 314 315 315 314 313 313 320 320 320 320 318 320 323 325 324 322 322
299 305 305 308 314 314 315 314 315 315 316 316 315 316 316 318 319 319 319 319 319 319 317 317 318 317 314 315 314 314 313 313 313 313 311 312 319 319 318 318 318 321 320 320
298 302 303 306 309 314 316 317 317 316 318 316 316 315 315 316 316 318 319 318 318 316 316 316 316 315 314 314 313 312 312 312 311 311 310 311 311 314 318 317 317 317 319 319
296 300 302 304 311 315 312 312 315 314 314 318 319 315 317 318 317 317 318 319 317 316 315 315 315 314 314 313 313 310 310 310 310 309 310 310 308 308 313 309 302 301 301 309
301 305 304 309 314 313 308 311 315 316 316 317 321 320 319 318 315 316 317 317 315 315 315 315 315 314 314 313 310 309 309 309 308 308 309 310 309 307 309 313 302 299 299 300
302 308 309 312 310 315 313 316 315 315 316 316 318 320 320 319 314 315 316 317 316 316 314 313 313 313 312 310 308 309 309 308 307 308 309 309 310 308 308 308 309 313 300 301
310 311 310 312 312 312 313 315 314 314 315 314 318 319 318 315 314 317 318 318 317 314 312 311 313 312 311 308 309 309 307 307 308 309 311 311 312 313 311 308 308 311 310 301
309 310 311 310 310 311 313 313 312 314 315 315 313 315 318 317 315 315 318 317 314 310 312 312 311 311 310 308 309 309 308 310 309 308 310 311 313 315 315 315 315 317 317 314
307 305 306 307 309 308 309 311 313 314 316 314 313 314 316 315 313 313 314 313 313 314 314 312 311 312 308 308 308 309 309 307 310 306 308 309 311 313 314 313 313 313 311 308
311 310 308 307 308 310 311 312 314 315 314 316 317 315 313 312 311 312 316 317 313 313 311 311 311 310 308 308 308 308 309 307 306 304 305 306 308 312 312 311 312 312 310 309
313 314 313 312 312 311 312 313 314 317 317 317 314 312 312 314 313 313 315 313 312 311 312 312 315 315 309 309 313 311 310 306 304 302 302 305 305 308 311 310 311 312 311 310
313 313 313 314 316 313 313 316 317 317 317 317 313 313 312 313 313 309 311 310 311 313 313 313 310 309 309 307 313 307 304 303 301 301 302 303 304 305 307 306 309 311 311 310
311 313 313 313 316 317 317 317 317 315 314 313 309 310 311 309 313 310 307 306 310 312 313 315 311 309 308 309 308 304 303 302 302 301 301 301 302 304 306 307 310 310 311 310
314 313 314 316 316 315 316 315 313 314 313 312 310 310 309 308 310 310 310 310 314 312 312 311 311 310 310 313 307 304 303 303 303 301 301 302 302 303 304 306 308 311 312 311
308 310 311 311 313 313 314 315 314 314 312 311 310 309 309 309 310 309 308 310 312 310 311 308 310 311 311 308 305 303 303 304 304 303 303 303 303 302 303 304 308 311 311 312
306 306 306 309 310 311 311 311 313 312 311 312 311 311 312 309 309 309 309 310 307 308 310 310 310 308 308 306 305 303 304 306 307 306 306 302 303 301 301 302 304 308 311 308
306 306 307 308 311 311 310 312 311 308 309 309 308 311 312 309 308 308 309 310 307 309 311 309 308 308 309 309 309 310 310 310 308 308 309 311 310 310 308 307 308 309 309 309
306 309 310 312 312 312 313 313 311 309 307 305 308 309 309 309 309 309 309 308 309 308 309 308 308 308 308 309 309 310 310 310 309 309 308 311 312 312 312 311 310 309 308 308
308 305 310 311 311 312 314 313 311 310 308 308 309 309 309 307 306 306 306 308 308 308 307 306 306 306 306 307 308 309 309 309 304 306 308 309 311 313 312 313 311 309 307 306

GFSNGP_sfc_thetae_108.txt.gz
Theta_e
292 294 295 294 295 296 293 294 293 297 293 300 304 307 309 313 316 315 315 317 321 322 325 328 329 333 334 333 332 338 337 332 330 331 330 331 330 331 333 335 338 341 340 341
290 295 294 293 296 297 297 301 299 301 301 308 310 311 311 311 312 312 314 316 320 326 327 327 330 330 332 331 333 335 333 332 332 331 331 330 330 330 333 337 336 334 335 337
285 290 292 288 294 298 302 304 303 298 303 309 308 308 309 310 311 312 313 316 321 324 326 328 329 332 331 332 334 333 332 333 333 332 330 330 331 333 333 334 334 333 332 333
284 287 282 291 307 307 305 306 308 308 308 309 308 309 311 313 313 315 316 318 321 325 325 326 328 329 331 330 329 330 331 333 332 331 332 332 332 332 333 334 333 334 335 334
284 284 291 300 304 304 301 301 307 308 309 309 309 308 308 315 319 320 320 321 324 324 324 323 324 326 326 326 327 325 325 328 331 332 331 330 328 328 330 332 332 333 335 336
291 287 287 297 308 311 309 296 309 310 307 307 307 300 304 315 320 317 321 323 322 323 322 321 321 322 322 321 319 319 324 325 327 329 329 330 331 329 331 333 334 335 334 338
292 291 295 304 310 313 296 296 309 310 309 307 304 307 312 319 320 321 321 322 322 320 319 319 319 319 317 317 316 318 319 323 324 325 327 328 330 331 332 333 333 333 334 335
290 289 288 310 312 303 303 307 310 312 311 309 310 312 316 317 319 320 320 321 321 319 319 320 319 317 315 315 316 318 318 318 321 323 322 324 325 328 331 331 330 330 331 326
294 294 302 307 308 311 312 310 311 312 314 314 312 314 317 318 319 320 320 321 321 320 320 320 319 317 316 316 317 317 317 316 316 317 317 321 323 323 324 327 327 326 327 325
296 300 303 307 311 313 314 313 314 315 315 316 314 318 317 318 319 319 320 320 321 321 319 319 319 317 316 317 317 316 315 315 315 315 316 316 318 323 322 322 322 322 322 323
296 301 302 305 309 310 314 317 316 316 317 317 316 317 317 317 317 319 320 320 320 319 318 318 319 318 317 317 315 314 314 314 313 314 315 315 315 316 321 323 320 322 322 322
295 299 299 301 307 314 311 313 314 315 313 317 319 317 318 318 319 319 318 320 319 318 317 318 318 318 317 316 313 312 313 312 312 312 313 315 314 314 309 306 302 300 302 312
301 302 302 305 312 314 311 310 313 315 316 318 320 320 320 318 318 317 319 319 318 317 319 318 317 318 316 314 313 313 312 311 311 311 314 314 314 313 315 314 301 299 299 301
302 302 302 308 309 314 313 315 315 317 316 317 319 321 320 319 318 317 318 318 318 319 317 316 316 316 316 312 313 312 311 307 311 314 314 315 317 317 314 313 314 315 302 302
309 307 307 312 313 313 314 315 313 313 314 314 317 318 318 317 316 317 319 319 318 317 316 315 315 316 316 313 314 312 311 311 311 313 314 314 318 320 317 315 314 314 318 308
310 311 311 311 311 311 313 313 312 313 314 315 315 314 318 318 317 317 319 319 316 314 316 317 314 316 315 313 314 313 313 311 310 311 313 314 316 318 319 320 320 320 320 319
307 307 308 309 310 310 311 311 312 313 315 314 315 317 316 317 315 315 316 317 316 316 317 316 316 316 313 312 313 312 313 312 310 308 308 311 312 314 318 318 318 318 318 315
310 311 311 309 308 310 311 311 313 315 314 317 317 317 315 316 314 314 315 317 317 316 316 316 315 315 313 312 312 312 314 313 310 307 307 308 309 310 313 317 318 317 318 315
311 311 314 312 311 312 312 313 314 315 317 318 316 315 315 315 315 316 317 317 315 314 315 317 316 317 315 314 315 312 314 310 308 307 306 306 307 308 310 313 316 317 317 317
313 313 313 314 315 314 313 315 317 317 318 317 315 314 314 314 313 312 313 312 314 313 315 315 316 314 314 313 314 312 310 308 307 306 306 306 306 307 308 304 309 315 316 317
312 314 315 314 316 316 316 316 316 316 317 316 312 312 313 312 314 313 311 311 314 315 315 315 314 314 311 312 312 310 309 309 307 307 307 307 307 307 308 309 310 312 314 316
312 311 313 315 315 315 316 315 315 315 315 313 313 312 311 311 313 315 313 312 313 309 313 313 313 313 313 313 311 309 308 308 307 308 309 308 307 307 308 309 309 312 314 315
306 307 310 312 314 315 316 315 314 314 314 313 312 312 312 311 311 311 311 312 312 309 314 313 310 310 310 312 311 310 310 310 311 311 310 311 310 309 308 307 308 310 311 313
306 307 309 313 311 312 310 312 312 312 310 312 313 313 313 310 310 311 312 309 306 309 312 310 309 308 308 312 312 313 313 313 313 313 313 305 313 313 313 312 311 311 311 310
307 308 309 310 311 311 311 311 310 309 310 310 310 311 311 310 310 310 311 311 307 309 310 306 306 306 310 310 311 312 313 313 312 312 311 311 311 312 313 313 312 310 309 308
309 309 311 313 312 312 312 312 311 311 309 310 309 309 308 308 309 310 309 306 306 303 303 302 302 303 303 302 304 304 305 305 305 306 307 310 311 311 311 312 313 311 309 307
311 306 310 309 309 311 312 311 311 310 308 306 303 304 303 302 301 301 300 301 300 300 299 299 299 298 299 299 300 300 301 301 298 302 305 306 309 310 311 310 309 310 308 306

GFSNGP_sfc_thetae_111.txt.gz
Theta_e
301 302 302 301 300 301 299 299 297 299 302 308 313 315 317 318 319 319 320 321 322 323 330 334 334 337 339 340 341 340 336 339 340 342 339 339 340 340 340 340 339 344 345 348
298 301 300 298 300 300 300 301 301 303 305 315 317 318 315 316 318 318 319 321 323 324 330 331 330 333 335 335 336 337 336 339 339 338 336 335 336 337 337 339 338 341 342 343
293 297 297 294 299 300 302 307 308 304 310 314 315 314 315 317 318 318 318 320 323 324 326 329 329 330 331 331 335 336 334 336 338 337 336 335 336 337 336 337 339 338 340 340
295 296 289 299 310 310 308 310 313 312 313 316 316 316 317 321 318 316 319 321 324 324 325 326 327 329 329 329 330 331 331 333 333 334 334 335 334 333 333 334 335 335 337 337
294 294 297 301 309 308 305 306 312 311 313 315 315 315 314 321 321 318 317 320 321 324 323 323 323 326 325 324 326 327 327 331 334 334 333 334 337 338 337 335 334 333 335 339
298 293 291 304 311 315 314 303 313 314 314 314 315 308 313 322 320 319 318 321 321 322 322 321 322 324 323 322 322 323 328 329 333 336 335 335 335 338 338 337 338 339 339 339
299 298 302 309 313 316 300 303 313 315 316 317 314 316 318 322 320 321 321 321 323 324 320 321 322 323 322 322 321 324 328 331 332 334 336 338 339 341 339 337 337 338 338 337
301 298 295 313 314 306 312 317 316 317 319 319 320 321 319 321 319 319 317 321 322 323 323 323 324 323 322 321 324 326 327 326 327 330 332 333 338 339 340 340 339 338 331 330
304 303 311 315 315 319 319 318 319 318 321 321 321 320 320 322 319 319 317 320 323 323 324 323 324 323 321 322 325 326 326 326 327 327 327 333 334 334 333 335 334 332 328 329
303 308 310 313 315 317 318 319 321 322 321 321 320 321 320 319 322 320 320 321 324 323 323 323 324 323 321 323 324 325 324 324 325 326 326 326 327 331 329 328 328 328 329 329
305 308 309 312 313 315 317 320 321 322 320 320 321 321 321 322 323 320 320 324 326 324 323 324 325 324 322 323 322 322 322 323 323 323 325 325 324 328 331 332 325 328 328 328
299 308 308 310 313 314 314 317 320 320 319 321 322 320 322 322 323 322 320 321 324 325 323 323 324 324 323 321 321 322 320 320 320 321 322 323 323 325 307 306 302 301 301 314
306 310 311 312 313 313 313 321 319 320 321 321 323 324 321 321 325 321 321 322 324 323 324 323 323 322 322 319 320 320 319 320 322 321 324 325 326 324 323 315 301 299 300 299
310 312 307 310 309 318 318 320 318 321 322 323 322 325 324 323 323 323 323 323 322 324 323 322 322 322 322 319 322 321 319 308 322 322 323 324 325 326 325 324 322 323 304 304
314 314 310 312 316 319 321 321 319 319 321 322 325 323 324 323 323 323 325 323 323 323 322 322 322 323 322 319 321 321 318 317 319 321 321 320 324 324 323 322 321 323 328 310
315 317 317 316 317 319 319 319 318 319 320 320 321 323 324 323 322 322 323 324 321 321 324 323 323 323 322 321 322 321 321 313 313 317 317 318 318 319 320 322 323 321 321 323
314 314 315 315 316 317 318 319 320 320 320 319 320 321 322 323 323 321 323 324 324 326 326 325 324 323 321 320 320 321 321 321 310 317 315 314 314 315 317 318 320 319 322 321
315 316 316 317 316 316 317 318 318 320 321 321 321 322 323 322 319 319 321 321 321 323 325 326 325 323 321 321 320 319 319 322 319 317 315 314 314 314 315 316 317 320 321 321
315 315 316 318 317 316 317 318 318 320 322 321 320 319 320 322 320 323 323 322 321 320 322 324 320 319 324 321 318 321 321 320 317 317 316 311 315 315 313 314 315 317 318 320
315 317 317 317 318 318 317 320 320 320 321 319 318 317 320 320 321 320 321 318 319 320 323 324 323 322 321 320 315 319 319 318 317 317 316 314 315 316 316 309 314 316 317 318
315 315 316 316 318 319 319 321 320 319 318 317 318 321 320 320 321 321 318 315 319 319 319 318 320 317 318 316 319 320 319 317 316 316 315 316 317 317 317 317 316 316 316 317
312 314 315 317 318 317 318 318 320 318 318 318 318 319 319 320 321 318 319 318 318 310 319 320 319 314 317 315 319 318 318 318 318 318 317 317 317 316 317 317 316 316 317 318
314 315 316 316 317 317 317 317 317 317 317 318 318 318 316 316 319 317 315 318 319 312 317 315 309 309 311 318 317 317 317 316 316 316 316 316 316 316 316 316 317 317 317 317
316 316 317 318 317 313 309 314 314 314 312 312 313 317 317 315 315 317 317 310 307 310 309 308 308 307 309 314 315 315 315 315 314 313 313 303 313 313 314 314 314 316 315 312
315 316 316 316 313 312 314 315 314 313 311 311 311 315 317 317 315 315 315 309 302 305 305 301 301 302 305 305 305 306 306 306 306 307 309 311 311 311 311 312 312 312 312 313
314 315 315 316 314 313 313 315 312 312 311 307 307 310 311 311 308 307 305 303 303 301 301 301 300 301 301 301 301 302 302 303 302 301 302 303 304 305 306 305 305 307 310 308
315 308 317 317 317 316 314 314 312 312 308 305 302 305 306 305 303 302 300 302 301 300 300 300 299 298 298 298 298 299 299 299 296 299 299 299 300 300 301 301 302 304 303 305

GFSNGP_sfc_thetae_114.txt.gz
Theta_e
306 305 305 304 304 304 303 304 300 302 302 308 314 318 320 321 322 322 324 324 326 327 329 331 334 337 338 342 344 344 345 344 345 344 343 345 345 345 344 346 346 346 348 351
302 304 304 301 303 304 303 304 303 303 304 317 320 321 320 320 321 321 322 325 326 326 326 329 331 334 333 339 340 343 343 343 344 345 341 343 343 343 344 344 344 346 345 345
298 302 301 298 302 303 304 306 307 305 312 317 317 318 319 320 322 321 321 322 325 323 328 327 329 329 328 332 337 337 336 338 343 342 341 342 341 342 342 341 343 344 344 345
298 301 292 304 311 311 308 311 314 314 314 315 317 320 321 324 323 322 322 322 322 321 321 324 325 327 328 329 329 334 336 335 338 339 338 339 342 340 340 342 343 341 341 346
298 298 301 303 309 309 308 308 314 313 314 315 317 318 320 324 324 322 321 322 323 324 322 322 322 326 325 326 325 326 332 332 334 337 335 338 338 340 343 343 340 337 338 340
301 296 293 308 314 317 316 304 315 315 315 315 317 309 315 326 325 324 324 325 324 323 323 322 323 326 325 323 323 323 328 332 335 338 337 339 341 341 344 344 344 344 343 340
300 298 301 313 316 317 302 307 317 318 318 318 315 319 324 326 325 325 322 325 324 323 322 323 325 327 324 325 323 326 332 331 334 338 339 341 341 342 343 345 345 342 335 333
302 300 297 317 315 308 315 320 319 321 321 322 322 325 325 325 325 322 320 321 323 321 321 325 325 325 323 323 328 330 332 332 332 336 336 341 343 343 344 345 343 337 333 329
304 306 316 316 315 319 320 320 321 323 323 324 323 324 324 325 327 321 321 320 324 322 321 322 327 326 323 324 328 331 331 333 333 333 334 340 340 339 335 340 340 335 333 332
306 310 312 314 316 316 319 321 323 324 324 323 322 324 324 325 326 325 323 322 325 324 322 322 322 327 326 326 328 329 329 330 332 331 331 334 336 334 331 330 330 330 331 332
308 311 314 314 314 316 317 319 320 325 325 323 323 323 324 325 327 327 324 324 325 324 325 325 327 326 326 324 327 327 328 328 328 326 328 330 331 331 331 331 321 329 330 330
303 311 310 311 314 316 316 315 318 323 322 324 325 323 324 325 326 327 324 325 324 325 325 325 326 326 326 324 326 327 326 325 324 326 327 327 325 329 306 305 302 300 300 314
307 311 312 313 316 317 317 321 321 324 324 323 324 325 324 323 324 323 323 324 325 325 325 326 325 325 326 324 325 325 326 327 326 323 325 326 327 326 327 316 302 301 301 301
313 313 312 313 313 316 318 321 321 325 326 326 324 323 324 324 325 325 324 325 325 325 326 328 326 325 325 324 325 325 325 310 325 324 323 324 325 325 325 326 326 326 305 307
313 320 318 319 320 318 321 324 323 323 325 325 326 324 323 322 323 324 326 327 327 324 327 328 327 326 324 324 325 325 322 320 321 321 321 319 322 322 322 323 322 322 326 309
318 317 318 320 321 322 324 324 323 323 323 324 325 324 324 325 323 324 328 329 326 323 325 326 324 324 325 325 325 324 323 314 315 320 320 319 319 319 319 320 321 322 321 321
314 312 316 317 319 320 322 324 324 323 324 324 324 324 324 325 323 324 326 328 327 325 328 328 324 326 326 326 324 323 322 323 315 320 318 317 317 317 318 318 318 319 320 322
318 319 319 319 319 320 322 323 324 324 324 325 324 326 324 323 322 324 323 326 325 327 328 329 330 328 326 326 324 323 323 322 321 319 319 319 318 318 317 316 317 318 319 320
319 318 319 319 321 321 322 322 323 323 324 325 324 322 323 322 324 324 324 323 324 323 326 330 320 322 328 322 319 322 322 322 321 321 321 317 319 320 320 320 318 316 317 318
318 320 320 320 322 321 321 323 323 323 325 325 324 321 318 319 324 324 325 324 325 323 328 327 328 328 326 322 319 319 319 321 320 320 320 319 320 320 320 313 319 320 319 318
317 319 318 318 318 321 323 324 324 322 323 323 321 318 318 323 325 324 325 320 321 324 324 322 323 323 318 318 322 322 321 321 320 320 320 319 320 319 319 319 319 320 320 320
317 319 316 317 317 316 319 323 322 319 318 317 319 323 321 323 322 324 325 322 322 311 320 320 318 314 317 314 321 320 319 319 318 318 317 317 317 317 317 317 316 316 317 318
319 320 321 318 315 316 317 322 322 318 317 316 318 321 323 323 322 320 316 320 319 311 318 315 307 308 310 319 318 318 317 316 315 315 314 314 313 313 313 314 313 314 314 315
319 319 320 321 320 318 314 315 315 315 314 315 315 316 319 317 319 319 318 310 305 306 306 306 305 304 306 312 312 311 311 312 311 310 311 303 312 313 313 313 313 313 312 311
319 319 320 319 317 311 315 316 316 312 312 311 312 316 316 318 318 315 312 309 303 308 308 300 302 303 307 306 306 306 306 307 306 305 306 306 307 307 308 308 310 310 309 308
320 318 318 319 319 317 315 315 311 310 308 306 308 310 311 311 310 309 308 305 306 303 304 304 302 302 303 302 302 302 302 302 302 302 300 302 302 302 302 303 303 303 304 304
320 313 321 321 318 318 319 314 310 307 306 306 306 308 308 308 306 306 303 305 305 304 304 303 303 301 300 301 301 301 302 302 299 301 301 302 302 302 302 302 302 302 302 302

GFSNGP_sfc_thetae_117.txt.gz
Theta_e
308 308 308 306 306 306 305 307 303 305 304 309 312 318 321 323 324 324 325 326 327 328 329 332 334 335 337 339 342 344 344 346 346 349 350 350 350 350 349 350 350 351 350 352
304 306 306 304 305 306 306 306 305 305 305 314 321 322 321 322 322 322 324 325 326 326 327 327 330 333 335 335 339 342 341 343 345 348 345 347 346 346 346 346 346 347 347 347
300 305 304 300 304 305 306 307 306 303 311 318 318 319 320 321 322 323 324 325 324 323 323 326 323 326 326 329 331 337 338 341 342 345 344 345 345 345 345 346 346 345 345 346
300 303 294 306 311 310 308 309 312 313 315 318 318 320 321 323 325 326 324 324 324 323 323 324 322 324 327 328 328 329 334 337 339 338 340 345 345 345 345 346 346 346 345 347
299 300 303 305 310 309 308 309 314 314 315 317 319 319 320 327 327 326 324 326 327 328 327 325 322 324 326 327 328 329 327 332 334 334 336 339 339 341 345 343 346 346 346 345
303 298 296 308 316 317 315 303 318 317 317 316 318 310 313 327 326 326 327 328 327 326 324 323 326 326 328 326 326 326 325 328 329 333 335 339 341 343 345 347 346 347 344 344
301 299 302 310 318 318 301 307 319 319 319 318 316 319 324 327 327 329 327 326 326 325 321 322 327 325 324 326 324 327 332 333 334 335 334 336 344 345 345 345 344 342 338 336
304 301 298 319 316 309 316 321 320 320 321 320 322 323 325 325 327 328 325 324 324 323 322 322 325 325 324 323 327 332 333 334 336 337 339 340 341 342 343 339 339 337 332 330
306 308 317 319 317 318 320 319 320 321 322 321 321 322 324 326 328 328 325 322 324 321 321 320 322 325 326 328 329 333 334 334 335 338 337 340 342 344 337 340 340 335 337 338
309 312 313 316 319 318 319 319 321 322 322 322 320 322 323 326 328 328 327 323 325 325 322 322 322 321 328 328 330 332 332 332 333 333 333 339 337 336 333 331 334 333 335 335
310 313 313 315 318 319 318 319 319 320 322 323 323 323 324 326 327 329 328 326 325 325 324 324 327 325 327 327 328 329 329 329 329 327 329 331 332 331 330 323 318 330 329 331
304 313 313 314 317 317 316 316 318 319 320 324 324 324 324 325 325 326 325 325 325 326 326 322 325 327 327 327 327 329 327 324 325 326 326 326 327 330 306 306 303 300 299 313
310 314 314 315 317 317 316 317 320 322 323 323 325 325 325 324 326 322 324 324 323 324 325 326 327 327 326 326 327 328 327 329 325 322 324 325 326 325 328 319 303 302 301 299
314 314 312 314 313 317 318 318 320 323 326 327 326 325 325 325 325 325 325 325 326 326 326 327 328 326 325 325 328 328 328 314 325 323 322 323 323 323 323 323 325 326 306 306
314 316 315 318 320 320 320 318 318 322 325 326 327 326 325 322 323 324 326 327 326 326 329 327 325 325 326 327 326 326 322 320 322 322 320 320 321 321 321 322 321 321 325 312
317 317 317 317 318 321 320 319 320 322 324 324 324 326 325 325 326 325 327 328 323 322 324 325 324 325 326 326 327 325 324 316 318 321 321 319 319 318 318 319 320 321 321 323
314 313 315 316 318 319 321 321 322 323 323 323 324 328 324 324 321 325 325 328 326 326 327 325 325 327 326 326 325 325 323 323 321 321 319 320 320 319 318 317 317 318 320 319
319 320 320 319 318 319 321 323 325 325 324 326 326 327 324 324 321 325 324 327 325 324 325 327 329 329 327 326 325 324 322 322 321 320 321 321 320 320 321 320 320 317 317 318
320 320 321 320 321 321 322 324 326 326 327 326 326 326 325 327 326 324 323 324 324 321 326 329 321 324 329 322 322 323 321 321 320 320 320 318 320 320 320 320 321 320 320 320
320 320 321 321 323 323 322 323 325 325 325 325 325 324 324 324 324 322 322 324 327 325 329 328 329 328 327 325 321 321 322 321 320 320 320 319 319 319 319 313 318 319 319 320
318 320 320 322 321 322 324 325 325 324 324 325 324 323 323 322 324 322 322 324 325 325 325 322 322 320 324 319 321 320 318 319 318 319 318 318 318 317 317 317 317 318 318 318
320 319 319 318 317 318 322 324 324 323 323 323 322 319 319 319 319 322 325 324 321 310 319 318 316 311 315 311 320 318 317 317 316 316 316 315 315 314 314 314 314 316 316 316
320 321 320 318 321 319 319 320 320 318 318 316 316 318 320 318 318 317 316 318 316 309 315 310 305 306 306 316 315 314 314 313 313 312 312 312 312 312 313 313 314 315 315 314
320 321 321 322 321 320 314 317 318 318 315 315 314 318 322 318 317 318 314 307 306 307 306 304 304 303 302 309 309 309 308 309 309 308 307 301 307 307 308 308 309 310 311 308
320 320 320 320 320 317 318 317 315 313 314 314 312 313 310 316 314 315 314 310 304 307 309 299 302 303 306 305 305 305 305 304 304 303 304 303 303 303 304 304 304 305 304 305
321 321 320 320 318 316 314 311 309 308 308 307 310 312 314 311 311 312 310 307 307 305 307 307 305 304 304 303 303 304 304 304 304 303 302 303 304 304 304 304 304 305 305 305
320 314 321 319 318 319 316 313 311 311 309 310 309 311 311 311 308 307 303 307 306 306 306 305 305 303 302 302 303 303 303 303 300 303 303 303 303 303 303 303 303 303 303 303

GFSNGP_sfc_thetae_120.txt.gz
Theta_e
307 308 308 307 306 307 305 305 301 303 304 310 316 318 320 323 326 324 324 325 328 329 330 330 328 329 329 334 336 338 339 339 343 346 348 348 348 349 350 351 350 353 352 349
304 307 306 303 305 306 305 305 304 305 305 314 321 322 320 321 321 323 324 324 326 326 326 325 325 325 325 327 330 331 336 338 341 342 345 346 347 349 348 348 347 349 349 348
301 306 304 299 304 305 306 308 307 302 308 318 318 317 318 319 320 320 324 325 325 325 325 325 324 325 324 325 328 330 334 336 338 340 342 346 347 346 345 346 350 348 349 349
301 303 294 304 310 310 308 309 311 311 314 318 318 319 320 328 326 325 325 324 325 325 326 326 326 328 324 328 328 329 330 332 332 333 336 340 341 341 343 345 346 346 347 347
299 299 302 305 310 309 308 308 315 313 315 317 319 318 321 324 327 327 326 327 328 328 325 325 324 328 325 326 329 328 327 330 331 330 334 332 333 337 339 345 344 343 346 345
302 296 294 307 315 317 316 305 318 319 318 316 317 309 315 326 326 328 329 329 327 326 324 324 325 326 321 325 327 323 326 327 330 330 330 334 335 340 338 343 341 344 342 344
301 299 302 309 312 319 303 308 319 319 318 318 315 318 326 328 328 330 330 327 326 325 323 322 323 324 322 323 324 325 327 329 330 331 330 332 334 335 336 336 337 336 335 336
304 299 297 319 316 310 318 321 319 319 319 319 319 321 325 326 327 329 328 326 325 324 324 325 323 321 322 325 328 326 329 329 330 331 332 333 331 330 332 333 333 334 334 331
308 308 319 320 318 321 321 318 319 319 320 320 320 320 321 325 330 329 328 328 325 321 324 325 325 324 321 327 327 328 330 331 334 333 333 335 332 333 331 332 332 332 334 335
312 313 315 318 323 320 320 318 319 320 319 320 320 320 321 326 327 329 328 323 326 325 325 323 328 324 326 325 328 328 329 331 333 333 333 335 333 328 326 324 329 332 333 333
311 314 314 316 316 319 318 320 319 319 319 318 320 317 321 324 326 329 328 327 327 325 324 325 328 328 330 327 327 326 328 330 333 333 334 333 329 326 326 316 317 325 327 324
306 314 314 319 319 317 316 317 318 317 317 321 321 323 323 324 326 327 326 325 325 324 323 323 329 329 331 331 327 327 326 328 327 326 327 330 331 328 306 305 301 299 302 317
312 314 315 317 318 317 316 316 318 318 319 320 324 326 324 325 326 323 326 325 324 324 324 325 323 326 330 330 329 329 327 328 326 323 322 328 327 326 325 316 304 301 298 299
316 315 312 314 312 316 317 318 317 318 321 323 327 328 326 327 326 328 325 325 326 325 328 328 328 326 327 328 332 330 331 318 323 324 322 322 323 324 324 326 325 323 307 307
314 316 315 316 316 316 320 319 316 317 319 323 328 326 325 326 327 327 330 329 328 326 323 327 328 327 329 328 328 330 323 321 322 325 324 325 325 322 321 322 323 329 319 308
314 314 314 313 314 318 318 319 318 317 319 323 326 322 325 319 320 321 324 329 326 320 325 328 328 327 329 330 331 329 327 319 318 324 322 321 320 319 319 324 325 322 323 326
313 312 314 314 316 317 318 318 320 319 321 320 322 323 325 321 321 321 321 320 329 327 324 325 326 329 328 328 329 325 320 323 320 320 322 322 322 321 322 324 323 322 323 323
316 316 317 317 316 317 318 320 321 315 317 318 316 317 321 318 313 315 316 318 325 325 323 324 324 326 328 329 326 323 323 325 322 320 322 321 319 321 320 321 321 319 323 321
317 317 320 320 319 320 319 320 318 317 318 324 324 320 325 322 324 321 325 324 324 322 319 330 325 328 327 325 322 322 321 320 321 319 321 318 322 320 319 320 320 320 320 318
320 321 320 322 323 322 322 324 325 322 325 327 327 326 324 325 323 321 320 318 322 325 329 326 328 327 328 328 321 322 321 317 318 319 317 318 317 318 318 312 317 319 319 319
319 319 320 321 321 322 324 325 324 321 324 326 325 324 324 324 322 319 318 316 321 321 322 320 317 312 317 313 314 318 320 318 317 318 316 316 315 315 315 314 314 316 316 316
319 317 318 320 320 321 321 317 317 321 322 321 322 321 319 319 319 319 321 318 315 310 314 312 309 308 309 308 315 316 315 315 314 314 313 312 311 311 312 313 313 314 314 315
318 320 318 319 318 317 317 318 319 319 319 320 319 318 316 315 316 315 311 312 312 308 309 306 304 305 305 312 311 310 310 309 309 309 308 307 306 307 306 306 307 309 309 310
322 321 320 321 321 317 316 318 317 317 316 313 311 317 316 315 314 311 310 307 306 305 304 303 303 304 303 306 306 305 305 305 305 304 303 300 303 303 304 305 304 305 305 304
321 321 321 319 319 318 318 318 317 315 313 312 311 311 311 311 311 313 312 309 304 306 306 301 302 304 305 304 303 304 304 304 303 303 303 303 303 303 304 305 305 305 305 306
322 323 322 321 316 315 314 311 308 309 309 307 309 310 310 310 313 311 309 307 308 306 307 306 304 304 303 303 303 303 303 303 303 303 302 303 303 303 303 303 303 303 304 304
321 315 319 317 317 316 315 314 313 311 310 310 309 309 311 310 307 306 305 307 307 306 306 305 304 303 302 302 302 303 303 303 300 302 303 303 303 304 304 304 304 304 303 303

GFSNGP_sfc_thetae_123.txt.gz
Theta_e
299 303 303 303 303 303 297 298 294 297 297 299 312 313 315 318 319 320 319 321 321 320 318 319 319 320 322 323 325 326 327 327 330 333 335 337 339 341 342 342 342 343 344 344
298 304 304 302 304 303 302 301 299 299 297 314 314 315 314 315 316 316 320 321 321 321 320 318 319 319 322 322 324 326 326 329 331 331 333 333 336 340 340 340 340 341 341 342
295 303 302 296 300 302 302 303 301 297 308 313 312 314 315 319 320 318 319 320 320 320 319 320 319 321 320 322 325 325 327 327 329 328 328 330 333 336 339 338 339 339 339 340
294 297 289 299 307 307 305 306 307 307 314 314 313 315 318 320 320 321 321 321 320 319 319 318 318 319 322 321 325 326 324 324 327 328 327 327 330 331 333 333 333 335 336 336
293 293 298 302 305 308 305 304 312 310 314 315 316 316 314 318 322 321 321 321 321 320 319 318 318 320 320 319 323 323 322 324 326 327 325 328 327 328 332 331 332 334 336 334
295 291 290 300 309 315 312 299 316 316 313 312 312 303 309 318 323 323 324 323 321 320 319 318 318 319 319 321 322 321 323 324 327 327 327 328 329 328 330 333 333 334 335 334
297 294 298 307 311 314 298 301 315 315 313 312 308 310 314 321 322 326 324 323 322 320 317 317 317 315 316 320 314 322 324 326 327 327 328 328 325 324 323 329 331 332 331 331
297 295 292 316 315 306 312 313 314 314 313 311 315 316 315 321 323 324 323 320 320 318 318 319 317 316 315 317 321 322 324 326 326 326 328 330 326 325 328 330 330 330 328 328
302 300 311 314 314 316 315 313 314 312 314 315 313 314 315 316 324 324 323 322 319 315 317 319 320 319 314 317 323 322 324 325 326 327 328 328 325 323 326 326 328 327 329 328
304 311 310 312 318 318 318 314 315 314 313 312 313 314 314 313 320 323 319 319 320 318 318 318 319 322 318 321 322 322 321 323 325 326 324 326 325 322 320 322 323 326 326 325
303 306 312 319 315 315 318 318 316 315 314 313 313 314 313 311 320 323 322 321 320 319 318 318 323 322 322 322 322 320 322 323 323 323 325 321 314 310 316 309 307 320 318 318
299 306 307 309 316 314 316 315 315 314 313 315 314 315 317 316 322 321 321 321 319 318 317 318 321 321 322 320 319 320 321 322 321 319 317 325 322 317 305 304 301 299 303 312
306 311 313 314 315 314 313 312 314 313 314 314 315 320 321 322 322 322 321 319 320 318 317 320 323 321 318 318 320 321 321 322 320 316 317 315 319 321 319 314 303 300 298 297
311 313 310 310 308 314 314 316 316 315 314 315 318 320 324 323 322 321 319 319 320 319 320 321 321 320 319 320 321 322 316 314 313 314 313 313 316 315 320 319 319 315 307 304
309 312 311 312 313 312 314 315 315 314 314 313 316 320 321 319 318 319 323 322 321 321 322 321 320 317 319 320 320 319 315 314 313 315 316 312 313 312 312 313 315 318 315 309
312 312 314 312 311 314 314 314 313 314 315 315 316 318 319 319 317 319 320 321 317 317 316 318 318 317 318 319 320 321 322 317 314 315 317 312 313 312 312 311 310 316 316 316
307 307 312 310 310 311 315 316 315 316 317 314 314 316 318 318 317 317 315 320 320 319 318 320 320 322 322 320 318 320 318 318 319 317 316 316 315 314 316 316 315 314 314 317
312 312 311 312 312 311 314 316 318 316 316 319 316 318 317 315 313 314 314 317 318 315 312 319 321 324 322 316 316 316 315 315 315 316 314 313 313 313 315 315 316 314 314 311
311 314 312 312 319 318 319 320 319 317 318 318 316 314 316 316 315 315 315 319 316 311 311 317 322 323 320 319 316 316 316 313 313 315 316 314 314 312 311 314 314 314 314 313
310 313 316 320 320 321 320 321 321 318 320 320 319 315 316 315 316 318 318 317 316 319 319 316 311 309 312 308 312 311 315 315 314 311 310 309 309 308 309 306 312 312 311 310
311 314 318 318 319 320 317 320 319 316 320 321 319 317 317 316 317 314 314 311 313 318 310 310 304 301 304 306 307 311 310 310 308 308 305 303 303 304 304 305 305 307 309 309
316 316 318 318 317 316 316 317 316 318 318 317 318 318 316 315 315 314 314 308 307 307 304 301 298 305 304 310 305 304 304 305 304 302 300 299 299 299 298 299 300 302 302 301
316 317 317 315 315 315 316 316 315 316 316 316 315 314 314 312 313 307 302 304 303 303 300 299 304 306 307 301 301 300 301 301 298 298 298 298 297 297 297 298 297 298 298 297
317 317 316 316 317 314 312 311 311 311 313 314 315 316 314 309 307 306 305 305 304 301 299 299 302 304 303 298 299 298 299 298 297 297 297 297 297 297 298 298 298 298 298 298
318 317 318 315 314 313 314 313 312 310 308 307 307 308 309 310 309 307 305 302 302 302 299 301 304 304 298 297 298 298 297 297 297 297 297 297 297 297 297 298 298 297 298 298
316 316 316 314 313 313 311 310 308 308 308 306 307 308 308 309 308 306 304 304 303 303 301 300 298 297 297 297 298 298 298 298 298 297 297 298 298 298 298 298 297 297 297 297
316 312 315 313 313 312 312 310 308 306 307 306 305 308 308 308 304 302 304 303 303 301 301 300 298 298 296 297 298 298 298 298 296 296 298 298 298 298 298 297 297 297 296 295

GFSNGP_sfc_thetae_126.txt.gz
Theta_e
297 300 300 299 301 300 294 294 294 295 296 302 309 311 313 315 316 318 318 318 318 316 315 316 316 317 319 319 321 322 323 325 325 328 331 329 330 331 335 337 340 341 340 341
294 301 301 300 302 302 299 299 296 296 295 311 312 312 311 313 313 317 317 318 319 318 317 317 316 317 319 319 319 321 323 323 325 326 327 328 327 328 331 332 337 340 339 340
291 299 298 295 298 300 300 301 298 294 302 310 309 313 314 315 317 316 317 318 317 317 317 316 315 317 316 317 318 320 323 324 324 325 325 325 326 327 327 330 338 338 338 338
292 293 287 297 303 305 303 304 306 307 310 310 312 315 316 317 317 318 318 318 318 317 317 315 315 316 318 318 317 320 322 321 324 325 325 325 326 327 326 329 330 333 334 333
290 289 294 300 303 304 302 303 311 310 312 314 314 312 310 316 319 319 319 318 318 317 316 315 315 316 316 316 316 319 321 322 324 325 324 325 322 327 325 328 327 328 331 332
291 289 288 297 306 311 309 296 313 312 310 312 310 301 306 316 321 320 321 320 319 318 316 315 314 313 313 314 314 311 318 322 325 326 325 325 326 323 324 326 329 331 332 332
291 291 294 303 307 312 296 298 313 312 311 309 306 307 311 317 320 321 321 321 320 317 316 315 314 312 311 312 312 314 320 323 324 326 325 326 326 326 328 331 330 329 329 329
292 290 290 311 312 304 305 311 312 311 311 310 310 312 315 318 320 322 321 320 319 316 316 316 315 312 311 311 313 319 321 323 324 325 326 327 324 324 328 328 329 328 328 327
296 296 302 309 307 312 314 312 312 311 312 312 313 313 316 318 320 321 321 318 317 315 314 317 317 315 313 314 314 321 320 322 322 324 325 325 323 323 325 326 326 325 325 324
297 301 305 310 313 316 314 312 313 312 311 311 312 313 313 316 319 319 318 317 314 313 315 314 315 317 318 318 318 319 320 322 322 321 323 320 319 318 315 318 322 324 320 316
297 300 304 308 311 311 312 315 314 312 312 311 312 311 311 310 316 319 316 318 317 315 315 314 317 316 318 319 319 316 320 321 321 319 321 316 312 310 311 308 306 317 316 314
294 301 303 304 310 313 313 310 313 314 311 313 311 309 313 310 317 320 319 318 316 315 315 314 314 321 319 319 316 315 318 320 318 315 314 320 318 318 306 304 300 298 300 308
298 303 305 308 310 313 310 312 312 313 313 311 312 311 314 312 320 318 317 318 316 315 314 313 317 319 321 317 316 317 317 315 313 314 313 312 318 316 315 316 303 299 297 296
302 305 303 307 305 309 311 313 313 315 314 312 312 314 318 319 321 319 320 320 318 317 315 316 318 317 316 318 317 317 315 310 311 312 313 310 312 317 316 316 316 315 303 301
302 305 305 307 308 310 311 311 311 312 312 313 319 318 320 318 317 318 322 320 319 316 315 318 317 314 315 317 318 317 316 315 311 312 312 308 308 308 308 308 314 314 313 307
302 307 308 307 307 310 314 312 312 313 314 315 317 316 316 318 318 318 318 318 315 312 315 316 315 315 316 315 316 317 318 317 315 314 313 311 311 310 311 310 310 315 313 312
302 304 306 306 307 308 310 313 315 314 314 315 314 314 316 314 313 315 313 319 316 316 315 315 317 319 318 313 316 316 316 317 315 315 314 314 312 311 313 312 314 312 309 310
306 307 311 308 308 310 312 313 316 315 315 316 315 315 314 313 313 313 314 316 316 313 312 315 318 321 318 315 312 312 312 310 311 311 311 310 309 307 314 314 315 312 310 309
309 311 310 311 310 314 314 317 316 316 317 317 314 313 313 314 314 314 314 315 314 310 309 314 320 317 310 309 311 310 313 310 309 308 307 306 306 307 307 309 310 309 309 309
311 312 314 311 312 317 317 317 316 316 317 315 313 315 314 313 316 315 317 314 313 313 311 308 308 306 303 304 312 309 308 306 304 302 302 302 301 303 303 302 307 307 307 307
310 313 316 311 314 314 315 315 313 315 312 316 314 315 315 316 317 316 312 309 311 306 302 303 301 300 301 305 304 303 303 301 300 298 298 296 297 297 297 298 300 299 298 300
312 315 314 313 311 311 313 313 315 315 315 315 317 316 315 314 311 306 307 303 303 303 298 296 299 308 303 304 298 298 298 297 296 296 295 295 295 295 295 296 296 297 296 295
313 313 312 312 312 311 310 311 314 316 315 315 314 313 311 309 306 301 299 300 298 299 296 299 305 305 304 297 297 297 297 296 296 295 295 294 294 295 295 295 295 296 295 295
312 313 314 314 310 308 306 310 311 309 311 313 312 309 306 303 303 302 301 301 301 298 298 299 301 302 299 295 295 295 295 295 294 294 295 295 294 294 295 295 294 294 294 294
314 315 314 311 308 307 307 308 307 307 307 307 308 309 309 308 303 302 300 300 302 299 297 302 301 300 295 294 294 295 294 294 293 294 295 295 294 294 294 294 294 294 294 294
312 310 309 310 310 309 307 306 306 306 306 306 307 307 307 306 305 303 302 300 300 301 296 295 294 294 295 295 296 295 294 294 294 295 296 295 295 294 294 294 294 294 293 293
309 307 307 306 308 307 305 304 303 302 304 305 305 306 306 304 302 300 299 299 298 297 296 295 293 295 294 294 295 295 294 293 294 295 295 294 294 293 293 293 293 293 292 292